GFSSGP_con_mlcape_000.txt.gz
CAPE
0 0 0 0 0 0 0 0 0 0 0 0 0 0 0 0 0 0 0 10 0 0 0 111 166 95 0 0 0 1 0 0 0 0 0 0 0 0 0 0 0 0 0 0 0 0 0 0 0
0 0 0 0 0 0 0 0 0 0 0 0 0 0 0 0 0 0 2 2 0 0 0 20 78 54 12 9 9 42 17 0 0 0 0 0 0 0 0 0 1 7 14 6 0 0 1 0 0
0 0 0 0 0 0 0 0 0 0 0 0 0 0 0 0 0 0 0 0 0 0 3 11 42 109 80 57 33 57 115 76 27 2 0 0 0 20 84 9 0 6 18 112 55 11 0 1 2
0 0 0 0 0 0 0 0 0 0 0 0 0 0 0 0 0 0 0 7 0 0 50 32 113 149 147 126 84 175 204 215 211 172 141 191 242 224 58 20 65 58 100 12 12 28 115 40 0
0 0 0 0 0 0 0 0 0 0 0 0 0 0 0 0 0 0 0 23 12 25 88 116 210 214 196 163 172 224 239 239 375 423 328 501 400 360 228 144 107 71 75 47 18 13 12 82 76
0 0 0 0 0 0 0 0 0 0 0 0 0 0 0 0 0 0 2 1 14 26 74 104 338 215 260 216 357 393 308 270 317 675 668 722 545 488 293 216 125 117 66 4 11 17 17 33 64
0 0 0 0 0 0 0 0 0 0 0 0 0 0 0 0 0 0 0 0 2 12 37 83 333 360 306 491 603 432 217 327 500 589 407 287 112 16 0 0 6 29 41 27 25 26 30 32 33
0 0 0 0 0 0 0 0 0 0 0 0 0 0 0 0 0 0 0 0 5 19 36 68 208 373 548 803 706 476 431 396 106 130 24 0 0 0 0 0 1 6 11 13 12 7 3 14 31
0 0 0 0 0 0 0 0 0 0 0 0 0 0 0 0 0 0 0 2 19 58 85 123 241 365 452 679 720 867 436 259 191 27 0 1 0 0 0 0 0 0 4 8 8 5 6 5 6
0 0 0 0 0 0 0 0 0 0 0 0 0 0 0 0 0 0 0 0 1 38 116 157 257 323 390 475 570 515 317 260 24 0 0 1 0 0 0 0 0 5 25 31 40 85 31 26 3
0 0 0 0 0 0 0 0 0 0 0 0 0 0 0 0 0 0 0 0 0 6 102 166 317 325 335 240 100 244 63 11 0 0 0 0 0 0 0 0 0 0 0 0 0 0 9 39 44
0 0 0 0 0 0 0 0 0 0 0 0 0 0 0 0 0 0 0 0 0 0 23 121 347 263 177 71 14 1 0 0 0 0 0 0 0 0 0 0 0 0 0 0 4 0 7 39 62
0 0 0 0 0 0 0 0 0 0 0 0 0 0 0 0 0 0 0 0 0 0 0 42 168 164 78 17 0 0 0 0 0 0 0 0 0 0 0 0 0 0 19 13 21 17 11 42 53
0 0 0 0 0 0 0 0 0 0 0 0 0 0 0 0 0 0 0 0 0 0 0 0 34 57 48 0 0 0 0 0 0 0 0 0 0 0 0 0 4 5 6 14 10 4 6 25 43
0 0 0 0 0 0 0 0 0 0 0 0 0 0 0 0 0 0 0 0 0 0 0 0 1 9 0 0 0 0 5 0 0 0 0 0 0 0 0 0 6 7 3 5 0 0 0 0 11
0 0 0 0 0 0 0 0 0 0 0 0 0 0 0 0 0 0 0 0 0 0 0 0 0 0 0 0 0 2 3 4 0 0 0 0 0 0 0 0 15 3 0 0 0 0 0 0 0
0 0 0 0 0 0 0 0 0 0 0 0 0 0 0 0 0 0 0 0 0 0 0 0 0 0 0 0 0 0 5 9 0 0 0 0 4 0 0 3 8 0 0 0 0 0 0 1 1
0 0 0 0 0 0 0 0 0 0 0 0 0 0 0 0 0 0 0 0 0 0 0 0 0 0 0 0 0 7 2 0 0 0 6 15 15 13 11 0 0 0 0 0 0 0 0 12 19
0 0 0 0 0 0 0 0 0 0 0 0 0 0 0 0 0 0 0 0 0 0 0 0 0 0 0 0 7 3 8 0 0 0 16 38 10 8 0 0 0 0 0 0 0 0 0 14 19
0 0 0 0 0 0 0 0 0 0 0 0 0 0 0 0 0 0 0 0 0 0 0 0 0 0 0 3 3 2 0 3 0 0 36 52 27 1 4 0 0 0 0 0 0 0 0 0 19
0 0 0 0 0 0 0 0 0 0 0 0 0 0 0 0 0 0 0 0 0 0 0 0 0 0 1 5 0 0 0 0 0 0 1 0 0 8 13 6 0 0 0 0 0 0 0 2 1
0 0 0 0 0 0 0 0 0 0 0 0 0 0 0 0 0 0 0 0 0 0 0 0 0 0 4 0 0 0 0 0 0 0 0 0 0 8 2 1 0 0 0 0 0 0 3 10 18
0 0 0 0 0 0 0 0 0 0 0 0 0 0 0 0 0 0 0 0 0 0 0 0 0 0 0 0 0 0 0 0 0 0 0 0 0 6 0 0 0 0 0 0 0 0 0 13 19
0 0 0 0 0 0 0 0 0 0 0 0 0 0 0 0 0 0 0 0 0 0 0 0 0 0 0 0 0 0 0 0 0 0 0 0 0 7 0 0 0 0 0 0 0 0 0 2 9
0 0 0 0 0 0 0 0 0 0 0 0 0 0 0 0 0 0 0 0 0 0 0 0 0 0 0 0 0 0 0 0 0 0 0 0 0 4 0 0 0 0 0 2 5 4 0 0 3
0 0 0 0 0 0 0 0 0 0 0 0 0 0 0 0 0 0 0 0 0 0 0 0 0 0 0 0 0 0 0 0 0 0 0 0 0 0 0 0 0 4 27 17 27 32 7 0 1
0 0 0 0 0 0 0 0 0 0 0 0 0 0 0 0 0 0 0 0 0 0 0 0 0 0 0 0 0 0 0 0 0 0 0 0 0 0 0 0 0 10 16 15 25 35 30 4 4
0 0 0 0 0 0 0 0 0 0 0 0 0 0 0 0 0 0 0 0 0 0 0 0 0 0 0 0 0 0 1 0 0 0 0 0 0 0 0 0 1 4 15 18 26 39 40 31 30
0 0 0 0 0 0 0 0 0 0 0 0 0 0 0 0 0 0 0 0 0 0 0 0 0 0 0 0 0 0 3 0 0 0 0 0 0 0 0 0 0 0 0 30 26 27 34 22 20
0 0 0 0 0 0 0 0 0 0 0 0 0 0 0 0 0 0 0 0 0 0 0 0 0 0 0 0 0 0 2 0 0 0 0 0 0 0 0 0 1 0 2 19 17 26 41 9 9

GFSSGP_con_mlcape_003.txt.gz
CAPE
0 0 0 0 0 0 0 0 0 0 0 0 0 0 0 0 0 0 0 3 0 0 0 122 209 111 6 0 0 0 0 0 0 0 0 0 0 0 0 0 0 0 0 0 0 0 0 0 0
0 0 0 0 0 0 0 0 0 0 0 0 0 0 0 0 0 0 3 28 0 0 0 91 181 90 58 30 9 16 1 0 1 0 0 0 0 0 0 0 0 0 0 0 25 44 12 1 1
0 0 0 0 0 0 0 0 0 0 0 0 0 0 0 0 0 0 9 14 0 0 3 83 168 112 110 62 81 111 127 90 48 32 9 2 0 0 0 17 68 26 1 0 66 171 127 78 1
0 0 0 0 0 0 0 0 0 0 0 0 0 0 0 0 0 0 23 6 0 0 74 124 166 173 196 153 161 227 235 189 155 122 141 112 153 208 211 261 232 207 121 56 93 2 28 211 190
0 0 0 0 0 0 0 0 0 0 0 0 0 0 0 0 0 0 59 40 0 0 94 225 310 234 215 263 355 387 273 220 290 404 436 461 516 475 468 479 334 242 252 211 140 17 27 54 107
0 0 0 0 0 0 0 0 0 0 0 0 0 0 0 0 0 0 78 106 33 24 28 374 499 317 282 416 558 558 445 456 576 603 734 674 787 715 617 538 510 447 361 296 222 43 21 41 47
0 0 0 0 0 0 0 0 0 0 0 0 0 0 0 0 0 3 51 117 94 119 103 380 710 561 526 476 536 608 562 521 610 720 823 822 707 453 127 40 38 74 160 226 202 71 41 55 59
0 0 0 0 0 0 0 0 0 0 0 0 0 0 0 0 0 2 27 59 47 161 234 368 539 781 815 877 810 645 621 533 518 936 812 335 5 0 0 0 0 0 1 3 4 9 60 79 47
0 0 0 0 0 0 0 0 0 0 0 0 0 0 0 0 0 0 18 64 28 88 226 297 409 636 847 809 1062 883 757 584 741 539 297 0 11 5 0 0 0 0 1 7 7 4 14 23 35
0 0 0 0 0 0 0 0 0 0 0 0 0 0 0 0 0 0 8 12 14 48 85 148 261 476 623 817 1016 987 860 546 529 426 166 194 172 45 0 0 0 0 11 119 133 142 39 103 26
0 0 0 0 0 0 0 0 0 0 0 0 0 0 0 0 0 0 0 4 1 58 66 99 217 444 574 812 951 1025 728 669 624 266 183 185 92 21 0 0 1 3 0 0 1 0 0 5 58
0 0 0 0 0 0 0 0 0 0 0 0 0 0 0 0 0 0 0 0 24 44 56 105 224 385 671 766 634 568 432 381 206 224 212 253 185 55 11 1 3 0 1 0 9 4 14 30 72
0 0 0 0 0 0 0 0 0 0 0 0 0 0 0 0 0 0 0 0 1 21 44 132 274 352 568 543 404 262 196 109 129 211 227 271 237 226 106 38 46 40 1 42 58 31 54 79 103
0 0 0 0 0 0 0 0 0 0 0 0 0 0 0 0 0 0 0 0 0 4 17 41 184 500 581 368 195 99 118 64 150 152 179 154 162 165 130 80 80 136 24 26 93 43 53 46 101
0 0 0 0 0 0 0 0 0 0 0 0 0 0 0 0 0 0 0 0 0 0 0 0 98 431 530 280 151 72 32 148 196 217 243 146 144 157 232 231 278 145 48 4 22 77 81 76 77
0 0 0 0 0 0 0 0 0 0 0 0 0 0 0 0 0 0 0 0 0 0 0 0 2 286 444 292 103 38 111 226 211 220 252 208 266 398 379 350 343 192 72 29 40 44 53 46 54
0 0 0 0 0 0 0 0 0 0 0 0 0 0 0 0 0 0 0 0 0 0 0 0 0 102 303 153 52 50 176 175 189 220 273 315 421 423 352 347 178 151 124 26 34 35 54 37 61
0 0 0 0 0 0 0 0 0 0 0 0 0 0 0 0 0 0 0 0 0 0 0 0 0 134 89 37 6 77 142 178 234 259 336 455 501 372 326 197 100 116 77 59 90 81 47 80 73
0 0 0 0 0 0 0 0 0 0 0 0 0 0 0 0 0 0 0 0 0 0 0 0 0 27 16 0 0 49 125 167 189 239 280 475 539 349 336 225 45 1 25 76 150 87 66 71 76
0 0 0 0 0 0 0 0 0 0 0 0 0 0 0 0 0 0 0 0 0 0 0 0 0 8 4 0 9 139 177 261 255 230 333 552 507 391 268 80 11 12 108 164 123 80 49 34 77
0 0 0 0 0 0 0 0 0 0 0 0 0 0 0 0 0 0 0 0 0 0 0 0 3 9 1 0 41 50 82 82 99 90 198 222 104 120 211 104 57 133 162 125 85 52 30 26 84
0 0 0 0 0 0 0 0 0 0 0 0 0 0 0 0 0 0 0 0 0 0 0 0 6 11 0 7 15 33 181 75 1 21 62 85 38 128 178 183 151 274 201 113 84 53 40 37 60
0 0 0 0 0 0 0 0 0 0 0 0 0 0 0 0 0 0 0 0 0 0 0 0 3 0 5 9 30 131 89 3 0 4 17 45 73 103 49 158 187 143 153 144 54 22 65 148 79
0 0 0 0 0 0 0 0 0 0 0 0 0 0 0 0 0 0 0 0 0 0 0 0 0 9 21 40 53 149 46 0 0 0 0 1 16 22 77 32 117 121 174 64 38 102 90 140 94
0 0 0 0 0 0 0 0 0 0 0 0 0 0 0 0 0 0 0 0 0 0 0 0 0 2 21 43 49 59 36 0 0 0 0 0 4 33 44 20 11 72 139 109 117 85 73 110 104
0 0 0 0 0 0 0 0 0 0 0 0 0 0 0 0 0 0 0 0 0 0 0 0 0 0 4 11 80 8 10 0 0 0 0 0 15 16 0 0 23 123 95 132 91 115 90 59 73
0 0 0 0 0 0 0 0 0 0 0 0 0 0 0 0 0 0 0 0 0 0 0 0 0 0 0 3 37 4 4 0 0 0 0 0 0 0 0 2 62 68 92 107 94 154 167 106 99
0 0 0 0 0 0 0 0 0 0 0 0 0 0 0 0 0 0 0 0 0 0 0 0 0 0 0 0 27 17 53 0 0 0 0 0 0 0 0 0 34 54 134 158 263 191 219 184 212
0 0 0 0 0 0 0 0 0 0 0 0 0 0 0 0 0 0 0 0 0 0 0 0 0 0 0 0 0 2 60 12 0 0 0 0 0 0 0 0 16 40 128 264 143 121 69 57 168
0 0 0 0 0 0 0 0 0 0 0 0 0 0 0 0 0 0 0 0 0 0 0 0 0 0 0 0 0 2 68 23 0 0 0 0 0 0 0 39 43 41 107 186 160 69 14 19 62

GFSSGP_con_mlcape_006.txt.gz
CAPE
0 0 0 0 0 0 0 0 0 0 0 0 0 0 0 0 0 0 30 131 76 0 78 146 107 25 0 0 0 0 0 0 0 0 0 0 0 0 0 0 0 0 0 0 0 0 3 0 0
0 0 0 0 0 0 0 0 0 0 0 0 0 0 0 0 0 0 0 127 51 0 111 119 191 87 15 2 0 0 0 0 0 0 0 0 0 0 0 0 0 0 0 0 3 90 36 10 2
0 0 0 0 0 0 31 0 0 0 0 0 0 0 0 0 0 0 113 201 50 0 77 153 227 111 74 29 0 0 0 0 0 0 0 0 0 0 0 0 0 48 50 35 5 132 294 153 46
0 0 0 0 13 106 133 0 0 0 0 0 0 0 0 0 0 0 133 160 68 0 16 177 336 184 106 75 17 19 28 20 69 71 58 38 52 37 39 94 129 202 192 102 84 88 198 137 222
0 0 0 0 0 0 58 109 30 0 0 0 0 0 0 0 0 0 113 117 65 25 59 124 463 328 151 187 134 124 146 248 323 255 210 286 295 318 471 474 544 507 301 282 252 292 141 133 58
0 0 0 0 0 0 0 0 0 0 0 0 0 0 0 0 0 6 79 138 89 45 146 253 827 669 273 295 293 284 342 488 370 316 367 554 594 689 738 730 648 581 506 445 400 292 243 57 99
0 0 0 0 0 0 0 0 0 0 0 0 0 0 0 0 0 1 70 125 136 57 130 377 890 989 715 409 498 485 443 469 456 427 699 808 917 943 613 287 127 112 141 259 342 328 229 84 52
0 0 0 0 0 0 0 0 0 0 0 0 0 0 3 4 0 2 54 75 142 119 101 163 537 802 637 589 1047 746 613 618 656 745 790 966 836 261 0 0 0 3 24 30 69 117 119 124 142
0 0 0 0 0 0 0 0 0 0 0 0 0 0 0 0 0 18 41 62 96 121 141 113 324 606 521 390 934 1278 1064 1034 917 772 890 613 40 76 134 2 0 0 0 0 10 13 30 34 50
0 0 0 0 0 0 0 0 0 0 0 0 0 0 3 0 0 1 0 20 91 121 122 206 403 572 563 274 607 1148 747 578 375 311 353 400 201 333 91 0 0 0 0 11 169 175 109 31 19
0 0 0 0 0 0 0 0 0 0 0 0 0 0 17 0 0 2 0 2 8 80 106 166 420 795 672 436 694 904 520 569 568 585 423 334 374 353 236 144 93 111 62 5 20 57 38 47 41
0 0 0 0 0 0 0 0 0 0 0 0 0 0 3 0 0 3 4 1 0 30 94 166 273 936 1019 558 762 565 540 579 562 452 465 436 450 380 335 178 80 96 14 5 20 30 22 28 43
0 0 0 0 0 0 0 0 0 0 0 0 0 0 0 0 0 0 0 0 0 20 70 205 357 828 1093 926 794 593 467 424 317 189 419 569 448 438 434 317 219 74 186 14 21 61 32 38 47
0 0 0 0 0 0 0 0 0 0 0 0 0 0 0 0 0 0 0 0 0 8 79 234 432 834 1104 1166 872 741 558 326 292 140 403 585 525 441 528 377 314 241 244 197 28 34 38 34 56
0 0 0 0 0 0 0 0 0 0 0 0 0 0 0 0 0 0 0 0 0 10 56 327 503 894 1256 1253 1033 671 430 308 144 321 644 671 684 578 694 552 554 493 420 426 69 16 48 28 31
0 0 0 0 0 0 0 0 0 0 0 0 0 0 0 0 0 0 0 0 0 29 35 225 404 781 1369 1226 1007 435 250 194 201 424 486 667 756 763 706 709 668 612 530 359 42 153 21 45 32
0 0 0 0 0 0 0 0 0 0 0 0 0 0 0 0 0 0 0 0 0 63 93 205 240 582 1310 1234 803 415 321 237 338 401 442 552 731 760 710 691 649 523 94 161 432 155 37 46 34
0 0 0 0 0 0 0 0 0 0 0 0 0 0 0 0 0 0 0 0 1 45 145 54 152 549 1295 1101 616 315 322 297 392 391 487 635 753 739 641 686 542 138 111 275 249 101 153 71 66
0 0 0 0 0 0 0 0 0 0 0 0 0 0 0 0 0 0 0 0 7 0 18 49 179 675 1000 685 321 161 171 220 262 409 661 800 764 682 592 566 436 374 154 20 81 201 165 127 146
0 0 0 0 0 0 0 0 0 0 0 0 0 0 0 0 0 0 1 0 0 0 24 164 379 877 674 305 86 75 108 139 251 460 743 783 709 604 533 493 370 185 30 99 182 165 157 125 147
0 0 0 0 0 0 0 0 0 0 0 0 0 0 0 0 0 0 11 0 0 11 127 323 607 615 189 132 291 450 447 388 280 400 393 574 574 505 388 413 285 210 218 275 256 203 131 101 148
0 0 0 0 0 0 0 0 0 0 0 0 0 0 0 0 0 0 8 0 11 41 156 400 467 276 242 197 106 63 11 70 128 111 179 311 331 282 279 376 341 332 343 285 214 151 102 160 236
0 0 0 0 0 0 0 0 0 0 0 0 0 0 0 0 0 0 21 4 10 49 198 332 323 258 267 163 125 124 114 133 95 18 228 313 318 200 137 346 329 374 324 374 265 205 192 191 306
0 0 0 0 0 0 0 0 0 0 0 0 0 0 0 0 0 0 0 0 0 43 196 247 255 237 241 171 229 245 383 229 25 77 107 146 227 154 156 152 234 368 383 413 271 253 254 371 400
0 0 0 0 0 0 0 0 0 0 0 0 0 0 0 3 1 0 0 0 3 30 78 127 120 182 150 127 196 381 547 218 196 92 121 141 184 28 65 174 278 383 472 456 340 313 299 394 446
0 0 0 0 0 0 0 0 0 0 0 0 0 0 0 4 0 0 0 1 0 9 18 3 100 99 76 39 251 330 280 43 10 82 29 45 55 15 108 155 218 289 280 344 467 487 319 303 410
0 0 0 0 0 0 0 0 0 0 0 0 0 0 0 7 0 1 6 0 0 7 4 51 32 0 1 79 233 349 220 50 49 61 37 29 7 17 64 106 140 183 134 208 375 288 355 304 317
0 0 0 0 0 0 0 0 0 0 0 0 0 0 7 13 8 8 0 0 5 12 40 32 0 0 9 151 147 201 176 106 78 42 15 6 4 7 24 54 114 190 201 194 346 403 330 376 337
0 0 0 0 0 0 0 0 0 0 0 0 0 13 33 11 11 0 0 2 26 47 59 24 0 0 20 81 158 163 175 92 83 57 9 2 5 6 1 15 77 81 167 323 364 297 246 241 365
0 0 0 0 0 0 0 0 0 0 0 0 0 28 50 12 0 0 0 0 13 50 29 0 0 0 0 33 79 157 111 114 76 47 37 1 5 2 0 27 11 26 148 232 282 200 76 173 341

GFSSGP_con_mlcape_009.txt.gz
CAPE
0 0 0 0 0 0 0 0 0 0 3 0 0 0 0 0 0 0 0 36 33 28 142 57 23 0 0 0 0 0 0 0 0 0 0 0 0 0 0 0 0 0 0 0 0 1 0 0 0
0 0 0 0 0 0 0 1 8 23 2 0 0 0 0 0 0 0 22 65 61 54 165 91 59 29 26 0 0 0 0 0 0 0 0 0 0 0 0 0 0 0 0 0 0 2 85 23 0
0 0 0 0 0 0 47 41 17 3 0 0 0 0 0 0 0 0 48 73 50 29 297 170 90 86 80 38 0 0 0 0 0 0 0 0 0 0 0 3 0 0 69 63 54 19 185 291 122
0 0 0 0 0 12 7 96 31 14 23 0 0 0 0 0 0 0 14 79 59 39 307 389 276 118 114 92 1 0 0 0 0 0 0 0 8 18 39 58 99 100 129 243 219 156 109 308 169
0 0 0 0 0 0 39 46 119 64 37 2 0 0 0 6 0 0 38 91 66 40 97 717 427 144 140 133 33 25 0 0 16 33 56 97 109 116 145 275 452 470 494 452 328 338 207 192 118
0 0 0 0 0 0 7 4 2 8 36 5 1 1 0 4 0 0 2 58 45 46 42 190 749 370 186 225 109 71 34 42 109 218 232 248 311 466 724 739 783 719 651 568 499 274 187 61 149
0 0 0 0 0 0 0 0 0 0 14 13 1 0 0 47 2 0 0 20 40 34 34 83 1264 950 545 411 385 254 177 148 258 307 337 408 433 696 1024 781 576 328 236 213 217 304 371 278 194
0 0 0 0 0 0 0 2 0 0 0 16 0 0 0 19 0 1 0 4 13 76 45 106 250 1323 1037 618 957 723 457 313 381 324 439 518 537 883 624 25 1 3 27 43 51 99 151 258 238
0 0 0 0 0 0 0 4 0 10 0 0 0 0 0 0 0 0 0 0 1 21 102 80 98 438 783 394 684 1088 981 795 685 596 625 487 318 172 368 346 51 0 0 0 2 25 39 73 130
0 0 0 0 0 1 2 7 5 11 11 0 0 0 1 7 12 16 0 0 0 26 48 104 149 333 629 332 405 1308 842 811 695 429 299 880 431 316 461 292 20 0 0 0 3 135 168 117 16
0 0 0 1 6 0 12 6 8 14 13 6 0 0 0 0 0 14 0 0 0 1 55 110 308 463 611 502 369 1259 909 705 657 540 546 586 439 487 606 488 477 341 176 294 107 185 200 29 75
0 0 0 0 0 0 2 4 5 21 21 0 0 0 0 0 0 9 0 0 6 6 4 80 234 725 1025 558 360 646 902 689 592 720 911 696 517 619 654 431 386 411 274 238 52 23 64 59 24
0 0 0 0 0 0 2 1 0 16 2 0 0 0 0 0 3 0 0 0 0 3 3 28 329 964 1379 1276 507 749 747 558 718 608 620 685 573 654 598 626 581 413 275 334 111 43 56 41 10
0 0 0 0 0 0 0 0 0 1 0 0 0 0 0 0 0 0 0 0 0 0 7 33 382 963 1519 1478 1251 1162 1046 629 629 454 324 624 812 684 593 617 711 563 544 400 340 48 43 63 32
0 0 0 0 0 0 6 0 0 0 0 0 0 0 0 0 0 0 0 0 0 0 3 157 549 996 1584 1795 1592 1194 864 679 556 428 331 574 844 788 788 657 982 758 353 478 230 281 125 125 70
0 0 0 0 0 0 4 0 0 0 0 0 0 0 0 0 0 0 0 0 0 6 36 261 422 1086 1699 1852 1719 1234 804 751 331 298 460 856 907 855 815 860 997 832 807 681 637 189 177 222 34
0 0 0 0 0 0 13 0 0 4 0 0 0 0 0 0 0 0 0 0 0 0 119 368 695 880 1811 2076 1693 1374 1028 606 334 348 540 522 715 770 850 1053 858 818 755 675 434 260 314 203 63
0 0 0 0 0 0 1 4 1 23 0 0 0 0 0 0 0 0 0 0 0 25 273 671 765 1088 1911 1877 1893 1209 662 561 339 489 473 495 743 756 834 1020 932 750 695 431 274 370 295 188 133
0 0 0 0 0 0 0 0 0 6 0 0 0 0 0 0 0 0 0 0 0 115 314 756 1018 1002 1708 1794 1442 876 571 566 447 461 489 736 833 743 829 1014 784 588 587 511 394 309 99 164 257
0 0 0 0 0 1 0 0 0 0 0 0 0 0 0 0 0 0 0 0 239 294 598 739 680 1227 1687 1661 1206 666 502 427 450 391 589 812 749 750 666 860 623 606 533 299 203 219 145 117 269
0 0 0 0 0 0 0 0 0 0 0 0 0 0 0 0 0 0 0 0 362 414 579 576 696 1168 1617 1162 785 466 401 456 531 343 492 624 652 582 657 553 493 524 409 325 311 289 235 244 145
0 0 0 0 0 0 0 0 0 0 0 0 0 0 0 0 0 0 0 395 434 487 602 760 1063 1364 961 539 473 639 477 232 236 464 214 334 394 337 299 485 471 500 390 470 473 294 229 200 249
0 0 0 0 0 0 0 0 0 0 0 0 0 0 0 0 0 0 0 479 448 514 682 1078 1132 643 495 508 497 345 193 264 231 85 318 569 634 414 236 416 384 331 549 625 593 385 268 284 311
0 0 0 0 0 0 0 0 0 0 0 0 0 0 0 0 0 0 397 437 442 534 869 868 620 601 434 385 423 366 350 199 82 173 226 461 377 302 226 184 253 320 549 553 394 372 316 534 529
0 0 0 0 0 0 0 0 0 0 0 0 0 0 0 6 64 202 358 374 461 608 655 604 571 504 380 340 309 442 450 411 335 310 250 244 270 213 133 110 206 439 663 492 352 357 370 593 687
0 0 0 0 0 0 0 0 0 0 0 0 0 0 62 220 264 262 332 379 469 526 468 391 451 364 269 257 309 299 361 184 86 121 35 161 126 35 67 168 297 506 484 442 496 439 382 441 516
0 0 0 0 0 0 0 0 0 0 0 0 0 0 0 290 360 342 357 385 358 372 319 361 348 264 214 175 243 292 326 103 346 238 203 124 22 53 45 101 272 340 281 315 509 628 517 596 629
0 0 0 0 0 0 0 0 0 0 0 0 0 0 141 373 408 364 333 318 303 242 278 322 250 210 96 213 172 219 151 159 230 164 73 10 23 19 10 58 72 148 172 222 460 707 716 579 534
0 0 0 0 0 0 0 0 0 0 0 7 0 20 383 399 359 319 293 329 263 247 294 237 107 45 142 133 109 111 162 73 174 117 19 19 15 9 12 32 44 48 90 349 514 589 455 299 417
0 0 0 0 0 0 0 0 0 0 1 32 102 261 393 340 312 282 294 279 262 296 259 57 13 0 57 66 129 98 168 203 198 103 6 16 9 6 23 27 40 36 122 279 454 254 190 332 440

GFSSGP_con_mlcape_015.txt.gz
CAPE
0 0 0 0 0 0 0 0 0 0 0 0 0 0 0 0 0 0 9 96 41 11 0 0 0 0 0 0 0 0 0 0 0 0 0 0 0 0 0 0 0 0 0 0 0 0 0 0 0
0 0 0 0 0 0 0 0 1 1 3 0 0 0 0 2 0 0 0 50 12 4 0 0 0 0 0 0 0 0 0 0 0 0 0 0 0 0 0 0 0 0 0 0 0 0 0 4 3
0 0 0 0 0 0 0 0 2 1 1 0 0 0 0 0 10 3 4 145 124 6 0 0 0 0 0 0 0 0 0 0 0 0 0 0 0 0 0 0 0 0 0 14 43 41 22 8 278
0 0 0 0 0 0 0 0 7 1 0 0 0 0 0 0 0 0 116 139 141 111 0 0 0 0 0 0 0 0 0 0 0 0 0 0 0 0 0 0 0 0 0 36 122 216 185 146 139
0 0 0 0 0 0 0 0 18 28 4 2 0 0 0 0 3 0 51 147 42 87 6 0 0 0 0 0 0 0 0 0 0 0 0 2 11 16 33 66 119 161 283 350 402 427 341 278 268
0 0 0 0 0 0 0 0 8 67 39 5 0 0 0 0 0 0 0 23 40 5 39 14 0 0 0 0 0 0 0 0 0 4 0 16 20 17 33 120 266 478 556 569 537 511 537 467 270
0 0 0 0 0 0 0 0 0 0 0 0 0 0 0 0 0 0 0 0 63 32 82 199 4 0 0 0 0 0 0 0 1 15 24 42 38 54 88 147 437 656 481 289 220 237 237 366 342
0 0 0 0 0 0 0 0 0 0 0 0 0 0 0 1 0 0 0 0 0 152 225 287 246 97 0 0 0 0 0 1 32 54 56 84 125 107 83 125 440 342 181 26 24 41 48 116 327
0 0 0 0 0 0 0 0 0 0 0 0 0 0 0 0 0 0 0 0 0 92 253 424 340 190 69 0 21 0 21 78 218 152 164 274 231 100 67 318 589 399 262 129 89 23 0 19 178
13 0 0 0 0 0 0 0 0 0 0 0 0 0 0 0 0 0 0 0 0 0 224 300 391 258 284 78 7 34 78 346 492 337 308 325 181 32 121 333 760 499 384 209 144 0 0 27 35
0 0 0 0 0 0 0 0 0 0 0 0 0 0 0 0 0 0 0 0 0 0 21 484 351 361 379 287 280 184 98 274 570 321 300 283 147 178 344 295 444 384 379 125 87 50 7 22 90
0 0 0 0 0 0 0 0 0 0 0 0 0 0 0 0 0 0 0 0 0 0 0 345 473 561 563 401 274 316 196 210 238 285 350 330 341 583 487 423 435 392 279 137 70 180 130 39 206
0 0 0 0 0 0 0 0 0 0 0 0 0 0 0 0 0 0 0 0 0 0 0 17 571 760 758 470 544 639 568 574 523 413 456 486 510 623 421 258 351 450 349 292 242 226 170 183 207
0 0 0 0 0 0 0 0 0 0 0 0 0 0 0 0 0 0 0 0 0 0 0 3 328 780 900 655 653 708 748 822 735 857 746 665 576 571 430 568 759 579 423 364 253 257 148 29 0
0 0 0 0 0 0 0 0 0 0 0 0 0 0 0 0 0 0 0 0 0 10 0 2 290 542 740 762 639 839 972 982 983 868 902 878 768 698 555 706 645 690 647 521 377 251 273 117 5
0 0 0 0 0 0 0 0 0 0 0 0 0 0 0 0 0 0 0 1 11 1 0 0 306 492 665 866 954 882 1081 1097 1031 833 960 900 804 619 641 648 575 680 805 721 477 199 118 46 22
0 0 0 0 0 0 0 0 0 0 0 0 0 0 0 0 0 0 0 0 11 0 0 26 280 435 723 838 1177 1248 1120 993 816 649 586 744 586 605 678 649 594 603 862 740 510 421 329 88 33
0 0 0 0 0 0 0 0 0 0 0 0 0 0 0 0 0 0 0 0 0 0 0 27 171 536 984 1402 1231 1407 1341 1024 719 571 424 485 590 645 686 713 781 831 846 642 451 347 291 293 119
0 0 0 0 0 0 0 0 0 0 0 0 0 0 0 0 0 0 0 0 0 0 0 0 241 841 1433 1690 1580 1253 1315 1070 804 527 510 580 603 724 833 716 652 838 635 445 443 454 332 164 72
0 0 0 0 0 0 0 0 0 0 0 0 0 0 0 0 0 0 0 0 0 0 26 266 649 1128 1675 1706 1730 1436 1308 930 671 611 423 552 568 563 621 672 528 577 449 365 338 305 214 153 57
0 0 0 0 0 0 0 0 0 0 0 0 0 0 0 0 0 0 0 0 0 32 395 955 1365 1544 1798 1900 1774 1550 1168 795 567 480 404 424 499 594 547 418 416 390 285 159 191 242 207 84 39
0 0 0 0 0 0 0 0 0 0 0 0 0 0 0 0 0 0 0 0 0 447 919 1247 1757 1878 2006 1957 1709 1436 1031 743 568 506 540 548 574 320 283 270 263 227 165 199 212 257 201 170 61
0 0 0 0 0 0 0 0 0 0 0 0 0 0 0 0 0 0 0 0 293 776 955 1099 1744 1972 1908 1726 1427 1085 826 555 422 352 336 374 254 275 221 192 153 67 126 154 144 170 162 114 87
0 0 0 0 0 0 0 0 0 0 0 0 0 0 0 0 0 0 59 501 743 907 955 1217 1595 1672 1616 1385 811 438 400 358 304 160 137 200 243 177 57 9 1 3 9 79 244 93 50 55 97
0 0 0 0 0 0 0 0 0 0 0 0 0 0 8 26 27 209 363 676 941 1102 1264 1306 1371 1299 922 590 471 382 404 314 159 102 126 122 140 107 32 0 0 0 135 319 195 39 67 146 67
0 0 0 0 0 0 0 0 0 0 0 0 0 0 154 206 338 519 683 978 1257 1354 1336 1153 926 792 493 462 386 295 179 140 68 27 141 100 53 8 0 0 0 86 234 283 260 194 122 154 134
0 0 0 0 0 0 0 0 0 0 0 0 0 1 283 431 592 609 797 1169 1238 1131 967 746 591 505 332 468 419 219 120 140 211 20 0 0 0 0 0 0 5 74 198 117 104 36 43 138 104
0 0 0 0 0 0 0 0 0 0 0 0 0 50 388 504 603 668 947 1088 958 851 732 580 510 398 359 366 298 262 294 162 47 19 14 0 0 3 0 0 4 16 76 74 58 8 97 119 78
0 0 0 0 0 0 0 0 0 0 0 0 0 145 373 500 574 732 905 870 812 768 643 541 438 392 425 322 184 144 129 83 5 7 0 0 0 0 2 0 9 13 16 23 29 41 67 122 147
0 0 0 0 0 0 0 0 0 0 0 2 23 340 513 553 616 723 713 707 707 635 579 431 388 291 323 281 260 114 101 69 11 0 3 0 0 0 0 5 15 39 56 20 11 39 83 233 87

GFSSGP_con_mlcape_018.txt.gz
CAPE
0 0 0 0 0 0 0 0 0 0 0 0 0 0 0 0 0 0 1 3 19 0 0 61 0 0 0 0 0 0 0 0 0 0 0 0 0 0 0 0 0 0 0 0 0 0 0 0 0
0 0 0 0 0 0 0 0 0 0 0 0 0 0 0 0 0 2 20 67 0 0 0 0 0 0 0 0 0 0 0 0 0 0 0 0 0 0 0 0 0 0 0 0 0 0 0 1 10
0 0 0 0 0 0 0 0 0 19 3 0 0 0 0 0 5 0 5 83 0 0 0 0 0 0 0 0 0 0 0 0 0 0 0 0 0 0 0 0 0 0 0 0 0 0 0 0 97
0 0 0 0 0 0 0 0 0 5 1 0 0 0 0 0 14 0 47 62 21 0 0 0 0 0 0 0 0 0 0 0 0 0 0 0 0 0 0 0 0 0 0 20 59 131 108 128 93
0 0 0 0 0 0 0 0 0 3 16 0 0 0 0 0 4 95 80 75 5 0 0 0 0 0 0 0 0 0 0 0 0 0 0 0 0 0 0 0 11 5 58 131 230 274 347 307 261
0 0 0 0 0 0 0 0 0 0 7 5 0 0 0 0 9 117 91 76 12 0 0 0 0 0 0 0 0 0 0 0 0 0 0 5 14 20 8 18 46 151 329 452 551 497 466 400 370
0 0 0 0 0 0 0 0 0 0 2 1 11 9 0 0 0 29 73 91 31 0 0 0 0 0 0 0 0 0 0 0 0 0 6 18 33 37 27 23 76 354 536 543 318 232 229 324 324
0 0 0 0 0 0 0 0 0 0 0 0 0 0 0 0 0 0 69 85 47 36 35 34 0 0 0 0 0 0 0 0 0 0 17 30 66 59 50 31 96 310 457 239 179 91 84 86 149
0 0 0 0 0 0 0 0 0 0 0 0 0 0 0 0 0 0 0 0 141 148 145 136 49 0 0 0 0 0 0 0 0 1 31 74 129 155 88 96 179 429 422 252 152 113 70 51 26
0 0 0 0 0 0 0 0 0 0 0 0 0 0 0 0 0 0 0 0 6 98 209 254 220 37 0 0 0 37 37 28 39 34 61 174 158 109 104 81 400 581 598 330 220 228 95 7 0
0 0 0 0 0 0 0 0 0 0 0 0 0 0 0 0 0 0 0 0 0 0 75 223 289 251 36 0 1 131 43 72 111 120 137 261 225 153 86 97 414 711 768 445 403 267 65 0 3
0 0 0 0 0 0 0 0 0 0 0 0 0 0 0 0 0 0 0 0 0 0 0 170 343 416 274 95 1 75 62 155 190 216 300 174 144 81 36 233 247 425 440 323 126 66 40 73 0
0 0 0 0 0 0 0 0 0 0 0 0 0 0 0 0 0 0 0 0 0 0 0 23 272 407 450 302 203 130 83 126 311 359 322 266 132 71 183 351 283 314 285 275 202 103 169 179 29
0 0 0 0 0 0 0 0 0 0 0 0 0 0 0 0 0 0 0 0 0 0 0 1 135 416 541 404 329 349 280 154 275 383 241 258 208 209 440 478 270 277 351 288 215 260 284 186 118
0 0 0 0 0 0 0 0 0 0 0 0 0 0 0 0 0 0 0 0 0 0 0 0 72 487 566 476 370 499 470 400 292 289 285 261 324 364 523 502 435 563 495 353 302 237 199 190 73
0 0 0 0 0 0 0 0 0 0 0 0 0 0 0 0 0 0 0 0 0 0 0 0 91 456 681 651 498 641 675 657 626 595 619 695 632 529 598 541 612 559 545 481 404 383 263 159 169
0 0 0 0 0 0 0 0 0 0 0 0 0 0 0 0 0 0 0 0 0 0 0 0 69 279 550 741 593 769 843 865 769 734 875 964 764 685 741 592 609 533 645 653 661 654 408 204 103
0 0 0 0 0 0 0 0 0 0 0 0 0 0 0 0 0 0 0 0 0 0 0 0 92 223 528 652 745 769 863 864 820 878 1059 944 891 826 724 596 551 533 627 741 715 567 369 311 148
0 0 0 0 0 0 0 0 0 0 0 0 0 0 0 0 0 0 0 0 0 0 0 0 38 351 594 683 976 993 969 949 898 871 914 881 802 762 393 540 544 678 744 752 500 394 400 191 113
0 0 0 0 0 0 0 0 0 0 0 0 0 0 0 0 0 0 0 0 0 0 0 0 38 502 743 869 1040 1183 937 727 698 449 412 406 505 472 585 632 618 610 559 376 209 224 179 63 42
0 0 0 0 0 0 0 0 0 0 0 0 0 0 0 0 0 0 0 0 0 0 0 0 133 530 1007 1203 1103 1058 838 588 487 443 318 362 434 551 548 448 425 363 235 114 23 48 42 27 11
0 0 0 0 0 0 0 0 0 0 0 0 0 0 0 0 0 0 0 0 0 0 20 249 557 1022 1414 1495 1330 1207 1031 907 610 492 312 440 441 444 383 276 226 110 14 2 4 24 14 18 25
0 0 0 0 0 0 0 0 0 0 0 0 0 0 0 0 0 0 0 0 0 44 471 1078 1311 1565 1622 1551 1365 1154 1040 826 585 447 344 272 197 201 193 149 62 2 0 0 0 0 16 24 24
0 0 0 0 0 0 0 0 0 0 0 0 0 0 0 0 0 0 0 0 225 975 1411 1575 1698 1746 1687 1488 1270 1222 951 755 511 410 358 262 232 160 80 23 0 0 0 0 7 54 21 12 20
0 0 0 0 0 0 0 0 0 0 0 0 0 0 0 0 0 6 60 359 820 1061 1330 1520 1713 1659 1384 1176 985 905 602 401 334 285 234 129 117 64 6 0 0 0 0 17 22 6 20 43 49
0 0 0 0 0 0 0 0 0 0 0 0 0 0 0 5 143 215 507 819 949 1014 1128 1331 1416 1168 863 414 308 237 163 134 90 104 59 44 17 0 0 0 0 0 2 98 126 71 62 72 84
0 0 0 0 0 0 0 0 0 0 0 0 0 0 0 162 268 549 849 959 936 989 989 1040 828 494 274 154 80 86 55 38 10 21 44 0 0 0 0 0 0 0 38 98 78 49 31 57 68
0 0 0 0 0 0 0 0 0 0 0 0 0 0 111 352 486 756 929 973 997 879 714 500 337 288 216 115 68 19 30 57 16 0 0 0 0 0 0 0 0 4 11 45 31 48 34 54 36
0 0 0 0 0 0 0 0 0 0 0 0 0 0 226 405 653 820 949 942 853 657 463 266 266 244 161 78 64 89 53 19 0 0 0 0 0 0 0 0 1 6 5 7 11 29 31 68 46
0 0 0 0 0 0 0 0 0 0 0 0 0 121 402 498 755 839 825 756 634 486 380 247 216 197 103 42 68 74 24 0 0 0 0 0 0 0 0 3 9 13 15 8 8 13 69 47 60

GFSSGP_con_mlcape_021.txt.gz
CAPE
0 0 0 0 0 0 0 0 0 0 0 0 0 0 0 0 0 0 0 0 13 1 0 61 0 0 0 0 0 0 0 0 0 0 0 0 0 0 0 0 0 0 0 0 0 0 0 0 0
0 0 0 0 0 0 0 0 0 0 0 0 0 0 0 0 0 0 0 7 63 24 0 0 0 0 0 0 0 0 0 0 0 0 0 0 0 0 0 0 0 0 0 0 0 0 0 0 0
0 0 0 0 0 0 0 0 0 0 0 0 0 0 0 0 0 12 7 30 99 54 0 0 0 0 0 0 0 0 0 0 0 0 0 0 0 0 0 0 0 0 0 0 0 0 0 0 4
0 0 0 0 0 0 0 0 0 0 0 0 0 0 0 0 3 0 54 50 43 0 0 0 0 0 0 0 0 0 0 0 0 0 0 0 0 0 0 0 0 0 0 0 21 80 73 80 78
0 0 0 0 0 0 0 0 0 0 0 0 0 0 0 0 0 8 1 28 13 0 0 0 0 0 0 0 0 0 0 0 0 0 0 0 0 0 0 0 0 0 19 40 104 169 252 378 324
0 0 0 0 0 0 0 0 0 0 0 0 0 0 0 0 0 17 14 5 10 0 0 0 0 0 0 0 0 0 0 0 0 0 0 0 0 0 6 16 29 46 102 237 364 484 575 532 472
0 0 0 0 0 0 0 0 0 0 0 0 0 0 0 0 0 34 90 70 46 0 0 0 0 0 0 0 0 0 0 0 0 0 0 0 7 14 32 46 57 127 296 544 602 640 577 524 417
0 0 0 0 0 0 0 0 0 0 0 0 0 0 0 0 1 2 122 104 86 3 0 0 0 0 0 0 0 0 0 0 0 0 0 12 31 48 63 65 64 190 455 628 631 401 397 373 312
0 0 0 0 0 0 0 0 0 0 0 0 0 0 0 0 0 0 55 97 97 52 0 0 0 2 0 0 5 9 0 0 0 0 33 70 107 99 69 81 51 224 469 528 472 313 233 230 221
0 0 0 0 0 0 0 0 0 0 0 0 0 0 0 0 0 0 0 4 86 103 101 64 26 5 0 0 0 43 38 74 53 37 93 202 145 96 61 72 115 271 545 583 577 366 270 269 29
0 0 0 0 0 0 0 0 0 0 0 0 0 0 0 0 0 0 0 0 0 1 86 149 128 26 0 0 0 22 24 21 84 66 71 254 180 166 236 72 113 446 721 716 632 423 364 115 0
0 0 0 0 0 0 0 0 0 0 0 0 0 0 0 0 0 0 0 0 0 0 1 104 206 152 23 0 0 0 33 21 43 89 81 127 119 72 80 56 25 344 521 605 521 342 191 62 48
0 0 0 0 0 0 0 0 0 0 0 0 0 0 0 0 0 0 0 0 0 0 0 8 137 196 154 23 0 7 51 3 57 154 176 170 76 20 46 47 62 265 382 458 401 246 119 87 101
0 0 0 0 0 0 0 0 0 0 0 0 0 0 0 0 0 0 0 0 0 0 0 0 31 152 282 181 27 29 102 53 97 253 271 241 117 27 40 37 180 288 292 325 312 290 200 170 189
0 0 0 0 0 0 0 0 0 0 0 0 0 0 0 0 0 0 0 0 0 0 0 0 0 56 229 317 266 180 138 156 194 273 368 287 180 64 49 34 283 347 286 320 303 238 210 253 159
0 0 0 0 0 0 0 0 0 0 0 0 0 0 0 0 0 0 0 0 0 0 0 0 0 7 139 333 448 425 383 326 269 335 379 316 231 84 87 132 413 472 387 447 383 294 339 344 247
0 0 0 0 0 0 0 0 0 0 0 0 0 0 0 0 0 0 0 0 0 0 0 0 0 0 81 418 525 478 551 541 458 404 409 343 237 184 171 260 524 435 554 495 424 371 372 443 300
0 0 0 0 0 0 0 0 0 0 0 0 0 0 0 0 0 0 0 0 0 0 0 0 0 0 193 500 494 472 603 668 602 560 536 442 363 300 362 339 477 420 507 495 484 545 477 382 142
0 0 0 0 0 0 0 0 0 0 0 0 0 0 0 0 0 0 0 0 0 0 0 0 0 10 253 389 449 567 678 723 713 725 754 738 657 704 596 550 521 453 486 501 535 545 397 180 36
0 0 0 0 0 0 0 0 0 0 0 0 0 0 0 0 0 0 0 0 0 0 0 0 0 3 81 354 558 652 729 646 657 752 849 877 890 741 650 653 474 451 502 574 455 241 81 23 0
0 0 0 0 0 0 0 0 0 0 0 0 0 0 0 0 0 0 0 0 0 0 0 0 0 4 84 394 592 609 562 520 672 788 915 926 845 766 720 388 487 498 455 370 130 1 0 0 0
0 0 0 0 0 0 0 0 0 0 0 0 0 0 0 0 0 0 0 0 0 0 0 0 0 12 306 549 679 762 769 846 658 830 679 571 565 653 486 478 395 327 191 38 0 0 0 0 0
0 0 0 0 0 0 0 0 0 0 0 0 0 0 0 0 0 0 0 0 0 0 0 0 29 326 636 854 833 808 702 517 439 426 330 243 274 464 431 303 169 21 0 0 0 0 0 0 2
0 0 0 0 0 0 0 0 0 0 0 0 0 0 0 0 0 0 0 0 0 43 213 616 678 833 1086 1084 876 810 667 529 401 271 263 241 202 182 130 30 0 0 0 0 0 0 0 2 2
0 0 0 0 0 0 0 0 0 0 0 0 0 0 0 0 0 0 0 42 289 616 978 1165 1242 1233 1230 1106 899 787 613 537 460 283 236 182 143 31 0 0 0 0 0 0 0 0 1 1 3
0 0 0 0 0 0 0 0 0 0 0 0 0 0 0 0 0 3 184 470 1034 1233 1329 1322 1273 1256 1146 1015 788 580 465 438 368 279 201 194 98 1 0 0 0 0 0 0 6 7 19 9 15
0 0 0 0 0 0 0 0 0 0 0 0 0 0 0 0 1 225 508 839 1012 1068 1154 1140 1046 861 758 640 525 375 276 276 234 120 33 0 0 0 0 0 0 0 0 1 28 39 31 30 30
0 0 0 0 0 0 0 0 0 0 0 0 0 0 0 0 146 562 671 719 697 805 802 798 562 381 183 77 59 57 43 21 10 8 4 0 0 0 0 0 0 0 0 12 20 20 0 4 22
0 0 0 0 0 0 0 0 0 0 0 0 0 0 0 0 429 651 677 662 685 561 576 350 119 22 1 3 8 7 0 0 0 0 0 0 0 0 0 0 0 0 6 7 10 4 2 0 13
0 0 0 0 0 0 0 0 0 0 0 0 0 0 0 316 682 702 769 724 622 410 230 125 63 37 0 0 2 0 0 0 0 0 0 0 0 0 0 0 0 8 5 4 11 18 36 18 22

GFSSGP_con_mlcape_024.txt.gz
CAPE
0 0 0 0 0 0 0 0 0 0 0 0 0 0 0 0 0 0 0 0 0 0 0 25 0 0 0 0 0 0 0 0 0 0 0 0 0 0 0 0 0 0 0 0 0 0 0 0 0
0 0 0 0 0 0 0 0 0 0 0 0 0 0 0 0 0 0 0 0 0 0 9 0 0 0 0 0 0 0 0 0 0 0 0 0 0 0 0 0 0 0 0 0 0 0 0 0 0
0 0 0 0 0 0 0 0 0 0 0 0 0 0 0 0 0 0 0 0 13 0 50 0 0 0 0 0 0 0 0 0 0 0 0 0 0 0 0 0 0 0 0 0 0 0 0 0 0
0 0 0 0 0 0 0 0 0 0 0 0 0 0 0 0 0 0 0 13 14 12 20 0 0 0 0 0 0 0 0 0 0 0 0 0 0 0 0 0 0 0 0 0 0 0 0 0 0
0 0 0 0 0 0 0 0 0 0 0 0 0 0 0 0 0 0 0 26 38 19 12 0 0 0 0 0 0 0 0 0 0 0 0 0 0 0 0 0 1 4 7 44 98 151 212 294 361
0 0 0 0 0 0 0 0 0 0 0 0 0 0 0 0 0 0 2 21 39 24 22 0 2 0 0 0 0 0 0 0 0 0 0 0 0 0 0 5 23 46 72 103 166 254 367 425 440
0 0 0 0 0 0 0 0 0 0 0 0 0 0 0 0 0 2 11 15 18 1 0 0 1 0 1 0 0 0 0 0 0 0 0 0 0 0 0 13 45 84 150 226 383 574 688 459 391
0 0 0 0 0 0 0 0 0 0 0 0 0 0 0 0 0 9 27 34 16 0 0 0 1 0 0 1 0 0 0 0 0 0 0 0 0 0 0 25 87 196 313 428 580 609 504 349 338
0 0 0 0 0 0 0 0 0 0 0 0 0 0 0 0 0 0 9 34 47 49 25 5 0 26 12 3 66 55 19 17 8 2 3 1 17 14 27 96 69 194 409 622 729 594 384 238 202
0 0 0 0 0 0 0 0 0 0 0 0 0 0 0 0 0 0 0 0 19 58 85 35 14 13 26 22 8 68 50 62 74 61 65 56 32 22 37 115 108 119 395 649 654 573 406 260 108
0 0 0 0 0 0 0 0 0 0 0 0 0 0 0 0 0 0 0 0 0 4 61 79 65 30 7 1 0 3 23 8 83 65 73 130 81 82 162 63 152 143 398 625 811 706 479 222 82
0 0 0 0 0 0 0 0 0 0 0 0 0 0 0 0 0 0 0 0 0 0 0 83 123 104 52 25 1 1 11 14 32 57 98 60 60 34 82 17 20 62 282 522 596 456 383 197 101
0 0 0 0 0 0 0 0 0 0 0 0 0 0 0 0 0 0 0 0 0 0 0 0 26 55 53 40 3 0 0 7 15 67 122 108 86 0 30 20 6 17 127 389 516 466 299 163 68
0 0 0 0 0 0 0 0 0 0 0 0 0 0 0 0 0 0 0 0 0 0 0 0 0 2 71 50 22 5 0 23 35 46 119 177 120 2 0 0 13 4 66 320 381 347 241 145 78
0 0 0 0 0 0 0 0 0 0 0 0 0 0 0 0 0 0 0 0 0 0 0 0 0 0 12 19 31 16 2 31 40 73 180 121 148 6 0 0 0 5 64 238 205 204 168 175 124
0 0 0 0 0 0 0 0 0 0 0 0 0 0 0 0 0 0 0 0 0 0 0 0 0 0 0 10 72 48 10 53 69 101 211 223 209 43 0 0 0 0 63 273 209 220 255 219 256
0 0 0 0 0 0 0 0 0 0 0 0 0 0 0 0 0 0 0 0 0 0 0 0 0 0 0 7 127 184 103 109 133 203 287 333 265 132 31 4 0 4 212 250 241 282 257 298 324
0 0 0 0 0 0 0 0 0 0 0 0 0 0 0 0 0 0 0 0 0 0 0 0 0 0 0 1 147 256 269 290 222 243 352 351 333 232 143 52 58 78 402 322 320 348 261 323 339
0 0 0 0 0 0 0 0 0 0 0 0 0 0 0 0 0 0 0 0 0 0 0 0 0 0 0 0 51 212 314 405 446 415 390 419 370 284 169 147 75 290 401 417 369 341 395 273 5
0 0 0 0 0 0 0 0 0 0 0 0 0 0 0 0 0 0 0 0 0 0 0 0 0 0 0 10 153 316 391 393 473 526 580 563 475 297 226 132 170 375 357 380 352 324 233 39 0
0 0 0 0 0 0 0 0 0 0 0 0 0 0 0 0 0 0 0 0 0 0 0 0 0 0 0 97 266 304 348 332 480 645 724 686 534 429 392 375 378 390 359 386 323 216 59 0 0
0 0 0 0 0 0 0 0 0 0 0 0 0 0 0 0 0 0 0 0 0 0 0 0 0 0 0 120 293 349 319 330 523 681 741 726 587 559 469 446 467 367 331 362 182 1 0 0 0
0 0 0 0 0 0 0 0 0 0 0 0 0 0 0 0 0 0 0 0 0 0 0 0 0 0 0 120 280 386 470 402 454 626 728 700 555 584 531 456 296 365 241 54 0 0 0 0 0
0 0 0 0 0 0 0 0 0 0 0 0 0 0 0 0 0 0 0 0 0 1 10 10 0 0 89 313 399 469 533 456 612 692 762 426 290 348 326 320 291 97 0 0 0 0 0 0 0
0 0 0 0 0 0 0 0 0 0 0 0 0 0 0 0 0 0 0 0 34 207 335 340 339 337 472 529 504 498 551 521 573 535 352 337 230 276 289 139 9 0 0 0 0 0 0 0 0
0 0 0 0 0 0 0 0 0 0 0 0 0 0 0 0 0 0 0 86 491 752 740 676 705 742 697 502 400 292 320 341 251 300 270 224 193 135 2 4 0 0 0 0 0 0 0 0 0
1 0 0 0 0 0 0 0 0 0 0 0 0 0 0 0 0 0 142 727 951 920 868 843 860 734 527 374 295 246 255 300 206 69 53 42 5 0 0 0 0 0 0 0 0 0 14 13 4
0 0 0 0 0 0 0 0 0 0 0 0 0 0 0 0 0 30 537 910 792 816 724 628 603 616 429 338 308 275 225 154 62 40 45 2 0 0 0 0 0 0 0 0 0 8 10 13 1
0 0 0 0 0 0 0 0 0 0 0 0 0 0 0 0 1 341 626 608 611 628 566 454 411 321 281 262 117 65 32 23 8 2 0 0 0 0 0 0 0 0 0 0 0 1 5 7 0
0 0 0 0 0 0 0 0 0 0 0 0 0 0 0 0 252 535 555 565 640 594 306 182 67 16 0 0 0 0 0 0 4 0 0 0 0 0 0 0 0 0 0 0 0 4 22 2 0

GFSSGP_con_mlcape_027.txt.gz
CAPE
0 0 0 0 0 0 0 0 0 0 0 0 0 0 0 0 0 0 0 0 0 2 45 0 0 0 0 0 0 0 0 0 0 0 0 0 0 0 0 0 0 0 0 0 0 0 0 0 0
0 0 0 0 0 0 0 0 0 0 0 0 0 0 0 0 0 0 0 0 0 19 0 12 0 0 0 0 0 0 0 0 0 0 0 0 0 0 0 0 0 0 0 0 0 0 0 0 0
0 0 0 0 0 0 0 0 0 0 0 0 0 0 0 0 0 0 0 0 0 35 16 26 0 0 0 0 0 0 0 0 0 0 0 0 0 0 0 0 0 0 0 0 0 0 0 0 0
0 0 0 0 0 0 0 0 0 0 0 0 0 0 0 0 0 0 0 0 4 24 22 6 0 0 0 0 0 0 0 0 0 0 0 0 0 0 0 0 0 0 0 0 0 0 0 0 0
0 0 0 0 0 0 0 0 0 0 0 0 0 0 0 0 0 4 5 8 29 92 222 78 16 0 0 0 0 0 0 0 0 0 0 0 0 0 0 0 0 0 14 27 38 62 154 212 233
0 0 0 0 0 0 0 0 0 0 0 0 0 0 0 0 1 8 33 29 136 120 195 138 186 16 0 0 0 0 0 0 0 0 0 0 0 0 0 0 0 15 48 121 213 254 295 339 383
0 0 0 0 0 0 0 0 0 0 0 0 0 0 0 0 0 84 97 141 154 234 179 109 212 91 30 0 0 0 0 0 0 0 0 0 0 0 0 0 3 44 122 207 255 338 542 761 627
0 0 0 0 0 0 0 0 0 0 0 0 0 0 0 0 3 85 116 124 122 166 186 130 121 245 124 77 28 0 0 0 0 0 0 0 0 0 0 12 33 86 174 289 383 533 645 511 348
0 0 0 0 0 0 0 0 0 0 0 0 0 0 0 0 4 51 100 132 100 33 67 60 26 125 91 61 135 52 35 0 7 2 12 20 35 49 55 44 57 139 323 438 529 680 743 473 299
0 0 0 0 0 0 0 0 0 0 0 0 0 0 0 0 0 0 0 0 5 27 65 60 54 39 109 32 99 188 169 90 97 65 108 101 165 170 102 142 103 207 433 615 795 850 676 388 314
0 0 0 0 0 0 0 0 0 0 0 0 0 0 0 0 0 0 0 0 0 0 1 65 133 153 150 113 112 123 208 160 219 180 248 259 288 228 223 205 271 280 408 680 833 841 734 532 429
0 0 0 0 0 0 0 0 0 0 0 0 0 0 0 0 0 0 0 0 0 0 0 11 64 137 166 137 89 84 91 138 112 182 319 249 265 238 276 231 240 420 306 643 977 914 918 775 558
0 0 0 0 0 0 0 0 0 0 0 0 0 0 0 0 0 0 0 0 0 0 0 0 1 8 80 129 124 106 92 96 110 118 281 246 177 146 253 280 191 211 258 457 895 945 921 749 555
0 0 0 0 0 0 0 0 0 0 0 0 0 0 0 0 0 0 0 0 0 0 0 0 0 3 21 20 90 99 104 122 137 119 213 266 167 202 219 242 129 27 1 227 674 933 909 761 528
0 0 0 0 0 0 0 0 0 0 0 0 0 0 0 0 0 0 0 0 0 0 0 0 0 0 0 0 12 103 117 104 139 138 222 301 212 265 269 183 105 65 6 14 547 721 804 702 608
0 0 0 0 0 0 0 0 0 0 0 0 0 0 0 0 0 0 0 0 0 0 0 0 0 0 0 0 12 71 149 129 151 202 192 331 357 336 311 78 78 90 42 68 316 605 578 654 720
0 0 0 0 0 0 0 0 0 0 0 0 0 0 0 0 0 0 0 0 0 0 0 0 0 0 0 0 9 137 184 133 177 224 223 400 433 373 284 90 60 60 44 111 434 596 542 648 725
0 0 0 0 0 0 0 0 0 0 0 0 0 0 0 0 0 0 0 0 0 0 0 0 0 0 0 0 42 228 312 166 208 284 336 481 557 409 320 257 160 128 180 141 460 627 704 634 870
0 0 0 0 0 0 0 0 0 0 0 0 0 0 0 0 0 0 0 0 0 0 0 0 0 0 0 0 25 108 212 388 354 383 520 601 561 440 551 422 303 262 160 217 739 662 642 742 453
0 0 0 0 0 0 0 0 0 0 0 0 0 0 0 0 0 0 0 0 0 0 0 0 0 0 0 0 19 188 380 569 624 549 579 654 667 749 654 548 404 335 200 703 628 545 503 544 189
0 0 0 0 0 0 0 0 0 0 0 0 0 0 0 0 0 0 0 0 0 0 0 0 0 0 0 0 167 285 466 362 508 633 740 838 814 809 730 571 318 149 515 587 540 644 746 611 54
0 0 0 0 0 0 0 0 0 0 0 0 0 0 0 0 0 0 0 0 0 0 0 0 0 0 0 27 118 214 419 354 535 610 855 853 893 761 644 435 284 465 820 514 736 772 780 438 198
0 0 0 0 0 0 0 0 0 0 0 0 0 0 0 0 0 0 0 0 0 0 0 0 0 0 0 16 313 496 592 741 825 885 829 796 917 871 616 537 681 829 636 555 736 554 303 105 107
0 0 0 0 0 0 0 0 0 0 0 0 0 0 0 0 0 0 0 0 0 0 0 4 3 0 0 44 307 492 657 643 766 864 852 905 952 874 791 790 828 799 770 719 434 229 116 63 39
0 0 0 0 0 0 0 0 0 0 0 0 0 0 0 0 0 0 0 0 0 9 151 154 180 50 120 287 494 647 750 794 945 1002 1010 979 885 848 801 789 700 658 458 176 43 72 85 84 95
5 0 0 0 0 0 0 0 0 0 0 0 0 0 0 0 0 0 0 0 86 466 421 528 479 418 559 581 595 680 746 852 950 1032 814 619 662 659 568 568 481 189 3 0 35 118 174 205 164
16 2 0 0 0 0 0 0 0 0 0 0 0 0 0 0 0 0 0 342 716 740 911 912 869 768 667 593 531 595 636 824 874 669 575 499 460 448 378 235 63 0 0 1 77 207 211 265 195
22 9 1 0 0 0 0 0 0 0 0 0 0 0 0 0 0 0 164 873 984 1076 981 990 904 791 654 590 518 513 562 511 467 448 411 406 335 220 120 19 2 0 0 65 209 182 176 327 300
0 11 1 0 0 0 0 0 0 0 0 0 0 0 35 0 14 216 841 1021 1052 955 969 875 777 693 588 481 394 388 329 299 316 322 291 238 101 31 1 0 0 0 37 136 111 103 141 90 300
0 0 3 5 0 0 0 0 0 0 0 0 0 0 54 149 281 626 884 1013 1044 960 868 766 716 683 502 400 375 293 197 185 203 167 115 26 0 0 0 0 0 11 25 72 63 64 59 62 206

GFSSGP_con_mlcape_030.txt.gz
CAPE
0 0 0 0 0 0 0 0 0 0 0 0 0 0 0 0 0 46 8 46 51 67 91 77 8 0 0 0 0 0 0 0 0 30 37 0 0 0 0 0 0 0 0 0 0 0 0 0 0
0 0 0 0 0 0 0 0 0 0 0 0 0 0 0 0 0 0 0 97 33 176 141 6 24 0 0 0 0 0 0 0 0 0 0 0 0 0 0 0 0 0 0 0 0 0 0 0 0
0 0 0 0 0 0 0 0 0 0 0 0 0 0 0 0 0 0 0 103 125 344 234 1 0 0 0 0 0 0 0 0 0 0 0 0 0 0 0 0 0 0 0 0 0 0 0 0 0
0 0 0 0 0 0 0 0 0 0 0 0 0 0 0 5 32 0 51 118 286 369 236 101 0 0 0 0 0 0 0 0 0 0 0 0 0 0 0 0 0 0 0 0 0 9 7 21 42
0 0 0 0 0 0 0 0 0 0 0 0 0 0 0 15 144 120 80 126 201 314 290 288 118 33 1 0 0 0 0 0 0 0 0 0 0 0 0 0 0 0 0 8 14 36 64 55 104
0 0 0 0 0 0 0 0 0 0 0 0 0 0 0 47 139 155 96 124 184 298 357 236 392 187 66 0 0 0 0 0 0 0 0 0 0 0 0 0 0 2 37 88 118 143 273 376 435
0 0 0 0 0 0 0 0 0 0 0 0 0 0 0 0 78 228 213 227 355 537 788 667 496 261 229 82 0 0 0 0 0 0 0 0 0 0 0 0 0 44 115 196 286 327 385 474 677
0 0 0 0 0 0 0 0 0 0 0 0 0 0 0 0 86 303 289 337 402 614 634 601 512 255 82 60 57 0 0 0 0 0 0 0 0 0 0 0 13 92 202 248 306 372 545 807 612
0 0 0 0 0 0 0 0 0 0 0 0 0 0 0 0 179 187 252 245 209 273 537 698 475 440 162 4 53 117 60 3 0 0 0 9 1 31 15 8 48 118 234 284 408 558 682 626 387
0 0 0 0 0 0 0 0 0 0 0 0 0 0 0 0 7 18 46 34 103 183 302 562 763 573 418 66 3 281 19 28 7 1 10 25 5 21 15 44 142 139 301 427 602 814 920 549 425
0 0 0 0 0 0 0 0 0 0 0 0 0 0 0 0 0 0 0 0 0 0 0 232 593 852 564 296 59 140 243 114 89 44 81 76 23 53 76 104 167 180 279 429 615 773 722 634 540
0 0 0 0 0 0 0 0 0 0 0 0 0 0 0 0 0 0 0 0 0 0 0 0 507 1108 1121 592 430 299 231 271 198 146 214 152 183 211 193 117 212 196 172 201 710 828 873 926 784
0 0 0 0 0 0 0 0 0 0 0 0 0 0 0 0 0 0 0 0 0 0 0 0 50 803 1172 1323 776 746 509 354 411 216 266 275 198 289 289 180 169 254 224 337 765 757 919 1045 948
0 0 0 0 0 0 0 0 0 0 0 0 0 0 0 0 0 0 0 0 0 0 0 0 0 39 806 717 1000 1006 1078 640 567 468 242 609 295 368 253 278 260 264 321 257 532 812 908 1025 810
0 0 0 0 0 0 0 0 0 0 0 0 0 0 0 0 0 0 0 0 0 0 0 0 0 5 330 295 630 860 665 859 587 663 616 439 714 350 339 272 280 186 261 383 352 725 1197 871 796
0 0 0 0 0 0 0 0 0 0 0 0 0 0 0 0 0 0 0 0 0 0 0 0 0 0 0 56 167 353 343 575 622 589 703 635 805 617 551 243 307 133 260 333 215 844 623 773 750
0 0 0 0 0 0 0 0 0 0 0 0 0 0 0 0 0 0 0 0 0 0 0 0 0 0 0 0 50 262 576 695 548 581 752 762 800 874 556 452 291 399 256 244 369 349 550 677 1108
0 0 0 0 0 0 0 0 0 0 0 0 0 0 0 0 0 0 0 0 0 0 0 0 0 0 0 0 45 244 485 698 674 626 700 788 912 964 836 620 422 457 249 245 212 400 678 1210 843
0 0 0 0 0 0 0 0 0 0 0 0 0 0 0 0 0 0 0 0 0 0 0 0 0 0 0 0 6 358 524 749 733 634 774 844 984 942 951 763 656 539 273 205 450 630 1048 809 1118
0 0 0 0 0 0 0 0 0 0 0 0 0 0 0 0 0 0 0 0 0 0 0 0 0 0 0 0 152 419 784 788 907 784 902 995 968 1010 997 951 871 712 344 355 684 904 945 1140 998
0 0 0 0 0 0 0 0 0 0 0 0 0 0 0 0 0 0 0 0 0 0 0 0 0 0 0 0 203 948 960 1118 1128 1087 1039 883 1101 1101 1120 1227 1092 837 418 569 738 1389 863 782 865
0 0 0 0 0 0 0 0 0 0 0 0 0 0 0 0 0 0 0 0 0 0 0 0 0 0 0 4 174 834 913 881 1040 1151 911 1169 1263 1194 1095 1045 1154 950 381 599 1309 1023 828 1076 723
2 0 11 4 0 0 0 0 0 0 0 0 0 0 0 0 0 0 0 0 0 0 0 0 0 21 1 83 440 1060 957 1190 1328 1152 1305 1095 1029 1081 1155 1199 954 686 692 1497 941 1057 1102 947 334
15 4 3 19 2 2 0 0 0 0 0 0 0 0 0 0 0 0 0 0 0 0 0 0 322 566 134 349 934 1278 1334 1376 1412 1610 874 899 976 1080 1182 1070 1116 1227 1312 1304 1082 936 911 530 119
24 28 18 6 13 5 0 0 0 0 0 0 0 0 0 0 0 0 0 0 0 0 143 583 871 803 528 641 991 1326 1645 1616 1789 978 1187 1484 1292 1308 1353 1396 1456 1442 1268 1069 929 816 363 300 125
28 28 21 10 0 0 0 0 0 0 0 0 0 0 0 0 0 0 0 0 0 301 1122 1225 1116 939 896 1007 1248 1512 1689 1673 1722 1624 1625 1602 1584 1512 1506 1481 1373 1275 1250 941 594 244 142 174 280
2 8 31 3 0 4 0 0 0 0 0 0 0 0 0 0 1 0 0 170 876 1413 1592 1446 1352 1362 1362 1464 1576 1689 1690 1736 1761 1718 1566 1412 1352 1390 1324 1310 1232 948 571 367 365 42 176 267 433
74 26 18 14 0 13 0 0 0 0 0 0 0 0 0 287 0 0 312 1143 1581 1839 1839 1803 1723 1612 1556 1611 1612 1714 1820 1765 1635 1323 1071 992 1052 979 1072 910 604 305 175 183 288 140 332 453 508
25 73 66 20 9 10 0 0 0 0 0 0 0 0 63 410 280 474 1067 1622 1852 1805 1926 1834 1696 1611 1572 1467 1480 1424 1355 1231 1100 1044 1016 960 912 776 532 314 194 60 88 214 435 493 446 415 549
4 11 22 35 35 0 0 2 0 0 0 0 0 0 90 311 382 815 1319 1717 1733 1772 1735 1691 1563 1487 1411 1353 1297 1186 993 913 879 828 772 598 390 221 97 14 5 27 184 327 292 278 258 300 122

GFSSGP_con_mlcape_033.txt.gz
CAPE
0 0 0 0 0 0 0 0 0 0 0 0 0 0 1 87 36 136 4 0 0 153 334 0 8 0 0 0 0 10 452 836 979 935 777 644 422 118 0 0 0 0 0 0 0 0 0 0 0
0 0 0 0 0 0 0 0 0 0 0 0 0 0 13 51 61 66 18 6 24 429 267 0 14 6 0 0 0 0 70 517 628 727 566 308 70 2 0 0 0 0 0 0 0 0 0 0 0
0 0 0 0 0 0 0 0 0 3 2 0 0 0 0 45 24 6 48 41 75 435 342 40 0 0 0 0 0 0 0 20 111 209 141 22 0 0 0 0 0 0 0 0 0 0 0 0 0
0 0 0 0 0 0 0 0 0 23 0 0 0 0 0 18 33 2 30 63 257 425 338 249 0 8 0 0 0 0 0 0 0 0 0 0 0 0 0 0 0 0 0 0 0 6 0 3 48
0 0 0 0 0 0 0 0 11 0 9 14 0 2 0 0 22 8 14 117 243 332 350 642 132 39 19 0 0 0 0 0 0 0 0 0 0 0 0 0 0 0 0 0 0 7 12 24 47
0 0 0 0 0 0 0 0 0 0 4 27 1 44 3 39 92 0 0 51 107 211 323 750 441 91 105 8 0 0 0 0 0 0 0 0 0 0 0 0 0 0 3 21 37 55 120 178 256
0 0 0 0 0 0 0 0 0 0 0 44 80 50 119 74 98 0 0 0 29 151 331 718 1211 216 258 105 4 0 0 0 0 0 0 0 0 0 0 0 0 0 14 72 127 168 290 422 475
0 0 0 0 0 0 0 0 0 0 0 72 47 59 67 29 0 0 0 12 71 146 280 387 1236 254 91 90 156 0 0 0 0 0 0 0 0 0 0 0 0 5 58 151 290 391 496 557 857
0 0 0 0 0 0 0 0 0 0 0 34 17 51 34 5 84 12 18 75 68 110 214 413 728 665 162 15 145 135 31 0 0 0 0 0 0 0 0 0 1 13 135 249 324 352 454 779 738
0 0 0 0 0 0 0 0 0 0 0 0 13 0 0 42 80 35 25 79 99 116 167 442 826 878 616 103 90 348 28 11 3 0 0 0 0 0 0 0 5 46 147 277 292 261 442 720 446
0 0 0 0 0 0 0 0 0 0 0 0 34 0 0 0 58 125 60 96 68 48 102 172 1134 1273 960 589 129 599 460 161 91 62 12 48 0 0 22 39 37 132 153 197 362 619 674 604 679
0 0 0 0 0 1 0 0 0 0 0 0 27 69 2 0 0 0 0 0 4 1 0 0 99 1800 1640 870 504 219 386 636 285 197 159 104 89 55 120 85 120 195 164 187 383 545 739 725 1020
0 0 0 0 0 0 0 0 0 0 0 0 0 12 0 0 0 0 0 0 0 0 0 0 0 1120 1970 1761 842 763 598 582 709 456 419 393 155 157 144 218 159 300 168 259 521 764 1055 1261 1068
0 0 0 0 0 0 0 0 0 0 0 0 0 0 0 0 0 0 0 0 0 0 0 0 0 498 1855 1806 1591 1685 1567 838 895 848 862 727 360 319 290 387 336 267 329 333 428 727 931 1110 1099
0 0 0 0 0 0 0 0 0 0 0 0 0 0 0 0 0 0 0 0 0 0 0 0 20 132 974 1537 2089 1758 890 1379 910 924 1162 1307 970 620 649 590 489 317 425 507 624 867 886 1048 1176
0 0 0 0 0 0 0 0 0 0 0 0 0 0 0 0 0 0 0 0 0 0 0 1 0 6 299 1306 1625 1245 747 614 674 871 930 1339 1503 1169 1098 615 610 540 501 601 526 573 554 1137 845
0 0 0 0 0 0 0 0 0 0 0 0 0 0 0 0 4 0 0 0 0 0 0 2 13 5 41 312 321 418 678 659 482 545 803 1283 1371 1408 1260 918 687 782 575 487 542 467 772 757 791
0 0 0 0 0 0 0 0 0 0 0 0 0 0 0 0 0 0 0 0 0 0 0 0 0 0 54 53 140 100 70 416 712 713 800 1143 1484 1286 1606 1141 986 855 641 507 492 477 681 597 682
0 0 0 0 0 0 0 0 0 0 0 0 0 0 0 0 0 0 0 0 0 0 0 0 0 33 4 0 0 0 0 252 793 1048 1171 1218 1403 1422 1608 1253 1200 1070 691 655 630 646 726 842 1006
0 0 0 0 0 0 0 0 0 0 0 0 0 0 0 0 0 0 0 0 0 0 0 0 1 29 146 28 18 0 141 377 825 1153 1228 1265 1317 1439 1486 1351 1248 1097 784 871 849 667 648 654 1415
0 0 0 0 0 0 0 0 0 0 0 0 0 0 0 0 0 0 0 0 0 0 0 0 0 10 195 55 99 432 697 1299 1115 1266 1240 1419 1372 1460 1396 1324 1445 1420 956 763 868 874 703 1074 1353
0 0 0 0 0 0 0 0 0 0 0 0 0 0 0 0 0 0 0 0 0 0 0 0 0 9 293 701 56 96 682 818 1079 1405 1470 1509 1417 1214 1340 1379 1335 1472 1138 870 858 869 987 1353 1136
0 0 0 0 0 0 0 0 0 0 0 0 0 0 0 0 0 0 0 0 0 0 0 0 0 16 94 266 60 16 809 916 1357 1431 1707 1296 1389 1452 1280 1418 1351 1287 1136 793 994 1479 1343 1065 864
3 0 4 1 0 2 0 0 0 0 0 0 0 0 0 0 0 0 0 0 0 0 0 0 0 1 98 589 796 976 1343 1402 1730 1545 1593 1730 1340 1335 1177 1250 1411 1266 928 1535 1616 1356 1281 1059 736
29 12 3 13 6 0 4 4 0 0 0 0 0 0 0 0 0 0 0 0 0 0 0 0 0 27 838 1062 894 1415 1750 2121 2034 2117 1384 1150 1130 1150 1285 1420 1225 1190 1682 1612 1370 1215 1099 941 459
53 47 39 22 10 12 3 2 0 0 0 0 0 0 0 0 0 0 0 0 0 0 1 207 475 972 1274 1016 1343 1638 2015 2001 2255 1613 1284 1425 1387 1500 1425 1567 1805 1698 1473 1136 1176 1016 764 413 319
137 61 104 71 30 0 0 0 0 0 0 0 0 0 0 0 0 0 0 0 0 12 783 1200 1414 1434 1249 1342 1548 1874 1875 2005 1641 1976 1902 1731 1893 1818 1707 1681 1511 1302 1065 1094 1117 476 303 235 305
94 97 83 43 4 7 4 1 13 1 1 0 0 0 0 138 176 33 0 18 617 1445 1778 1704 1642 1648 1701 1765 1872 2016 2190 2323 1972 2044 1656 1715 1877 1700 1644 1367 1204 1020 886 750 484 153 210 277 487
1 0 32 49 0 3 41 51 0 0 0 0 0 0 232 673 396 143 749 1341 1783 1997 2002 1994 1900 1849 1827 1879 1945 1905 1822 1648 1639 1439 1466 1318 1293 1098 959 850 791 652 415 256 272 458 374 344 635
96 101 16 5 4 26 0 0 1 139 12 20 2 0 198 741 862 978 1373 1756 1894 1958 1923 1903 1899 1855 1810 1778 1733 1716 1706 1510 1381 1130 1034 897 801 696 594 455 310 144 99 239 394 429 350 396 440

GFSSGP_con_mlcape_036.txt.gz
CAPE
0 0 0 0 0 0 0 0 0 0 0 0 0 0 1 26 24 43 0 21 550 122 5 0 0 0 0 0 0 113 522 768 787 753 700 617 562 399 54 0 0 0 0 0 0 0 0 0 0
0 0 0 0 0 0 0 0 0 0 0 0 0 0 1 156 46 0 0 11 719 154 4 0 0 0 0 0 0 69 303 668 746 689 612 570 458 130 0 0 0 0 0 0 0 0 0 0 0
0 0 0 0 0 0 0 0 0 0 34 0 0 0 41 173 60 23 15 344 768 253 3 4 0 0 0 0 0 2 113 468 622 568 497 494 234 1 0 0 0 0 0 0 0 0 0 0 0
0 0 0 0 0 0 0 0 0 4 80 0 23 0 4 120 3 116 75 509 491 352 23 83 0 0 0 0 0 0 0 61 187 243 230 234 45 0 0 0 0 0 0 0 0 0 0 0 0
0 0 0 0 0 0 0 0 0 6 24 0 2 0 7 96 89 45 66 402 390 473 230 283 0 0 0 0 0 0 0 0 0 0 14 14 0 0 0 0 0 0 0 0 9 0 4 16 38
0 0 0 0 0 0 0 0 0 1 7 23 2 3 2 47 90 45 94 265 299 462 491 577 90 2 0 0 0 0 0 0 0 0 0 0 0 0 0 0 0 0 0 1 20 4 12 32 73
0 0 0 0 0 0 0 0 0 0 0 16 60 14 85 2 48 9 56 103 106 376 808 821 344 2 6 0 0 0 0 0 0 0 0 0 0 0 0 0 0 0 0 3 28 16 62 151 243
0 0 0 0 0 0 0 0 0 0 0 0 1 22 1 69 97 0 0 0 34 234 714 1390 784 216 0 61 22 0 0 0 0 0 0 0 0 0 0 0 0 0 0 32 77 98 172 302 354
0 0 0 0 0 0 0 0 0 0 0 0 16 95 1 64 47 1 0 0 44 54 200 1389 1610 681 72 63 114 38 0 0 0 0 0 0 0 0 0 0 0 0 0 83 122 183 471 523 526
0 0 0 0 0 0 0 0 0 0 0 0 3 13 13 37 27 14 7 3 72 182 177 647 1585 867 202 61 132 88 6 3 0 0 0 0 0 0 0 0 0 0 2 105 141 305 545 510 561
0 0 0 0 0 0 0 0 0 0 0 0 0 63 1 81 141 45 1 64 127 170 223 482 1229 1138 649 249 280 380 137 0 3 0 0 12 0 0 1 0 0 47 116 83 191 393 501 469 494
0 0 0 0 0 0 0 0 0 0 0 0 0 22 56 24 68 140 173 112 104 33 10 621 1305 1523 1345 962 719 793 494 277 121 44 13 11 24 2 2 4 46 25 121 59 136 306 406 469 741
0 0 0 0 0 0 0 0 0 0 0 0 0 0 76 57 33 69 78 16 0 0 0 84 1262 1586 1574 1199 1320 802 928 812 497 341 169 53 136 20 30 83 87 84 158 169 117 408 552 877 754
0 0 0 0 0 0 0 0 0 0 0 0 0 0 2 0 0 4 5 0 5 9 5 0 84 1332 1904 1292 1214 1782 644 772 1110 745 571 272 168 225 131 80 169 282 217 301 224 519 616 950 1322
0 0 0 0 0 0 0 0 0 0 0 0 0 0 0 8 36 0 0 0 0 0 19 15 0 1674 1332 1378 1191 1158 2251 1089 1367 1231 987 752 579 322 189 292 206 162 500 339 337 421 1066 1464 1394
0 0 0 0 0 0 0 0 0 0 0 0 0 0 0 0 0 9 14 24 0 0 0 0 0 94 621 1461 1720 1810 1236 1736 1823 1228 1500 1534 1041 626 687 427 538 506 309 468 740 511 641 815 926
0 0 0 0 0 0 0 0 0 0 0 0 0 0 0 3 24 13 19 43 26 0 10 63 79 79 961 1630 1758 1688 1784 1736 1397 1110 1386 1500 1730 1218 727 985 847 651 681 590 484 656 792 863 1157
0 0 0 0 0 0 0 0 0 0 0 0 0 0 1 12 0 42 42 26 29 61 14 4 97 150 119 479 1394 1293 998 791 846 866 807 1311 1751 1868 1364 1206 1105 1204 679 668 780 599 509 579 1003
0 0 0 0 0 0 0 0 0 0 0 0 0 0 0 0 0 0 29 8 55 6 0 0 0 1 22 60 248 277 187 134 332 915 1096 1138 1814 1876 1806 1448 1498 970 1111 752 615 652 497 837 770
0 0 0 0 0 0 0 0 0 0 0 0 0 0 0 0 0 0 0 0 40 0 0 0 2 39 40 60 56 135 205 127 125 732 1298 1425 1972 1835 1801 1816 1327 1528 1160 849 815 612 610 820 807
0 0 0 0 0 0 0 0 0 0 0 0 0 0 0 0 0 0 0 2 2 0 0 0 0 0 0 3 339 486 170 92 612 1314 1524 1555 1637 1958 1809 1802 1561 1513 1115 1010 829 956 616 636 842
0 0 0 0 0 0 0 0 0 0 0 0 0 0 0 0 0 0 0 0 0 0 0 1 0 0 0 108 408 332 326 133 424 1620 1656 1609 1614 1749 1811 1776 1489 1738 1254 1140 1012 897 759 600 1022
0 0 0 0 0 0 0 0 0 0 0 0 0 0 0 0 0 0 0 0 0 0 0 0 0 0 0 176 206 344 635 868 944 1160 1950 1773 1728 1761 1564 1516 1348 1580 1337 1021 1053 975 731 694 1304
1 4 1 0 0 2 0 0 0 0 0 0 0 1 0 0 0 0 0 0 0 0 0 0 0 1 60 47 578 637 199 364 1177 2037 1942 1784 1632 1523 1117 1332 1254 1375 1221 1282 968 862 891 1316 1015
9 7 3 1 0 0 0 0 0 0 0 0 0 0 0 0 0 0 0 0 0 0 0 0 0 10 128 219 501 731 117 1514 1210 2059 1914 1725 1369 1345 1154 1101 1183 1206 1178 1344 1121 1347 1250 869 652
0 1 12 2 5 0 0 2 0 0 0 0 0 0 0 0 0 0 0 0 0 0 0 0 0 0 108 352 699 1270 1014 2698 2708 2167 1609 1396 1257 1169 1135 1207 1357 1362 1184 1627 1378 1009 758 778 605
78 40 71 67 18 0 0 0 0 0 0 0 0 0 0 0 0 0 0 0 0 0 0 0 30 39 482 1581 1448 1799 2046 2306 2438 1957 1380 1182 1073 1129 1111 1642 1337 1614 1453 1166 888 809 606 632 374
30 49 22 70 6 0 1 1 12 0 0 0 0 0 4 2 0 0 12 28 49 0 415 1062 1247 1522 1489 1574 1922 2183 2425 2530 2095 1666 1357 1653 1762 1696 1364 1744 1483 1225 1060 996 798 687 348 400 279
124 84 37 16 19 9 5 0 0 2 11 1 0 39 42 6 411 1220 338 265 705 1553 1912 1994 1803 1848 1846 1948 2061 2141 2411 2271 2191 2149 2071 2070 1811 1758 1583 1357 1117 947 840 696 475 374 388 348 347
0 111 86 36 1 0 0 0 0 0 0 0 7 4 110 406 952 1511 1175 1222 1350 1961 2086 2137 2031 2002 1877 1787 1779 1956 1761 1675 1704 1586 1559 1624 1481 1417 1259 1016 632 598 501 387 351 229 434 293 301

GFSSGP_con_mlcape_039.txt.gz
CAPE
0 0 0 0 0 0 0 0 0 0 0 0 1 6 25 69 19 5 6 282 0 0 0 0 0 0 0 0 0 74 297 356 407 396 454 377 344 178 0 0 0 0 0 0 0 0 0 0 0
0 0 0 0 0 0 0 0 0 0 0 0 5 12 38 64 4 35 80 229 0 0 0 0 0 0 0 0 0 27 115 355 483 478 457 395 319 93 0 0 0 0 0 0 0 0 0 0 0
0 0 0 0 0 0 0 0 0 0 0 2 1 0 57 76 19 0 320 156 0 0 0 0 0 0 0 0 0 5 60 264 442 376 364 352 264 49 0 0 0 0 0 0 0 0 0 0 0
0 0 0 0 0 0 0 0 0 0 0 76 0 12 97 57 0 88 440 189 0 0 0 5 0 0 0 0 0 0 11 60 226 235 271 200 126 34 0 0 0 0 0 0 0 0 0 0 0
0 0 0 0 0 0 0 0 0 0 0 5 5 2 79 70 50 411 446 184 0 0 6 0 0 0 0 0 0 0 0 10 62 117 139 110 43 13 0 0 0 0 0 0 0 0 0 3 22
0 0 0 0 0 0 0 0 0 0 0 7 3 11 42 84 62 281 385 190 20 0 16 0 1 0 0 0 0 0 0 0 10 21 64 36 21 0 0 0 0 0 0 0 0 0 0 11 23
0 0 0 0 0 0 0 0 0 0 0 5 18 11 65 46 53 207 259 304 164 63 42 0 0 0 0 0 0 0 0 0 0 0 0 0 0 0 0 0 0 0 0 0 0 0 2 29 88
0 0 0 0 0 0 0 0 0 0 0 0 0 0 22 37 3 61 264 338 351 511 295 89 0 0 0 0 0 0 0 0 0 0 0 0 0 0 0 0 0 0 0 0 0 2 51 95 152
0 0 0 0 0 0 0 0 0 0 0 0 0 14 82 43 20 6 80 247 451 570 419 294 99 0 0 0 0 0 0 0 0 0 0 0 0 0 0 0 0 0 0 0 0 39 144 121 264
0 0 0 0 0 0 0 0 0 0 0 0 1 105 63 47 12 96 0 14 357 632 665 495 294 36 0 0 0 0 0 0 0 0 0 0 0 0 0 0 0 0 0 0 0 105 258 252 348
0 0 0 0 0 0 0 0 0 0 0 0 0 30 66 76 5 0 6 0 3 75 1280 1145 749 303 8 0 0 0 0 0 0 0 0 0 0 0 0 0 0 0 0 0 20 161 362 247 308
0 0 0 0 0 0 0 0 0 0 0 0 0 0 7 111 76 8 9 0 2 14 1219 1486 1097 615 201 3 23 27 4 0 0 0 0 0 0 0 0 0 0 0 0 0 0 20 225 217 212
0 0 0 0 0 0 0 0 0 0 0 0 0 0 0 43 73 68 0 0 0 0 389 208 483 630 471 219 254 193 187 119 17 1 0 0 0 0 0 0 0 0 4 7 0 0 63 89 130
0 0 0 0 0 0 0 0 0 0 0 0 0 0 0 0 32 0 0 0 0 0 0 123 398 533 832 589 532 490 399 286 204 143 114 31 0 0 0 0 0 0 11 33 2 0 46 116 317
0 0 0 0 0 0 0 0 0 0 0 0 0 0 0 0 6 0 0 0 0 0 0 248 600 1068 1542 1445 1315 1033 724 687 580 417 326 201 61 33 0 0 0 0 20 61 80 73 117 270 536
0 0 0 0 0 0 0 0 0 0 0 0 0 0 0 0 0 0 0 0 0 0 0 0 572 1031 1264 1464 1081 1205 1475 1165 900 897 637 536 297 102 77 20 3 16 84 112 154 173 178 437 458
0 0 0 0 0 0 0 0 0 0 0 0 0 0 0 0 0 0 0 0 0 0 0 0 80 344 552 768 967 894 579 773 1589 1285 1101 991 641 490 252 122 129 77 128 207 260 247 225 256 773
0 0 0 0 0 0 0 0 0 0 0 0 0 0 0 0 0 0 0 0 0 0 0 8 18 171 743 957 1099 1309 1244 1133 766 829 1151 1191 1136 869 484 426 261 279 242 292 313 356 446 403 457
0 0 0 0 0 0 0 0 0 0 0 0 0 0 0 0 0 0 0 0 2 55 15 19 17 51 421 684 781 723 634 868 1055 1229 1177 891 1059 1253 971 557 697 630 520 481 464 417 431 534 530
0 0 0 0 0 0 0 0 0 0 0 0 0 0 0 0 0 0 0 0 0 35 93 25 1 0 0 8 32 1 43 462 534 311 242 337 1012 1411 1320 1069 943 913 925 696 519 595 536 495 490
0 0 0 0 0 0 0 0 0 0 0 0 0 0 0 0 0 0 0 0 3 12 34 1 0 0 0 0 0 0 0 3 13 176 351 366 1173 1461 1655 1417 1201 1240 1114 957 863 647 508 492 583
0 0 0 0 0 0 0 0 0 0 0 0 0 0 0 0 0 0 0 0 0 0 0 0 0 0 0 0 0 0 0 0 0 0 16 1108 1460 1554 1733 1626 1425 1254 1276 1149 985 792 604 446 498
1 2 0 0 0 0 0 0 0 0 0 0 0 0 0 0 0 0 0 0 0 0 0 0 0 0 0 0 0 0 0 0 59 91 298 1523 1484 1628 1651 1625 1551 1405 1380 1200 1077 886 665 557 503
9 2 0 0 0 0 0 0 0 0 0 0 0 0 0 0 0 0 0 0 0 0 0 0 0 0 0 0 0 0 0 0 6 357 1080 1479 1342 1413 1575 1581 1496 1352 1299 1368 1060 986 729 598 499
4 1 0 0 0 0 0 0 0 0 0 0 0 0 0 0 0 0 0 0 0 0 0 0 0 0 0 0 0 0 0 1 38 1053 1410 1449 1393 1301 1272 1231 1140 1135 1195 1276 948 912 750 619 676
0 9 0 0 0 0 2 0 0 0 0 0 0 0 0 0 0 0 0 0 0 0 0 0 0 0 0 0 49 160 209 201 300 1143 1549 1339 1399 1328 1152 920 1080 1105 1103 1147 984 746 762 824 627
1 0 8 0 2 0 0 0 0 0 0 0 0 0 0 0 0 0 0 0 0 0 0 0 0 0 0 22 182 402 455 290 457 1159 1481 1343 1262 1100 985 973 985 1068 1052 1083 1086 951 713 579 387
3 0 0 5 0 0 0 0 0 1 0 0 0 0 0 0 0 0 0 0 0 0 0 0 0 0 0 217 362 503 987 1237 1717 1503 1421 1257 1040 978 894 951 1029 1091 1132 1085 816 523 497 562 327
2 21 19 1 14 6 0 0 19 0 0 0 0 0 0 0 0 2 8 122 0 38 49 41 426 474 614 1055 1253 1436 1596 1984 1815 1539 1258 1000 909 936 949 1191 1265 1187 959 800 473 436 338 285 162
1 40 1 0 0 4 3 0 0 0 0 0 0 0 0 0 0 30 944 758 859 983 1456 1422 1471 1461 1456 1520 1685 1763 2031 2075 1610 1115 1476 1243 1363 1343 1117 1261 1008 873 746 590 273 255 295 274 168

GFSSGP_con_mlcape_042.txt.gz
CAPE
0 0 0 0 0 0 0 0 0 0 0 0 0 0 0 55 52 14 19 2 0 0 0 77 54 11 0 0 26 100 107 157 217 149 70 62 35 4 0 0 0 0 0 0 0 0 0 0 0
0 0 0 0 0 0 0 0 0 0 0 0 0 0 43 86 106 54 36 71 0 0 0 22 50 3 0 0 15 31 83 124 155 115 71 45 17 0 0 0 0 0 0 0 0 0 0 0 0
0 0 0 0 0 0 0 0 0 0 0 0 0 0 24 80 175 95 132 7 0 0 0 0 50 0 0 0 2 25 69 131 117 112 98 52 13 0 0 0 0 0 0 0 0 0 0 0 0
0 0 0 0 0 0 0 0 0 0 0 0 0 15 49 93 136 202 164 0 0 0 0 0 49 0 0 0 0 0 59 115 133 143 134 71 13 0 0 0 0 0 0 0 0 0 0 0 0
0 0 0 0 0 0 0 0 0 0 0 0 0 4 104 106 225 214 101 0 0 0 0 0 27 0 0 0 0 0 55 90 136 161 124 88 16 0 0 0 0 0 0 0 0 0 0 0 1
0 0 0 0 0 0 0 0 0 0 0 0 0 12 20 116 198 198 10 0 0 0 0 0 37 0 0 0 0 0 10 85 152 139 77 38 0 0 0 0 0 0 0 0 0 0 0 0 12
0 0 0 0 0 0 0 0 0 0 0 0 0 8 27 112 370 353 7 0 0 0 0 0 7 3 0 0 0 0 0 39 95 126 61 36 0 0 0 0 0 0 0 0 0 0 0 2 25
0 0 0 0 0 0 0 0 0 0 0 0 0 0 54 9 344 391 139 0 0 0 0 0 0 0 0 0 0 0 0 0 10 45 36 29 0 0 0 0 0 0 0 0 0 15 19 17 85
0 0 0 0 0 0 0 0 0 0 0 0 0 1 23 54 181 299 192 3 0 0 0 0 0 0 0 0 0 0 0 0 0 0 6 4 0 0 0 0 0 0 0 0 0 30 71 61 149
0 0 0 0 0 0 0 0 0 0 0 0 0 12 40 56 196 170 210 37 10 0 9 0 0 0 0 0 0 0 0 0 0 0 0 0 0 0 0 0 0 0 0 0 0 29 115 137 138
0 0 0 0 0 0 0 0 0 0 0 0 0 0 35 101 144 180 143 239 299 488 331 152 3 0 0 0 0 0 0 0 0 0 0 0 0 0 0 0 0 0 0 0 0 16 136 94 144
0 0 0 0 0 0 0 0 0 0 0 0 0 0 0 61 58 145 28 42 254 563 700 584 377 62 0 0 0 0 0 0 0 0 0 0 0 0 0 0 0 0 0 0 0 0 35 50 96
0 0 0 0 0 0 0 0 0 0 0 0 0 0 0 0 71 34 22 39 213 602 1217 1212 1040 584 251 0 1 0 0 0 0 0 0 0 0 0 0 0 0 0 0 0 0 0 0 2 26
0 0 0 0 0 0 0 0 0 0 0 0 0 0 0 0 28 49 13 34 36 78 459 598 527 153 167 235 10 7 0 0 0 0 0 0 0 0 0 0 0 0 0 0 0 0 0 0 1
0 0 0 0 0 0 0 0 0 0 0 0 0 0 0 0 0 33 32 21 15 26 50 86 15 7 1 261 85 272 243 157 92 49 1 0 0 0 0 0 0 0 0 0 0 0 0 0 14
0 0 0 0 0 0 0 0 0 0 0 0 0 0 0 0 0 0 6 0 0 0 0 121 166 116 253 579 546 618 456 345 297 199 121 110 83 30 30 2 0 0 0 0 0 0 1 29 65
0 0 0 0 0 0 0 0 0 0 0 0 0 0 0 0 0 0 0 0 1 0 2 78 445 512 687 805 871 866 810 625 637 546 446 354 249 153 126 101 43 0 0 0 0 23 35 128 191
0 0 0 0 0 0 0 0 0 0 0 0 0 0 0 0 0 0 0 0 0 0 0 12 333 371 327 513 867 1224 1207 1248 1066 959 883 719 588 475 295 216 133 49 5 0 0 61 94 145 258
0 0 0 0 0 0 0 0 0 0 0 0 0 0 0 0 0 0 0 0 0 0 0 0 0 234 440 414 667 1124 1330 1158 1013 906 1069 1164 1146 977 703 454 261 139 95 50 45 106 188 216 286
0 0 0 0 0 0 0 0 0 0 0 0 0 0 0 0 0 0 0 0 0 0 0 0 0 55 396 459 531 911 908 747 795 844 673 643 782 1097 970 661 526 329 255 129 139 165 231 377 394
0 0 0 0 0 0 0 0 0 0 0 0 0 0 0 0 0 0 0 0 0 0 0 0 0 26 330 431 538 440 392 184 170 342 409 579 755 940 813 588 542 581 478 459 285 354 389 440 403
0 0 0 0 0 0 0 0 0 0 0 0 0 0 0 0 0 0 0 0 0 0 0 1 29 91 132 135 107 103 5 0 0 0 0 6 106 506 633 719 802 811 744 689 630 504 469 500 553
0 0 0 0 0 0 0 0 0 0 0 0 0 0 0 0 0 0 0 0 0 0 0 0 0 55 25 0 0 0 0 0 0 0 0 0 11 377 643 977 1052 1065 966 847 891 781 618 467 451
0 0 0 0 0 0 0 0 0 0 0 0 0 0 0 0 0 0 0 0 0 0 0 0 0 0 0 0 0 0 0 0 0 0 0 62 300 757 1257 1300 1330 1263 1173 1050 1014 934 829 543 479
0 0 0 0 0 0 0 0 0 0 0 0 0 0 0 0 0 0 0 0 0 0 0 0 0 0 0 0 0 0 0 0 0 0 10 20 465 1211 1360 1466 1423 1342 1302 1179 1048 1031 844 558 477
0 0 0 0 0 0 0 0 0 0 0 0 0 0 0 0 0 0 0 0 0 0 0 0 0 0 0 0 0 0 0 0 0 0 75 310 931 1219 1281 1331 1308 1284 1075 966 1005 884 753 575 403
0 0 0 0 0 2 0 0 0 0 0 0 0 0 0 0 0 0 0 0 0 0 0 0 0 0 0 0 0 0 0 0 0 28 411 624 1000 1077 1067 1033 913 839 893 991 869 793 721 581 444
0 0 0 1 0 0 0 0 0 0 0 0 0 0 0 0 0 0 0 0 0 0 0 0 0 0 0 0 0 0 15 24 216 555 717 929 1200 1180 987 742 712 840 822 881 872 793 726 661 401
0 0 0 0 0 0 0 0 0 0 0 0 0 0 0 0 0 0 0 0 0 0 13 0 0 0 0 0 65 172 458 607 620 553 675 977 1214 1047 781 692 732 719 849 814 824 704 475 366 294
0 0 0 0 0 4 0 0 0 0 0 0 0 0 0 0 0 0 0 0 0 0 419 101 0 0 0 173 459 567 704 892 1009 1296 1428 1203 1005 802 762 800 838 866 837 718 552 336 334 300 256

GFSSGP_con_mlcape_045.txt.gz
CAPE
0 0 0 0 0 0 0 0 0 0 0 0 0 0 0 0 0 0 0 0 0 0 54 175 228 154 67 63 69 64 75 146 150 135 89 43 13 0 0 0 0 0 0 0 0 0 0 0 0
0 0 0 0 0 0 0 0 0 0 0 0 0 0 0 0 0 1 0 0 0 0 65 59 56 159 62 38 39 32 54 84 74 56 37 12 0 0 0 0 0 0 0 0 0 0 0 0 0
0 0 0 0 0 0 0 0 0 0 0 0 0 0 0 0 34 5 4 0 0 0 39 5 39 143 76 33 24 15 43 74 71 65 53 20 0 0 0 0 0 0 0 0 0 0 0 0 0
0 0 0 0 0 0 0 0 0 0 0 0 0 0 0 16 47 19 8 0 0 0 32 39 10 108 64 37 15 15 41 42 58 52 42 25 4 0 0 0 0 0 0 0 0 0 0 0 0
0 0 0 0 0 0 0 0 0 0 0 0 0 0 0 34 175 128 17 0 0 0 4 100 3 84 94 43 38 35 25 57 49 62 58 31 4 0 0 0 0 0 0 0 0 0 0 0 0
0 0 0 0 0 0 0 0 0 0 0 0 0 0 0 181 175 104 42 0 0 0 1 60 19 24 143 54 42 43 31 38 56 63 79 67 2 0 0 0 0 0 0 0 0 0 0 0 0
0 0 0 0 0 0 0 0 0 0 0 0 0 0 10 89 238 51 5 0 0 0 0 11 5 11 153 100 42 53 50 32 56 84 86 88 63 0 0 0 0 0 0 0 0 0 0 0 0
0 0 0 0 0 0 0 0 0 0 0 0 0 0 20 115 281 46 0 0 0 10 0 0 0 0 81 165 121 90 102 61 69 78 97 131 84 19 0 0 0 0 0 0 0 14 24 9 21
0 0 0 0 0 0 0 0 0 0 0 0 0 0 0 285 306 100 0 0 0 0 0 0 0 0 4 29 234 148 200 145 105 117 139 132 109 84 18 0 0 0 0 0 0 20 63 63 63
0 0 0 0 0 0 0 0 0 0 0 0 0 0 0 304 390 154 0 0 0 0 0 0 0 0 0 0 17 137 198 219 184 162 170 163 65 24 0 0 0 0 0 0 0 6 49 93 78
0 0 0 0 0 0 0 0 0 0 0 0 0 0 0 0 202 281 55 0 0 0 0 0 0 0 0 0 0 5 5 1 6 4 26 81 11 14 29 0 0 0 0 0 0 0 35 30 54
0 0 0 0 0 0 0 0 0 0 0 0 0 0 0 0 12 128 185 68 8 0 0 0 0 0 0 0 0 0 0 0 0 0 0 0 0 0 0 0 0 0 0 0 0 0 0 0 17
0 0 0 0 0 0 0 0 0 0 0 0 0 0 0 0 0 90 145 163 237 97 3 0 0 0 0 0 0 0 0 0 0 0 0 0 0 0 0 0 0 0 0 0 0 0 0 0 0
0 0 0 0 0 0 0 0 0 0 0 0 0 0 0 0 0 0 64 128 260 691 603 303 95 8 0 0 0 0 0 0 0 0 0 0 0 0 0 0 0 0 0 0 0 0 0 0 0
0 0 0 0 0 0 0 0 0 0 0 0 0 0 0 0 0 0 7 91 233 482 923 767 619 327 203 168 18 0 0 0 0 0 0 0 0 0 0 0 0 0 0 0 0 0 0 0 0
0 0 0 0 0 0 0 0 0 0 0 0 0 0 0 0 0 0 0 34 85 199 491 1068 1083 711 539 246 116 28 66 148 54 1 0 0 0 0 0 0 0 0 0 0 0 0 0 0 0
0 0 0 0 0 0 0 0 0 0 0 0 0 0 0 0 0 0 0 0 50 38 69 177 409 288 162 79 82 57 16 222 269 137 126 152 88 32 0 1 0 0 0 0 0 0 0 0 0
0 0 0 0 0 0 0 0 0 0 0 0 0 0 0 0 0 0 0 0 0 4 26 14 12 189 138 100 114 169 248 459 414 360 302 258 198 150 81 48 28 0 0 0 0 0 0 0 0
0 0 0 0 0 0 0 0 0 0 0 0 0 0 0 0 0 0 0 0 0 0 0 2 11 39 253 330 264 317 441 495 786 658 564 491 413 352 231 166 162 33 54 53 0 0 8 0 21
0 0 0 0 0 0 0 0 0 0 0 0 0 0 0 0 0 0 0 0 0 0 0 0 0 3 7 465 677 698 749 826 1073 1051 933 934 892 734 624 517 524 200 92 28 16 24 39 4 46
0 0 0 0 0 0 0 0 0 0 0 0 0 0 0 0 0 0 0 0 0 0 0 0 0 0 0 54 591 608 650 567 1026 946 865 1032 857 742 761 755 588 331 228 210 78 79 105 136 101
0 0 0 0 0 0 0 0 0 0 0 0 0 0 0 0 0 0 0 0 0 0 0 0 0 0 0 35 288 487 648 552 457 579 751 473 483 632 869 923 749 610 422 271 200 148 99 123 322
0 0 0 0 0 0 0 0 0 0 0 0 0 0 0 0 0 0 0 0 0 0 0 0 0 0 0 13 167 386 430 352 238 79 66 35 81 189 322 454 335 317 403 450 388 310 224 241 408
0 0 0 0 0 0 0 0 0 0 0 0 0 0 0 0 0 0 0 0 0 0 0 0 0 0 0 0 47 177 312 226 54 0 0 0 0 0 107 430 443 450 582 609 666 554 482 536 430
0 0 0 0 0 0 0 0 0 0 0 0 0 0 0 0 0 0 0 0 0 0 0 0 0 0 0 0 2 77 140 61 2 0 0 0 0 0 135 531 707 780 836 902 845 859 822 658 553
0 0 0 0 0 0 0 0 0 0 0 0 0 0 0 0 0 0 0 0 0 0 0 0 0 0 0 0 0 7 24 0 0 0 0 0 0 43 165 825 1124 1054 1098 1074 942 851 850 735 543
0 0 0 0 0 0 0 0 0 0 0 0 0 0 0 0 0 0 0 0 0 0 0 0 0 0 0 0 0 0 0 0 0 0 0 0 39 171 712 1108 1255 1189 1173 1108 841 819 809 565 429
0 0 0 0 0 0 0 0 0 0 0 0 0 0 0 0 0 0 0 0 0 0 0 0 0 0 0 0 0 0 0 0 0 0 0 62 232 597 944 1217 1201 1117 951 828 801 755 516 458 370
0 0 0 0 0 1 0 0 0 0 0 0 0 0 0 0 0 0 0 0 0 0 0 0 0 42 0 0 0 0 0 0 0 2 81 255 595 792 1070 1075 919 788 762 749 669 544 487 486 403
0 0 0 0 0 0 2 0 0 0 0 0 0 0 0 0 0 0 0 0 0 0 0 0 2 213 2 0 0 0 0 24 196 366 611 656 622 926 1019 938 742 718 716 579 620 571 525 451 221

GFSSGP_con_mlcape_048.txt.gz
CAPE
0 0 0 0 0 0 0 0 0 0 0 0 0 0 0 0 0 0 0 0 0 0 103 697 679 758 436 213 152 64 41 31 51 51 63 75 84 78 57 34 4 0 0 0 0 0 0 0 0
0 0 0 0 0 0 0 0 0 0 0 0 0 0 0 0 0 0 0 0 0 0 103 263 669 445 273 143 120 82 70 58 44 12 20 21 19 12 2 0 0 0 0 0 0 0 0 0 0
0 0 0 0 0 0 0 0 0 0 0 0 0 0 0 0 16 0 0 0 0 0 165 292 709 279 211 123 79 88 78 80 60 46 37 20 8 0 0 0 0 0 0 0 0 0 0 0 0
0 0 0 0 0 0 0 0 0 0 0 0 0 0 0 0 14 51 0 0 0 5 137 376 757 318 163 129 96 93 64 65 62 65 37 10 0 0 0 0 0 0 0 0 0 0 0 0 0
0 0 0 0 0 0 0 0 0 0 0 0 0 0 0 69 118 40 0 0 0 15 87 312 869 458 187 114 123 68 46 50 46 45 27 12 0 0 0 0 0 0 0 0 0 0 0 0 0
0 0 0 0 0 0 0 0 0 0 0 0 0 0 0 156 174 18 0 0 2 4 40 302 986 655 220 194 127 84 46 48 64 57 52 34 12 0 0 0 0 0 0 0 0 0 0 0 0
0 0 0 0 0 0 0 0 0 0 0 0 0 0 0 0 75 1 0 0 0 13 79 282 617 593 496 432 233 161 103 71 79 81 75 59 27 0 0 0 0 0 0 0 0 0 0 0 0
0 0 0 0 0 0 0 0 0 0 0 0 0 0 0 2 54 0 0 0 0 9 47 117 434 500 246 474 463 333 226 147 129 113 87 95 69 28 0 0 0 0 0 0 0 0 0 0 0
0 0 0 0 0 0 0 0 0 0 0 0 0 0 0 58 66 13 0 0 0 0 7 32 184 178 163 146 508 632 566 373 298 282 230 198 215 160 44 0 0 0 0 0 0 0 0 0 3
0 0 0 0 0 0 0 0 0 0 0 0 0 0 0 2 312 67 0 4 0 0 0 0 47 36 53 38 231 465 665 641 515 400 406 356 218 130 56 11 0 0 0 0 0 0 0 31 23
0 0 0 0 0 0 0 0 0 0 0 0 0 0 0 0 1 294 131 0 0 0 0 0 0 5 0 0 5 86 221 337 368 359 373 466 231 192 206 26 27 0 0 0 0 0 0 1 16
0 0 0 0 0 0 0 0 0 0 0 0 0 0 0 0 0 0 162 213 0 0 0 0 0 0 0 0 0 0 3 36 83 144 273 134 13 9 7 0 0 0 0 0 0 0 0 0 0
0 0 0 0 0 0 0 0 0 0 0 0 0 0 0 0 0 0 0 141 134 0 0 0 0 0 0 0 0 0 0 0 0 7 7 43 2 0 0 0 0 0 0 0 0 0 0 0 0
0 0 0 0 0 0 0 0 0 0 0 0 0 0 0 0 0 0 0 4 251 73 0 0 0 0 0 0 0 0 0 0 0 0 0 1 0 0 0 0 0 0 0 0 0 0 0 0 0
0 0 0 0 0 0 0 0 0 0 0 0 0 0 0 0 0 0 0 0 48 315 242 0 0 0 0 0 0 0 0 0 0 0 0 0 0 0 0 0 0 0 0 0 0 0 0 0 0
0 0 0 0 0 0 0 0 0 0 0 0 0 0 0 0 0 0 0 0 10 137 461 570 140 6 0 0 0 0 0 0 0 0 0 0 0 0 0 0 0 0 0 0 0 0 0 0 0
0 0 0 0 0 0 0 0 0 0 0 0 0 0 0 0 0 0 0 0 0 20 214 722 1057 629 217 63 8 0 0 0 2 0 0 2 0 0 0 0 0 0 0 0 0 0 0 0 0
0 0 0 0 0 0 0 0 0 0 0 0 0 0 0 0 0 0 0 0 0 0 0 32 226 918 682 331 154 154 162 111 96 82 85 60 11 5 1 0 0 0 0 0 0 0 0 0 0
0 0 0 0 0 0 0 0 0 0 0 0 0 0 0 0 0 0 0 0 0 0 0 0 0 113 617 352 250 159 115 156 206 228 195 179 171 134 98 84 83 37 49 59 4 0 0 0 0
0 0 0 0 0 0 0 0 0 0 0 0 0 0 0 0 0 0 0 0 0 0 0 0 0 0 18 299 409 249 204 166 267 493 572 513 386 317 261 251 246 137 95 53 23 0 1 0 0
0 0 0 0 0 0 0 0 0 0 0 0 0 0 0 0 0 0 0 0 0 0 0 0 0 0 0 22 136 227 262 253 381 466 638 749 683 546 489 414 372 262 166 207 64 10 40 110 0
0 0 0 0 0 0 0 0 0 0 0 0 0 0 0 0 0 0 0 0 0 0 0 0 0 0 0 0 13 40 5 6 85 115 527 708 869 909 765 718 601 367 258 224 107 43 51 0 153
0 0 0 0 0 0 0 0 0 0 0 0 0 0 0 0 0 0 0 0 0 0 0 0 0 0 0 0 0 0 0 0 8 99 435 620 678 753 788 796 569 483 373 384 228 170 48 21 115
0 0 0 0 0 0 0 0 0 0 0 0 0 0 0 0 0 0 0 0 0 0 0 0 0 0 0 0 0 0 0 0 11 101 259 492 279 300 365 389 511 388 326 310 158 141 178 227 232
0 0 0 0 0 0 0 0 0 0 0 0 0 0 0 0 0 0 0 0 0 0 0 0 0 0 0 0 0 0 0 54 17 155 219 225 83 41 41 35 26 72 183 221 237 298 403 404 417
0 0 0 0 0 0 0 0 0 0 0 0 0 0 0 0 0 0 0 0 0 0 0 0 0 0 0 0 0 0 1 51 187 164 152 138 17 0 0 29 152 207 503 465 471 645 627 548 633
0 0 0 0 0 0 0 0 0 0 0 0 0 0 0 0 0 0 0 0 0 0 0 0 0 0 0 0 0 0 0 0 3 82 92 71 0 0 1 129 104 641 815 782 797 782 761 688 623
0 0 0 0 0 0 0 0 0 0 0 0 0 0 0 0 0 0 0 0 0 0 0 0 0 0 0 0 0 0 0 0 0 4 59 6 0 6 48 188 540 1069 1060 963 867 820 656 681 413
0 0 0 0 0 0 0 0 0 0 0 0 0 0 0 0 0 0 0 0 0 0 0 0 0 0 0 0 0 0 0 0 0 0 0 0 38 92 258 446 1105 1206 1160 1020 856 664 611 400 406
0 0 0 0 0 0 0 0 0 0 0 0 0 0 0 0 0 0 0 0 0 0 0 0 0 0 0 0 0 0 0 0 0 0 0 27 96 400 519 909 1194 1156 1000 724 676 619 388 427 367

GFSSGP_con_mlcape_051.txt.gz
CAPE
0 0 0 0 0 0 0 0 0 0 0 0 0 0 0 0 0 0 7 48 16 0 181 862 968 482 377 580 846 937 943 954 933 889 803 737 688 755 608 410 187 71 0 0 0 0 0 0 0
0 0 0 0 0 0 0 0 0 0 0 0 0 0 0 0 0 0 0 41 20 19 105 740 1183 806 370 261 296 459 533 652 661 709 580 556 645 542 239 86 6 0 0 0 0 0 0 0 0
0 0 0 0 0 0 0 0 0 0 0 0 0 0 0 0 0 0 14 0 20 24 99 695 1338 1135 500 221 158 158 180 239 207 242 200 189 107 50 13 0 0 0 0 0 0 0 0 0 0
0 0 0 0 0 0 0 0 0 0 0 0 0 0 0 35 64 119 117 0 22 91 122 730 1354 1339 849 407 139 119 104 104 67 55 26 24 16 0 0 0 0 0 0 0 0 0 0 0 0
0 0 0 0 0 0 0 0 0 0 0 0 0 0 0 5 2 56 41 0 0 108 177 634 1118 1344 1022 742 271 184 151 91 37 19 5 0 0 0 0 0 0 0 0 0 0 0 0 0 0
0 0 0 0 0 0 0 0 0 0 0 0 0 0 0 0 55 53 0 0 9 47 193 513 903 1135 1021 885 527 299 223 106 64 44 3 0 0 0 0 0 0 0 0 0 0 0 0 0 0
0 0 0 0 0 0 0 0 0 0 0 0 0 0 0 0 68 23 0 0 52 100 158 636 774 985 1053 795 803 467 446 192 114 89 27 0 0 0 0 0 0 0 0 0 0 0 0 0 0
0 0 0 0 0 0 0 0 0 0 0 0 0 0 0 0 79 73 12 18 37 88 109 390 555 842 940 845 799 691 722 394 220 198 168 37 1 0 0 0 0 0 0 0 0 0 0 0 0
0 0 0 0 0 0 0 0 0 0 0 0 0 0 0 0 104 127 45 4 0 77 187 333 553 770 795 598 828 762 807 649 483 442 451 317 265 222 92 0 0 0 0 0 0 0 0 0 0
0 0 0 0 0 0 0 0 0 0 0 0 0 0 0 0 50 171 149 6 0 3 102 282 424 500 757 731 884 812 840 731 791 797 922 731 739 680 305 141 0 0 0 0 0 0 2 10 3
0 0 0 0 0 0 0 0 0 0 0 0 0 0 0 0 0 0 150 109 0 0 2 161 407 429 419 436 800 938 938 967 884 828 881 866 656 439 481 281 143 35 17 0 0 0 0 4 24
0 0 0 0 0 0 0 0 0 0 0 0 0 0 0 0 0 0 0 109 66 0 0 45 184 292 359 459 528 631 368 634 370 286 451 436 272 173 343 299 215 204 81 34 20 0 1 24 15
0 0 0 0 0 0 0 0 0 0 0 0 0 0 0 0 0 0 0 0 114 12 0 0 99 174 194 278 167 232 209 215 176 151 411 359 83 110 237 205 158 111 89 34 8 0 0 0 0
0 0 0 0 0 0 0 0 0 0 0 0 0 0 0 0 0 0 0 0 7 177 16 0 4 99 90 23 61 55 35 63 126 93 196 265 141 96 65 80 96 82 63 15 3 0 0 0 0
0 0 0 0 0 0 0 0 0 0 0 0 0 0 0 0 0 0 0 0 0 47 339 146 8 0 1 0 2 4 10 15 2 0 24 66 28 5 19 13 9 34 10 0 0 0 0 0 0
0 0 0 0 0 0 0 0 0 0 0 0 0 0 0 0 0 0 0 0 0 0 180 459 79 4 0 0 0 0 0 0 0 0 0 0 0 0 0 0 0 0 0 0 0 0 0 0 0
0 0 0 0 0 0 0 0 0 0 0 0 0 0 0 0 0 0 0 0 0 0 10 451 638 141 0 0 0 0 0 0 0 0 0 0 0 0 0 0 0 0 0 0 0 0 1 0 0
0 0 0 0 0 0 0 0 0 0 0 0 0 0 0 0 0 0 0 0 0 0 0 1 664 864 414 128 3 0 0 0 0 0 0 0 0 0 1 0 3 0 0 2 13 18 25 15 8
0 0 0 0 0 0 0 0 0 0 0 0 0 0 0 0 0 0 0 0 0 0 0 0 0 510 933 972 636 307 15 0 37 54 21 51 11 46 27 29 38 38 50 122 125 100 128 146 23
0 0 0 0 0 0 0 0 0 0 0 0 0 0 0 0 0 0 0 0 0 0 0 0 0 0 19 353 654 839 528 455 326 436 344 259 221 199 263 322 326 252 226 237 257 202 331 289 147
0 0 0 0 0 0 0 0 0 0 0 0 0 0 0 0 0 0 0 0 0 0 0 0 0 0 0 0 407 688 717 654 661 634 740 720 550 572 664 617 574 468 368 463 424 392 487 764 263
0 0 0 0 0 0 0 0 0 0 0 0 0 0 0 0 0 0 0 0 0 0 0 0 0 0 0 0 1 135 365 713 808 814 915 1047 891 927 920 892 751 684 688 723 603 504 608 585 720
0 0 0 0 0 0 0 0 0 0 0 0 0 0 0 0 0 0 0 0 0 0 0 0 0 0 0 0 0 0 6 80 489 820 743 841 1112 1096 1112 1166 1042 991 1060 877 699 504 535 587 649
0 0 0 0 0 0 0 0 0 0 0 0 0 0 0 0 0 0 0 0 0 0 0 0 0 0 0 0 0 0 0 0 55 204 255 415 758 1252 1332 1356 1307 1326 1108 822 767 652 698 644 580
0 0 0 0 0 0 0 0 0 0 0 0 0 0 0 0 0 0 0 0 0 0 0 0 0 0 0 0 0 0 0 0 0 3 9 69 177 335 569 1162 1266 1217 1067 900 698 622 690 603 719
0 0 0 0 0 0 0 0 0 0 0 0 0 0 0 0 0 0 0 0 0 0 0 0 0 0 0 0 0 0 0 0 0 1 5 40 206 338 611 785 1017 864 498 415 640 701 782 855 942
0 0 0 0 0 0 0 0 0 0 0 0 0 0 0 0 0 0 0 0 0 0 0 0 0 0 0 0 0 0 0 0 2 80 135 236 372 493 578 448 452 382 413 708 1023 1098 1125 1136 1115
0 0 0 2 0 0 0 0 0 0 0 0 0 0 0 0 0 0 0 0 0 0 0 0 0 0 0 0 0 0 0 0 0 33 58 109 234 350 352 242 349 433 700 1419 1417 1450 1389 1335 1264
0 0 0 0 1 2 0 0 0 0 0 0 0 0 0 0 0 0 0 0 0 0 0 0 0 0 0 0 0 0 0 0 0 0 0 58 293 394 280 259 440 694 1318 1679 1629 1563 1440 1300 1001
0 0 0 4 3 3 4 0 0 0 0 0 0 0 0 0 0 0 0 0 0 0 0 0 0 0 0 0 0 0 0 0 0 0 0 16 241 324 306 514 773 1323 1763 1742 1626 1525 1188 1003 744

GFSSGP_con_mlcape_054.txt.gz
CAPE
0 0 0 0 0 0 0 0 0 0 0 0 0 0 0 0 0 8 80 117 11 9 472 536 440 783 1251 1281 1204 1095 1021 990 829 679 566 511 604 585 524 543 387 252 120 0 0 0 0 0 0
0 0 0 0 0 0 0 0 0 0 0 0 0 0 0 0 0 0 0 114 14 71 592 313 411 563 1169 1290 1225 1120 1144 1097 1054 892 707 742 824 744 516 336 150 88 11 0 0 0 0 0 0
0 0 0 0 0 0 0 0 0 0 0 0 0 0 0 0 0 9 230 131 83 180 524 370 347 506 983 1296 1213 1131 1168 1143 1091 895 822 781 736 526 236 78 7 4 0 0 0 0 0 0 0
0 0 0 0 0 0 0 0 0 0 0 0 0 0 0 0 0 0 26 238 111 226 276 1106 306 410 712 1221 1183 1128 1124 1067 924 857 708 552 395 189 1 0 0 0 0 0 0 0 0 0 0
0 0 0 0 0 0 0 0 0 0 0 0 0 0 0 0 0 106 217 257 117 209 155 1494 470 448 616 787 1021 972 915 763 761 599 348 264 116 3 0 0 0 0 0 0 0 0 0 0 0
0 0 0 0 0 0 0 0 0 0 0 0 0 0 0 0 0 92 175 267 143 122 132 1036 951 632 605 718 656 698 626 596 490 287 164 68 6 0 0 0 0 0 0 0 0 0 0 0 0
0 0 0 0 0 0 0 0 0 0 0 0 0 0 0 0 0 101 171 206 152 92 114 835 994 1074 865 637 631 699 599 462 371 237 105 58 38 10 0 0 0 0 0 0 0 0 0 0 0
0 0 0 0 0 0 0 0 0 0 0 0 0 0 0 0 0 99 224 153 141 91 98 409 631 977 823 639 751 695 754 605 506 335 222 159 107 45 0 0 0 0 0 0 0 0 0 0 0
0 0 0 0 0 0 0 0 0 0 0 0 0 0 0 0 0 19 344 186 193 94 46 212 368 536 403 235 674 987 837 733 751 591 496 239 55 78 30 0 0 0 0 0 0 0 0 0 0
0 0 0 0 0 0 0 0 0 0 0 0 0 0 0 0 0 0 0 300 156 137 59 178 295 401 325 129 316 613 656 548 516 360 457 242 75 146 27 8 0 0 0 0 0 0 0 0 0
0 0 0 0 0 0 0 0 0 0 0 0 0 0 0 0 0 0 0 25 47 104 123 150 476 716 370 149 246 415 370 395 420 416 509 382 310 468 306 158 187 23 0 0 0 0 0 0 0
0 0 0 0 0 0 0 0 0 0 0 0 0 0 0 0 0 0 0 0 215 61 38 139 361 831 758 324 389 332 264 383 414 497 825 613 669 551 355 163 133 134 23 2 0 4 6 0 0
0 0 0 0 0 0 0 0 0 0 0 0 0 0 0 0 0 0 0 0 0 241 87 63 236 658 920 716 364 370 331 382 439 425 814 654 473 388 327 225 210 124 109 27 49 21 2 12 15
0 0 0 0 0 0 0 0 0 0 0 0 0 0 0 0 0 0 0 0 0 0 220 95 84 364 858 908 573 603 622 474 533 357 481 860 467 353 236 362 287 187 128 49 28 20 3 0 0
0 0 0 0 0 0 0 0 0 0 0 0 0 0 0 0 0 0 0 0 0 0 0 449 181 239 632 756 784 502 438 389 358 396 464 614 771 477 475 246 213 106 144 172 138 69 4 2 0
0 0 0 0 0 0 0 0 0 0 0 0 0 0 0 0 0 0 0 0 0 0 0 487 434 269 568 555 539 228 69 153 112 117 143 476 676 604 544 141 122 55 70 59 56 19 28 5 35
0 0 0 0 0 0 0 0 0 0 0 0 0 0 0 0 0 0 0 0 0 0 0 12 991 488 406 679 461 200 124 105 10 12 2 48 308 287 274 40 0 92 81 32 46 24 74 129 184
0 0 0 0 0 0 0 0 0 0 0 0 0 0 0 0 0 0 0 0 0 0 0 0 299 176 749 700 523 145 36 41 7 0 0 8 151 71 55 21 11 68 114 54 120 198 282 313 453
0 0 0 0 0 0 0 0 0 0 0 0 0 0 0 0 0 0 0 0 0 0 0 0 0 317 935 1406 623 149 24 0 3 11 8 21 59 40 32 37 40 156 218 117 270 662 566 729 823
0 0 0 0 0 0 0 0 0 0 0 0 0 0 0 0 0 0 0 0 0 0 0 0 0 0 920 2088 1922 1412 877 510 125 53 108 170 140 131 103 185 242 414 414 354 950 874 928 1046 1299
0 0 0 0 0 0 0 0 0 0 0 0 0 0 0 0 0 0 0 0 0 0 0 0 0 0 0 23 483 1430 1441 1451 1336 1036 852 733 340 199 360 605 534 1192 1144 1108 1553 1267 1142 1139 1346
0 0 0 0 0 0 0 0 0 0 0 0 0 0 0 0 0 0 0 0 0 0 0 0 0 0 0 0 0 243 627 626 1078 1364 1533 1652 1545 1101 1019 1106 1394 1917 1776 1443 1699 1591 1508 1628 1263
0 0 0 0 0 0 0 0 0 0 0 0 0 0 0 0 0 0 0 0 0 0 0 0 0 0 0 0 0 0 269 349 354 1088 1508 2206 2351 2099 1619 1768 2033 2175 2034 1753 1859 1779 1748 1482 1348
0 0 0 0 0 0 0 0 0 0 0 0 0 0 0 0 0 0 0 0 0 0 0 0 0 0 0 0 0 0 0 141 216 437 732 1264 1613 2088 2253 2029 2122 2397 2215 2122 2236 2069 1758 1529 1441
0 0 0 0 0 0 0 0 0 0 0 0 0 0 0 0 0 0 0 0 0 0 0 0 0 0 0 0 0 0 0 43 179 524 638 586 530 818 1600 2239 2299 2446 2430 2426 2229 2038 1781 1774 1682
5 6 1 0 0 0 0 0 0 0 0 0 0 0 0 0 0 0 0 0 0 0 0 0 0 0 0 0 0 0 0 1 58 133 169 216 427 431 1151 2025 2247 2508 2502 2439 2324 1873 1532 1584 1667
8 0 2 0 0 0 0 0 0 0 0 0 0 0 0 0 0 0 0 0 0 0 0 0 0 0 0 0 0 0 0 0 15 122 218 199 310 421 771 1499 2097 2364 2456 2364 1910 1236 1570 1667 1753
2 12 5 4 0 0 0 0 0 0 0 0 0 0 0 0 0 0 0 0 0 0 0 0 0 0 0 0 0 0 0 0 4 142 245 679 875 1083 823 1634 1939 2133 1894 1591 1743 1525 2122 1918 2174
14 0 3 15 17 9 0 0 0 0 0 0 0 0 0 0 0 0 0 0 0 0 0 0 0 0 0 0 0 0 0 0 0 41 329 462 1199 1265 1129 1460 1698 1677 1563 1704 1973 2117 2246 2371 2354
1 13 20 7 7 16 8 0 0 0 0 0 0 0 2 0 0 0 0 0 0 0 0 0 0 0 0 0 0 0 0 0 0 23 302 411 636 1091 1233 1433 1443 1368 1365 1917 2234 2397 2233 2380 2262

GFSSGP_con_mlcape_057.txt.gz
CAPE
0 0 0 0 0 0 0 0 0 0 0 0 0 0 0 0 16 23 21 31 0 473 280 556 335 692 1192 1356 923 654 597 378 266 304 463 367 509 562 481 311 228 154 64 0 0 0 0 0 0
0 0 0 0 0 0 0 0 0 0 0 0 0 0 0 0 0 0 11 69 0 696 559 392 370 650 1025 1515 1101 974 825 668 374 459 538 420 607 455 313 237 190 98 42 0 0 0 0 0 0
0 0 0 0 0 0 0 0 0 0 0 0 0 0 0 0 0 0 2 125 41 709 592 466 590 433 927 1555 1286 1125 1019 982 668 676 629 570 657 391 313 230 93 37 0 0 0 0 0 0 0
0 0 0 0 0 0 0 0 0 0 0 0 0 0 0 0 0 0 103 146 171 434 639 919 621 274 828 1284 1591 1249 1194 1186 1016 838 741 621 647 490 328 110 25 21 0 0 0 0 0 0 0
0 0 0 0 0 0 0 0 0 0 0 0 0 0 0 0 0 0 251 177 216 240 573 1149 397 588 634 1102 1499 1466 1375 1308 1211 1017 859 644 596 426 145 8 0 0 0 0 0 0 0 0 0
0 0 0 0 0 0 0 0 0 0 0 0 0 0 0 0 0 1 419 334 217 216 363 1532 459 765 543 804 1168 1381 1445 1333 1321 1199 998 800 549 250 45 0 0 0 0 0 0 0 0 0 0
0 0 1 0 0 0 0 0 0 0 0 0 0 0 0 0 0 4 511 403 355 266 289 1557 515 853 652 617 873 1179 1262 1272 1167 1105 999 764 412 115 15 0 0 0 0 0 0 0 0 0 0
0 0 1 10 0 0 0 0 0 0 0 0 0 0 0 0 0 0 450 367 438 256 223 893 344 627 666 750 725 805 993 1022 975 895 774 557 239 80 20 0 0 0 0 0 0 0 0 0 0
0 0 0 0 18 19 9 1 0 0 0 0 0 0 0 0 0 0 0 512 393 292 178 576 325 461 358 237 786 627 632 751 795 723 615 312 69 99 72 0 0 0 0 0 0 0 0 0 0
0 0 0 0 6 34 47 17 0 0 0 0 0 0 0 0 0 0 0 98 404 377 192 299 505 478 325 111 405 389 392 406 437 311 338 261 78 72 2 0 0 0 0 6 0 0 0 0 0
0 0 0 0 0 16 8 29 10 0 0 0 0 0 0 0 0 0 0 0 133 415 237 167 644 789 385 149 295 307 237 283 348 316 387 302 107 111 121 85 41 31 5 0 0 0 0 0 0
0 0 0 0 0 6 3 0 0 7 6 0 0 0 0 0 0 0 0 0 17 205 283 143 633 745 782 220 227 389 129 327 299 338 534 577 314 391 477 194 209 244 53 25 0 12 12 4 0
0 0 0 0 0 0 0 0 0 0 0 0 0 0 0 0 0 0 0 0 0 17 201 238 337 918 1134 1217 316 387 248 305 294 342 584 589 490 623 722 505 184 164 150 86 145 45 16 24 21
0 0 0 0 0 0 0 0 0 0 0 0 0 0 0 0 0 0 0 0 0 12 86 193 249 795 1210 1357 1391 797 669 345 423 430 640 1099 819 896 535 519 330 226 104 94 89 128 87 46 17
0 0 0 0 0 0 0 0 0 0 0 0 0 0 0 0 0 0 0 0 0 0 10 302 393 414 1252 1614 1570 1331 727 662 604 620 903 1207 1383 876 727 385 379 282 222 318 206 165 115 77 30
0 0 0 0 0 0 0 0 0 0 0 0 0 0 0 0 0 0 0 0 0 0 0 37 253 369 676 1226 1524 1364 955 824 569 684 682 911 1600 1151 938 463 393 315 210 203 395 333 86 92 133
0 0 0 0 0 0 0 0 0 0 0 0 0 0 0 0 0 0 0 0 0 0 0 268 706 653 1047 1076 1063 1172 914 593 515 450 582 862 1079 1192 1041 759 458 432 153 239 385 267 124 230 261
0 0 0 0 0 0 0 0 0 0 0 0 0 0 0 0 0 0 0 0 0 0 0 3 286 367 354 1097 1187 872 705 518 315 179 209 183 737 881 1008 693 514 246 226 211 359 250 346 432 526
0 0 0 0 0 0 0 0 0 0 0 0 0 0 0 0 0 0 0 0 0 0 0 0 4 1034 66 317 722 1032 593 423 302 244 203 266 460 651 692 663 371 268 97 458 579 536 474 804 1012
0 0 0 0 0 0 0 0 0 0 0 0 0 0 0 0 0 0 0 0 0 0 0 0 0 0 795 581 310 601 616 265 172 167 101 199 249 611 529 319 153 173 324 791 888 684 944 1365 1380
0 0 0 0 0 0 0 0 0 0 0 0 0 0 0 0 0 0 0 0 0 0 0 0 0 1 0 304 1486 1770 1821 1869 1316 638 235 306 358 558 239 399 19 211 500 1048 1274 1280 1581 1281 1405
0 0 0 0 0 0 0 0 0 0 0 0 0 0 0 0 0 0 0 0 0 0 0 0 0 0 9 10 12 301 306 570 1253 1899 1706 1044 1094 978 779 393 267 322 1243 1472 1819 2133 2131 2073 1352
0 0 0 0 0 0 0 0 0 0 0 0 0 0 0 0 0 0 0 0 0 0 0 0 0 0 0 33 25 0 89 557 338 31 236 1714 1944 1557 1032 1027 1131 1586 1934 2121 2140 2577 2711 2153 1853
0 0 0 0 0 0 0 0 0 1 0 0 0 0 0 0 0 0 0 0 0 0 0 0 0 0 0 0 2 31 27 96 247 406 343 377 472 774 434 2094 2264 2540 2792 2699 2849 2785 2905 2459 2155
0 0 0 0 0 0 0 0 0 0 0 0 0 0 0 0 0 0 0 0 0 0 0 0 0 0 0 0 0 0 2 85 199 72 441 569 175 941 2726 2828 2682 2874 3446 3090 2867 3049 2990 2854 2298
0 6 4 1 8 7 0 0 2 0 0 0 0 0 0 0 0 0 0 0 0 0 0 0 0 0 0 0 0 0 0 0 2 32 138 297 855 1099 1429 2983 2698 3060 3128 3254 3185 3017 2987 2652 2444
0 1 4 0 0 0 0 0 0 0 0 0 0 0 0 0 0 0 0 0 0 0 0 0 0 0 0 0 0 0 0 0 0 0 272 183 293 501 826 2798 3008 3153 3002 3133 3197 2980 2905 2455 2400
6 1 10 10 0 0 0 0 4 1 1 0 0 0 0 0 0 0 0 0 0 0 0 0 0 0 0 0 0 0 0 0 0 11 139 263 669 601 459 1336 2354 2832 2985 3079 3194 3047 2784 2149 2020
20 0 2 4 2 14 15 0 0 1 0 1 2 0 0 0 0 0 0 0 0 0 0 0 0 0 0 0 0 0 0 0 0 0 29 196 862 1267 1830 977 1505 2441 2826 3222 3296 2522 1869 2167 2460
20 30 40 7 0 16 32 10 1 0 3 12 1 0 1 7 3 1 0 0 0 0 0 0 0 0 0 0 0 0 0 0 0 0 0 230 626 1170 1416 1604 1639 2020 2778 3124 2784 2193 1483 2427 2385

GFSSGP_con_mlcape_060.txt.gz
CAPE
0 0 0 0 0 0 0 0 0 0 0 0 0 0 0 0 0 46 27 29 561 200 679 542 704 650 1130 1068 726 396 217 129 119 238 163 263 518 536 370 203 174 105 0 0 0 0 0 0 0
0 0 0 0 0 0 0 0 0 0 0 0 0 0 0 0 10 56 150 1 764 385 499 759 792 566 965 1091 747 472 369 240 194 288 212 392 529 434 258 120 89 2 0 0 0 0 0 0 0
0 0 0 0 0 0 0 0 0 0 0 0 0 0 0 0 0 0 0 58 999 654 366 897 1025 779 754 1117 914 691 493 382 278 356 348 545 499 297 152 96 4 0 0 0 0 0 0 0 0
0 0 0 0 0 0 0 0 0 0 0 0 0 0 0 0 0 0 50 202 845 978 448 1105 919 1140 631 938 1188 1024 819 582 422 530 521 618 511 179 96 68 0 0 0 0 0 0 0 0 0
0 0 0 0 0 0 0 0 0 0 0 0 0 0 0 0 0 0 106 159 111 1125 590 963 731 1095 557 972 1124 1421 1214 965 650 720 694 696 555 218 96 48 0 0 0 0 0 0 0 0 0
0 0 0 0 0 0 0 0 0 0 0 0 0 0 0 0 0 0 231 247 133 739 875 1254 500 1047 780 876 917 1329 1453 1372 1106 998 890 775 640 395 136 0 0 0 0 0 0 0 0 0 0
0 0 0 0 0 0 0 0 0 0 0 0 0 0 0 0 0 0 164 316 321 414 1073 1366 480 1132 1267 746 890 1072 1381 1446 1383 1246 1026 900 694 426 111 0 0 0 0 0 0 0 0 0 0
0 0 0 0 0 0 0 0 0 0 0 0 0 0 0 0 0 0 0 371 350 232 924 1668 650 914 1505 1207 963 960 1138 1281 1284 1259 1067 902 649 342 53 0 0 0 0 0 0 0 0 0 0
0 0 0 0 0 0 3 0 0 0 0 0 0 0 0 0 0 0 0 20 437 327 632 1390 535 863 924 1259 1333 1040 1087 1106 1107 1006 882 643 498 185 65 0 0 0 0 0 0 0 0 0 0
0 0 0 0 0 0 0 12 42 0 0 0 0 0 0 0 0 0 0 0 497 449 276 735 434 643 565 408 1145 1075 1140 1061 915 854 758 473 168 114 2 0 0 0 0 0 0 0 0 0 0
0 0 0 0 0 0 0 0 7 0 0 0 0 0 0 0 0 0 0 0 1 99 265 671 537 578 467 259 907 636 697 726 689 621 631 344 161 156 50 0 0 0 0 0 0 0 0 0 0
0 0 0 0 0 0 0 0 0 0 0 0 0 0 0 0 0 0 0 0 0 53 193 720 713 716 577 339 847 422 503 423 577 387 513 599 214 94 248 48 29 36 42 0 0 0 3 0 0
0 0 0 0 0 0 0 0 0 0 0 0 0 0 0 0 0 0 0 0 0 49 235 915 1108 1161 605 921 658 613 316 482 588 616 675 817 306 479 308 726 281 471 256 79 28 0 76 62 64
0 0 0 0 0 0 0 0 0 0 0 0 0 0 0 0 0 0 0 0 0 20 181 322 953 1199 1011 854 1347 1654 295 539 490 656 686 650 1039 283 973 689 835 491 568 324 198 177 150 189 147
0 0 0 0 0 0 0 0 0 0 0 0 0 0 0 0 0 0 0 0 0 10 69 251 837 1094 1094 755 1428 1562 1399 529 555 510 815 902 798 1158 792 967 573 583 362 395 328 378 503 220 188
0 0 0 0 0 0 0 0 0 0 0 0 0 0 0 0 0 0 0 0 0 0 2 35 396 1437 1379 1102 908 1187 1499 1154 1043 664 1261 1388 1086 1346 1602 956 785 660 594 538 474 331 252 221 137
0 0 0 0 0 0 0 0 0 0 0 0 0 0 0 0 0 0 0 0 0 0 34 4 433 977 1087 1517 1141 1228 1318 1488 1254 1315 863 1466 1798 1342 1164 1334 839 895 712 436 412 676 545 375 252
0 0 0 0 0 0 0 0 0 0 0 0 0 0 0 0 0 0 0 0 0 0 1 179 730 1280 1047 955 1115 914 1299 1243 943 860 739 967 1291 1657 1229 1080 1349 1060 649 397 312 575 614 443 360
0 0 0 0 0 0 0 0 0 0 0 0 0 0 0 0 0 0 0 0 0 0 0 4 345 735 1401 1308 1087 985 948 740 531 573 399 426 416 1115 1538 1560 1201 1041 612 359 386 327 265 363 908
0 0 0 0 0 0 0 0 0 0 0 0 0 0 0 0 0 0 0 0 0 0 0 29 22 533 777 755 1003 1004 915 1203 887 620 517 347 436 624 1127 1233 1117 705 382 144 131 458 451 740 720
0 0 0 0 0 0 0 0 0 0 0 0 0 0 0 0 0 0 0 0 0 0 0 0 27 64 475 1468 750 441 756 1077 936 598 358 281 230 159 578 1195 761 485 292 44 443 918 670 378 1363
0 0 0 0 0 0 0 0 0 0 0 0 0 0 0 0 0 0 0 0 0 0 0 0 0 2 34 53 794 1219 996 591 331 669 1443 672 495 465 559 497 603 333 207 357 251 1289 1100 1095 877
0 0 0 0 0 0 0 0 0 0 0 0 0 0 0 0 0 0 0 0 0 0 0 0 0 0 0 70 86 137 534 679 306 315 398 1087 460 1327 718 757 812 582 608 644 937 1191 1824 1987 2123
0 0 0 0 0 0 0 0 0 0 0 0 0 0 0 0 0 0 0 0 0 0 0 0 0 0 0 0 0 38 27 218 640 598 141 59 102 11 1 864 1000 661 291 177 1294 1819 2075 2720 2738
0 0 0 3 3 0 0 0 0 0 0 0 0 0 0 0 0 0 0 0 0 0 0 0 0 0 0 0 0 0 35 11 38 211 410 640 181 76 12 132 56 0 1 0 0 7 210 3608 2905
1 0 0 0 4 5 0 0 0 7 0 0 0 0 0 0 0 0 0 0 0 0 0 0 0 0 0 0 0 0 0 0 25 9 0 83 689 654 295 148 68 2 0 0 6 227 2004 3146 3126
0 0 0 0 0 0 0 0 0 0 0 0 0 0 0 0 0 0 0 0 0 0 0 0 0 0 0 0 0 0 1 3 0 25 9 18 479 430 445 535 146 90 126 1240 1640 2113 2879 3242 3029
19 2 3 5 1 0 0 0 0 0 0 0 0 0 0 0 0 0 1 0 0 0 0 0 0 0 0 0 0 0 0 0 3 16 16 7 11 70 453 362 557 1884 2076 2631 3198 3429 3317 3235 2929
92 6 22 16 5 2 3 0 1 9 0 0 0 0 0 0 0 0 0 1 3 0 0 0 0 0 0 0 0 0 0 0 0 0 6 5 80 329 389 48 1033 1418 2933 3307 2984 3409 3310 3022 2766
4 43 61 44 0 2 5 0 0 0 0 0 0 0 1 0 0 0 0 0 0 0 0 0 0 0 0 0 0 0 0 0 0 0 0 31 40 342 527 877 729 1423 1099 2799 3005 3325 3226 3047 2545

GFSSGP_con_mlcape_063.txt.gz
CAPE
0 0 0 0 0 0 0 0 0 0 0 0 0 31 15 9 86 42 62 199 0 34 563 1555 1179 949 902 728 317 74 59 57 27 84 96 133 219 185 118 55 25 0 0 0 0 0 0 0 0
0 0 0 0 0 0 0 0 0 0 0 0 0 0 11 24 108 65 437 167 0 1 292 1363 1435 1099 901 713 334 152 95 113 121 127 97 235 276 191 43 0 0 0 0 0 0 0 0 0 0
0 0 0 0 0 0 0 0 0 0 0 0 0 0 0 0 0 0 529 354 18 5 174 988 1563 1129 841 686 387 233 181 183 215 185 191 301 199 100 0 0 0 0 0 0 0 0 0 0 0
0 0 0 0 0 0 0 0 0 0 0 0 0 0 0 0 0 0 481 595 295 6 109 807 1512 1306 820 672 395 414 355 272 341 315 291 334 129 58 4 0 0 0 0 0 0 0 0 0 0
0 0 0 0 0 0 0 0 0 0 0 0 0 0 0 0 0 11 51 846 591 73 198 529 1194 1419 995 724 615 577 644 409 477 478 421 445 157 67 22 0 0 0 0 0 0 0 0 0 0
0 0 0 0 0 0 0 0 0 0 0 0 0 0 0 0 0 21 137 195 795 427 404 291 1065 1370 1270 858 836 825 890 660 653 647 566 558 273 110 39 0 0 0 0 0 0 0 0 0 0
0 0 0 0 0 0 0 0 0 0 0 0 0 0 0 0 0 0 61 134 686 884 656 160 792 1236 1427 1102 946 1015 1010 995 857 855 733 624 440 215 48 0 0 0 0 0 0 0 0 0 0
0 0 0 0 0 0 0 0 0 0 0 0 0 0 0 0 0 0 0 0 415 1107 915 262 325 1151 1303 1522 1156 1110 1118 1192 1152 1045 889 685 522 276 76 0 0 0 0 0 0 0 0 0 0
0 0 0 0 0 0 0 0 0 0 0 0 0 0 0 0 0 0 0 0 423 1141 868 556 231 783 1054 1443 1528 1212 1191 1179 1155 1162 944 711 385 234 86 0 0 0 0 0 0 0 0 0 0
0 0 0 0 0 0 0 0 0 0 0 0 0 0 0 0 0 0 0 0 97 1113 1016 666 249 330 910 1209 1572 1309 1240 1151 1076 1009 869 556 263 115 43 0 0 0 0 0 0 0 0 0 0
0 0 0 0 0 0 0 0 0 0 0 0 0 0 0 0 0 0 0 0 0 0 378 664 352 169 436 1116 899 1191 1131 977 929 797 541 373 176 112 52 0 0 0 0 0 0 0 0 0 0
0 0 0 0 0 0 0 0 0 0 18 0 0 0 0 0 0 0 0 0 0 10 158 549 644 160 209 824 664 658 869 772 645 590 387 200 66 11 85 14 0 0 0 0 0 0 0 0 0
0 0 0 0 0 0 0 0 0 0 0 17 1 0 0 0 0 0 0 0 0 7 148 532 698 431 213 682 495 325 284 440 376 333 409 168 41 1 107 124 20 6 0 22 14 0 0 2 16
0 0 0 0 0 0 0 0 0 0 0 1 0 0 0 0 0 0 0 0 0 0 290 565 808 712 515 722 688 312 297 217 291 265 336 437 91 19 79 328 233 129 165 202 91 26 9 40 56
0 0 0 0 0 0 0 0 0 0 0 0 0 0 0 0 0 0 0 0 0 0 141 1009 1115 1033 729 1410 1557 1301 345 452 353 381 379 386 613 135 289 365 282 589 747 497 315 196 183 176 267
0 0 0 0 0 0 0 0 0 0 0 0 0 0 0 0 0 0 0 0 2 0 17 263 1313 1457 929 979 1077 1178 1282 954 407 450 561 539 432 748 334 476 866 540 394 420 373 341 332 235 203
0 0 0 0 0 0 0 0 0 0 0 0 0 0 0 0 0 0 0 0 2 3 0 2 407 1592 1291 1113 857 887 971 1159 1213 675 976 848 673 666 1139 1093 898 842 624 488 478 439 361 216 122
0 0 0 0 0 0 0 0 0 0 0 0 0 0 0 0 0 0 0 0 0 0 0 0 460 1468 1680 1350 681 432 1164 1003 1053 1009 1095 1668 1292 912 988 1092 1028 948 750 703 449 313 333 387 294
0 0 0 0 0 0 0 0 0 0 0 0 0 0 0 0 0 0 0 0 0 0 0 0 0 712 2080 1651 996 880 723 967 975 848 789 775 1170 1798 1212 975 957 1018 807 551 433 283 257 193 377
0 0 0 0 0 0 0 0 0 0 0 0 0 0 0 0 0 0 0 0 0 0 0 0 0 89 1158 1773 1537 1032 836 827 661 773 681 655 494 574 1429 1272 972 940 846 570 420 260 129 241 277
0 0 0 0 0 0 0 0 0 0 0 0 0 0 0 0 0 0 0 0 0 0 0 1 31 53 201 1317 1397 1090 1195 794 674 559 479 210 297 272 352 972 1244 960 650 437 184 150 23 21 440
0 0 0 0 0 0 0 0 0 0 0 0 0 0 0 0 0 0 0 0 0 0 0 0 2 28 101 101 1167 1264 768 818 688 839 801 695 564 372 398 609 891 724 679 425 187 256 197 497 410
0 0 0 0 0 0 0 0 0 0 0 0 0 0 0 0 0 0 0 0 0 0 0 0 0 0 0 7 114 778 1219 753 895 853 874 775 633 508 499 464 600 654 488 273 312 226 332 980 1116
0 0 0 0 0 0 0 0 0 0 0 0 0 0 0 0 0 0 0 0 0 0 0 0 0 0 0 0 0 68 180 408 794 837 602 489 635 669 747 854 721 571 498 557 539 552 1033 845 455
0 0 0 0 0 0 0 0 0 0 0 0 0 0 0 0 0 0 0 0 0 0 0 0 0 0 0 0 0 0 6 53 93 130 348 388 357 336 208 173 523 342 456 733 539 205 444 0 0
3 11 0 0 0 0 0 1 0 6 0 0 0 0 0 0 0 0 0 0 0 0 0 0 0 0 0 0 0 0 0 0 0 2 0 3 60 88 173 202 60 146 77 36 11 1 2 0 0
22 3 1 0 0 0 0 0 0 0 0 0 0 0 0 0 0 0 0 0 0 0 0 0 0 0 0 0 0 0 0 0 0 0 0 16 15 165 535 363 398 226 33 34 6 1 0 11 12
65 72 40 0 0 0 0 0 0 0 0 0 0 0 0 0 0 0 0 0 0 0 0 0 0 0 0 0 0 0 0 0 0 0 0 0 0 1 0 68 266 342 352 399 138 88 108 101 31
11 22 18 1 0 0 0 0 5 6 0 0 0 0 0 0 0 0 0 0 0 0 0 0 0 0 0 0 0 0 0 0 0 0 0 0 0 2 1 1 67 88 148 564 830 437 298 649 869
21 1 0 0 0 0 0 0 0 0 0 0 0 0 0 0 0 0 0 0 0 0 0 0 0 0 0 0 0 0 0 0 0 0 0 0 0 0 28 77 251 464 512 1029 1046 1045 1377 2041 2342

GFSSGP_con_mlcape_066.txt.gz
CAPE
0 0 0 0 0 0 0 0 0 0 0 0 4 6 41 5 8 9 49 79 222 344 1237 1378 1231 741 274 23 1 0 0 0 0 0 0 10 26 34 61 79 54 0 0 0 0 0 0 0 0
0 0 0 0 0 0 0 0 0 0 0 0 0 29 89 124 106 127 373 233 6 261 1115 1147 1251 917 370 89 31 9 7 2 0 0 18 30 33 29 3 0 0 0 0 0 0 0 0 0 0
0 0 0 0 0 0 0 0 0 0 0 0 0 0 0 12 60 281 171 131 45 430 729 985 1171 1003 574 175 67 90 74 17 15 46 41 93 64 3 0 0 0 0 0 0 0 0 0 0 0
0 0 0 0 0 0 0 0 0 0 0 0 0 0 0 0 5 268 74 0 0 202 735 1058 1215 1135 715 247 141 111 116 131 119 129 90 85 46 2 0 0 0 0 0 0 0 0 0 0 0
0 0 0 0 0 0 0 0 0 0 0 0 0 0 0 0 68 304 194 22 0 54 633 1050 1231 1239 912 421 236 167 227 310 283 233 118 68 44 7 1 0 0 0 0 0 0 0 0 0 0
0 0 0 0 0 0 0 0 0 0 0 0 0 0 0 0 27 395 421 18 2 15 406 903 1168 1230 1031 628 462 327 306 482 413 371 296 106 62 37 10 0 0 0 0 0 0 0 0 0 0
0 0 0 0 0 0 0 0 0 0 0 0 0 0 0 0 0 5 569 426 42 298 275 739 1097 1175 1120 823 637 510 391 453 573 458 441 207 97 75 38 0 0 0 0 0 0 0 0 0 0
0 0 0 0 0 0 0 0 0 0 0 0 0 0 0 0 0 0 0 599 296 300 301 599 842 1173 1158 1039 812 725 528 519 584 598 480 363 206 112 60 0 0 0 0 0 0 0 0 0 0
0 0 0 0 0 0 0 0 0 0 0 0 0 0 0 0 0 0 0 429 905 835 579 898 835 923 1181 1179 1152 993 859 672 721 677 591 485 304 182 80 0 0 0 0 0 0 0 0 0 0
0 0 0 0 0 0 0 0 0 0 0 0 0 0 0 0 0 0 29 490 1004 1011 633 717 1117 905 901 1265 1472 1304 1250 1073 977 862 654 390 225 150 75 2 0 0 0 0 0 0 0 0 0
0 0 0 0 0 0 0 0 0 0 0 0 0 0 0 0 0 0 42 375 719 943 900 459 799 1105 941 1131 1273 1329 1462 1246 1096 856 582 323 196 151 81 0 0 0 0 0 0 0 0 0 0
0 0 0 0 0 0 0 0 0 0 0 0 0 0 0 0 0 0 0 202 489 1047 998 831 485 686 853 1007 1041 1137 1116 1006 939 909 609 308 111 49 5 0 0 0 0 0 0 0 0 0 0
0 0 0 0 0 0 0 0 0 0 0 0 0 0 0 0 0 0 0 0 31 154 625 1098 792 422 660 693 575 716 754 846 837 777 664 370 66 0 0 0 0 0 0 0 0 0 0 0 0
0 0 0 0 0 0 0 0 0 0 0 0 2 0 0 0 0 0 0 0 0 44 269 755 973 462 508 806 517 317 518 617 633 605 611 395 126 5 0 0 14 3 0 0 0 33 49 14 0
0 0 0 0 0 0 0 0 0 0 0 0 0 0 0 0 0 0 0 0 0 0 319 650 898 612 359 693 588 446 297 298 292 311 377 400 199 29 1 1 78 81 81 74 117 223 156 119 69
0 0 0 0 0 0 0 0 0 0 0 0 0 0 0 0 0 0 0 0 0 1 241 655 962 781 613 678 713 489 371 274 181 171 217 302 264 111 14 12 38 275 424 546 560 460 359 314 272
0 0 0 0 0 0 0 0 0 0 0 0 0 0 0 0 0 0 0 0 0 15 474 950 1416 1138 956 1114 1224 1048 640 475 377 316 265 271 280 311 106 34 185 485 446 389 464 356 357 321 264
0 0 0 0 0 0 0 0 0 0 0 0 0 0 0 0 0 0 0 0 0 33 115 825 1505 1657 1260 1484 1447 1300 1150 799 581 452 486 498 507 446 535 528 369 352 704 786 607 412 421 351 276
0 0 0 0 0 0 0 0 0 0 0 0 0 0 0 0 0 0 0 0 0 0 0 66 393 1257 1884 1607 1400 1256 1209 1203 1092 836 737 776 937 858 764 909 1073 1009 931 834 670 435 361 315 241
0 0 0 0 0 0 0 0 0 0 0 0 0 0 0 0 0 0 0 0 0 0 0 0 25 468 1227 1920 1626 1071 867 951 1144 968 816 1103 1339 1339 1125 996 1006 1050 1085 891 722 510 296 317 255
0 0 0 0 0 0 0 0 0 0 0 0 0 0 0 0 0 0 0 0 0 0 0 0 0 0 808 1650 1657 1415 1215 1154 979 876 841 691 618 1125 1316 1348 1330 964 924 827 637 516 361 301 221
0 0 0 0 0 0 0 0 0 0 0 0 0 0 0 0 0 0 0 0 0 0 0 0 0 0 0 62 980 1402 1263 1131 952 836 674 689 664 618 470 507 618 446 865 875 665 558 455 236 77
0 0 0 0 0 0 0 0 0 0 0 0 0 0 0 0 0 0 0 0 0 0 0 0 0 0 0 0 0 127 1178 1227 808 790 999 790 593 422 265 420 765 781 691 616 581 665 423 298 241
0 0 0 0 0 0 0 0 0 0 0 0 0 0 0 0 0 0 0 0 0 0 0 0 0 0 0 0 0 37 90 293 657 1094 937 923 896 678 697 595 484 478 442 390 511 672 374 288 333
18 0 0 0 0 0 0 0 0 0 0 0 0 0 0 0 0 0 0 0 0 0 0 0 0 0 0 0 0 0 0 77 149 282 612 809 756 747 784 637 615 740 667 706 690 610 402 444 565
4 8 0 0 0 0 0 0 0 0 0 0 0 0 0 0 0 0 0 0 0 0 0 0 0 0 0 0 0 0 0 0 0 5 6 6 98 331 493 451 516 754 845 848 729 701 595 443 193
0 0 5 0 0 0 0 0 0 0 0 0 0 0 0 0 0 0 0 0 0 0 0 0 0 0 0 0 0 0 0 0 0 0 0 0 0 36 231 289 224 197 274 375 307 171 127 146 4
6 1 0 0 0 0 0 0 0 0 0 0 0 0 0 0 0 0 0 0 0 0 0 0 0 0 0 0 0 0 0 0 0 0 0 0 0 0 0 7 69 121 394 371 145 35 26 13 19
0 0 1 0 0 1 0 0 3 2 0 0 0 0 0 0 0 0 0 0 0 0 0 0 0 0 0 0 0 0 0 0 0 0 0 0 0 0 0 1 8 44 89 274 310 259 319 269 154
0 0 0 0 2 0 0 0 0 10 2 3 0 0 0 0 0 0 0 0 0 0 0 0 0 0 0 0 0 0 0 0 0 0 0 0 0 0 0 0 0 1 163 241 460 456 373 263 430

GFSSGP_con_mlcape_069.txt.gz
CAPE
0 0 0 0 0 0 0 0 0 0 0 0 9 10 22 13 1 0 36 51 27 366 1001 1109 722 309 31 12 15 22 73 142 167 166 162 169 158 195 227 190 112 52 0 0 0 0 0 0 0
0 0 0 0 0 0 0 0 0 0 0 0 0 32 36 19 85 127 120 318 311 508 1126 1079 728 362 102 14 0 0 10 10 39 92 114 117 90 78 29 1 0 0 0 0 0 0 0 0 0
0 0 0 0 0 0 0 0 0 0 0 0 0 0 2 7 69 226 221 585 578 711 1091 1173 783 478 199 19 4 0 6 12 26 60 65 51 30 1 0 0 0 0 0 0 0 0 0 0 0
0 0 0 0 0 0 0 0 0 0 0 0 0 0 0 0 5 202 291 440 306 738 1025 1358 868 535 308 116 43 0 5 28 25 56 73 47 0 0 0 0 0 0 0 0 0 0 0 0 0
0 0 0 0 0 0 0 0 0 0 0 0 0 0 0 0 108 256 167 163 49 439 971 1355 934 574 357 237 150 84 79 58 54 91 89 53 6 0 0 0 0 0 0 0 0 0 0 0 0
0 0 0 0 0 0 0 0 0 0 0 0 0 0 0 0 262 253 27 17 114 325 1019 1176 1113 689 380 356 304 260 170 82 176 92 97 88 27 22 21 4 0 0 0 0 0 0 0 0 0
0 0 0 0 0 0 0 0 0 0 0 0 0 0 0 0 105 316 72 35 133 447 858 1201 1307 988 536 418 423 367 270 198 136 193 103 92 52 45 24 3 0 0 0 0 0 0 0 0 0
0 0 0 0 0 0 0 0 0 0 0 0 0 0 0 0 0 317 266 23 117 565 730 980 1153 1196 758 539 494 464 422 340 187 138 130 111 95 75 26 0 0 0 0 0 0 0 0 0 0
0 0 0 0 0 0 0 0 0 0 0 0 0 0 0 0 0 39 376 114 238 455 870 1128 1160 1125 817 701 655 533 557 579 406 300 164 144 131 103 63 0 0 0 0 0 0 0 0 0 0
0 0 0 0 0 0 0 0 0 0 0 0 0 0 0 0 0 0 164 335 366 241 501 880 1112 1105 1007 828 844 680 658 749 684 568 455 211 104 89 68 12 0 0 0 0 0 0 0 0 0
0 0 0 0 0 0 0 0 0 0 0 0 0 0 0 0 0 12 179 341 553 559 365 829 1077 1022 944 1012 1002 802 890 820 806 697 541 274 169 109 93 21 1 0 0 0 0 0 0 0 0
0 0 0 0 0 0 0 0 0 0 0 0 0 0 0 0 0 28 252 502 813 897 608 730 920 887 1023 987 1043 1003 1028 847 839 806 621 246 114 66 15 0 0 0 0 0 0 0 0 0 0
0 0 0 0 0 0 0 0 0 0 0 0 0 0 0 0 0 2 125 363 751 956 936 758 952 858 1009 1044 934 951 1052 1065 980 849 693 456 159 24 7 0 0 0 0 0 0 0 0 0 0
0 0 0 0 0 0 0 0 0 0 0 0 0 0 0 0 0 0 1 87 382 805 1040 1023 761 756 766 920 814 884 1128 1173 898 732 722 561 270 55 10 0 0 0 0 0 0 0 4 26 15
0 0 0 0 0 0 0 0 0 0 0 0 0 0 0 0 0 0 0 0 3 206 716 1089 1036 850 618 657 740 759 827 837 790 804 802 705 402 109 13 0 0 0 3 2 13 33 75 133 80
0 0 0 0 0 0 0 0 0 0 0 0 0 0 0 0 0 0 0 0 0 0 283 723 1110 1024 726 988 787 629 621 643 638 748 697 589 494 264 117 9 5 11 48 75 158 209 468 380 286
0 0 0 0 0 0 0 0 0 0 0 0 0 0 0 0 0 0 0 0 0 0 52 502 921 968 844 895 829 685 551 535 627 639 591 548 469 199 130 46 18 12 44 199 379 464 394 358 259
0 0 0 0 0 0 0 0 0 0 0 0 0 0 0 0 0 0 0 0 0 0 176 492 812 1025 979 867 921 857 575 503 293 316 381 484 520 233 92 35 10 56 172 305 429 524 448 406 392
0 0 0 0 0 0 0 0 0 0 0 0 0 0 0 0 0 0 0 0 0 0 261 816 975 1202 1122 1096 1028 975 1062 691 512 137 231 502 529 477 349 114 150 153 155 258 520 666 601 452 348
0 0 0 0 0 0 0 0 0 0 0 0 0 0 0 0 0 0 0 0 0 0 420 1032 1437 1737 1439 1361 1364 1333 1339 1156 715 523 600 504 718 646 481 547 636 597 710 809 905 791 670 462 311
0 0 0 0 0 0 0 0 0 0 0 0 0 0 0 0 0 0 0 0 0 11 57 323 915 1313 1846 1802 1543 1465 1229 1021 1128 970 933 955 1004 828 796 786 822 848 1022 1103 1109 961 616 353 275
0 0 0 0 0 0 0 0 0 0 0 0 0 0 0 0 0 0 0 0 0 0 0 0 4 164 768 1384 1773 1644 1405 1261 1120 947 818 940 825 837 1319 1127 1035 926 974 1058 725 808 675 464 359
0 0 0 0 0 0 0 0 0 0 0 0 0 0 0 0 0 0 0 0 0 0 0 0 0 0 0 29 551 990 1234 1217 948 839 901 775 730 795 743 873 1208 1165 1176 637 191 154 632 513 483
0 0 0 0 0 0 0 0 0 0 0 0 0 0 0 0 0 0 0 0 0 0 0 0 0 0 0 0 0 0 0 81 624 872 982 778 772 736 597 591 585 842 1011 790 504 221 18 50 459
0 0 0 0 0 0 0 0 0 0 0 0 0 0 0 0 0 0 0 0 0 0 0 0 0 0 0 0 0 0 0 0 0 29 213 436 604 661 740 711 703 844 792 813 699 595 549 458 315
0 3 1 0 0 0 0 0 0 0 0 0 0 0 0 0 0 0 0 0 0 0 0 0 0 0 0 0 0 0 0 0 0 0 1 6 16 119 310 462 494 549 785 974 888 675 556 578 417
2 0 1 11 0 0 0 0 0 0 0 0 0 0 0 0 0 0 0 0 0 0 0 0 0 0 0 0 0 0 0 0 0 0 0 0 0 0 0 39 175 237 282 381 572 701 724 682 599
26 2 14 3 14 0 0 0 0 0 0 0 0 0 0 0 0 0 0 0 0 0 0 0 0 0 0 0 0 0 0 0 0 0 0 0 0 0 0 0 0 0 9 57 281 398 402 325 317
0 9 6 4 5 2 0 0 0 0 0 0 0 0 0 0 0 0 0 0 0 0 0 0 0 0 0 0 0 0 0 0 0 0 0 0 0 0 0 0 0 0 0 15 59 95 193 122 121
0 4 6 1 0 0 0 0 0 0 0 0 0 0 0 0 0 0 0 0 0 0 0 0 0 0 0 0 0 0 0 0 0 0 0 0 0 0 0 0 0 0 0 0 0 108 148 143 275

GFSSGP_con_mlcape_072.txt.gz
CAPE
0 0 0 0 0 0 0 0 0 0 0 0 0 0 11 4 0 0 22 84 27 139 878 1058 762 574 356 202 245 451 675 736 662 517 529 458 243 222 217 190 255 198 14 0 0 0 0 0 0
0 0 0 0 0 0 0 0 0 0 0 0 0 9 5 43 86 84 55 284 248 406 998 990 740 569 403 159 95 241 389 525 580 529 465 284 230 222 218 223 108 2 0 0 0 0 0 0 0
0 0 0 0 0 0 0 0 0 0 0 0 0 0 0 6 112 166 119 418 348 602 1004 970 716 486 377 230 91 91 235 353 378 371 287 204 249 276 192 31 0 0 0 0 0 0 0 0 0
0 0 0 0 0 0 0 0 0 0 0 0 0 0 0 0 0 165 509 499 327 598 850 1139 713 414 351 220 79 56 77 112 172 165 185 211 199 80 14 0 0 0 0 0 0 0 0 0 0
0 0 0 0 0 0 0 0 0 0 0 0 0 0 0 0 154 343 595 623 116 596 963 1329 772 370 252 248 161 75 109 129 158 181 200 180 76 24 0 0 0 0 0 0 0 0 0 0 0
0 0 0 0 0 0 0 0 0 0 0 0 0 0 0 0 279 308 601 538 494 333 926 1218 970 478 188 196 192 135 103 121 122 194 161 102 30 1 0 0 0 0 0 0 0 0 0 0 0
0 0 0 0 0 0 0 0 0 0 0 0 0 0 0 0 236 268 255 376 520 698 1116 1144 1075 609 330 227 188 189 152 105 90 118 147 61 0 0 2 0 0 0 0 0 0 0 0 0 0
0 0 0 0 0 0 0 0 0 0 0 0 0 0 0 0 43 185 113 180 325 725 1016 1155 1136 842 513 440 274 229 213 153 88 115 120 26 13 22 12 4 0 0 0 0 0 0 0 0 0
0 0 0 0 0 0 0 0 0 0 0 0 0 0 0 0 37 266 92 66 178 515 828 1068 1116 1033 560 457 481 340 300 241 201 152 138 54 19 39 27 7 0 0 0 0 0 0 0 0 0
0 0 0 0 0 0 0 0 0 0 0 0 0 0 0 0 0 305 205 188 78 129 470 853 1045 1051 753 514 509 457 472 500 419 358 197 96 36 38 32 24 3 0 0 0 0 0 0 0 0
0 0 0 0 0 0 0 0 0 0 0 0 0 0 0 0 0 149 346 229 180 270 496 652 964 1026 936 516 556 515 539 576 494 446 273 130 97 100 71 24 1 0 0 0 0 0 0 0 0
0 0 0 0 0 0 0 0 0 0 0 0 0 0 0 0 0 0 81 312 305 305 381 824 912 1119 1114 818 594 503 516 547 502 596 492 209 94 65 38 8 0 0 0 0 0 0 0 0 0
0 0 0 0 0 0 0 0 0 0 0 0 0 0 0 0 0 12 35 258 599 639 558 797 1057 1114 1062 935 814 668 588 574 622 595 636 444 165 59 60 9 0 0 0 0 0 0 0 0 0
0 0 0 0 0 0 0 0 0 0 0 0 0 0 0 0 0 0 92 341 625 762 838 1028 994 1071 1158 1017 940 769 760 761 654 686 696 596 299 123 59 63 10 10 0 0 0 0 0 0 17
0 0 0 0 0 0 0 0 0 0 0 0 0 0 0 0 0 0 23 226 343 540 893 1095 1041 983 893 948 922 825 757 827 829 836 828 666 527 246 139 22 14 8 4 1 3 4 8 43 122
0 0 0 0 0 0 0 0 0 0 0 0 0 0 0 0 0 0 0 46 225 454 631 921 1229 1042 998 991 1058 938 478 1002 999 1043 862 818 708 543 283 128 87 42 5 18 39 104 172 320 337
0 0 0 0 0 0 0 0 0 0 0 0 0 0 0 0 0 0 0 0 22 182 457 634 1161 1234 1064 1104 1150 1084 952 967 1043 944 873 910 944 752 494 320 126 90 47 32 135 275 398 353 407
0 0 0 0 0 0 0 0 0 0 0 0 0 0 0 0 0 0 0 0 0 12 340 562 895 1170 1223 1167 1154 965 881 911 886 835 807 779 773 794 596 453 291 113 62 15 103 256 380 446 512
0 0 0 0 0 0 0 0 0 0 0 0 0 0 0 0 0 0 0 0 0 0 0 264 611 1002 1148 1118 1131 996 776 715 667 736 720 683 737 665 528 470 334 167 40 62 93 328 528 593 446
0 0 0 0 0 0 0 0 0 0 0 0 0 0 0 0 0 0 0 0 0 0 0 28 400 894 1087 1125 1235 1167 995 772 654 688 608 602 584 530 479 338 197 187 115 124 171 375 629 574 448
0 0 0 0 0 0 0 0 0 0 0 0 0 0 0 0 0 0 0 0 0 0 0 1 359 895 1100 1308 1295 1176 1184 1076 990 896 868 630 539 639 724 677 544 413 322 210 342 664 811 883 460
0 0 0 0 0 0 0 0 0 0 0 0 0 0 0 0 0 0 0 0 0 0 0 58 666 1286 1392 1477 1521 1424 1406 1392 1310 1188 1020 828 740 815 932 792 751 776 824 787 915 1079 832 593 398
0 0 0 0 0 0 0 0 0 0 0 0 0 0 0 0 0 0 0 0 0 0 2 291 1163 1632 1882 1900 1749 1649 1649 1225 1151 1231 1202 1152 1049 1052 1076 1128 1069 853 581 484 760 664 120 211 201
0 0 0 0 0 0 0 0 0 0 0 0 0 0 0 0 0 0 0 0 0 0 0 147 614 1050 1257 1602 1746 1830 1772 1529 1201 1173 1117 1013 908 911 927 911 573 710 554 369 270 450 374 221 169
0 0 0 0 0 0 0 0 0 0 0 0 0 0 0 0 0 0 0 0 0 0 0 41 53 139 293 389 430 380 207 262 423 617 849 1026 906 790 791 710 641 574 604 630 353 595 663 596 448
0 0 0 0 0 0 0 0 0 0 0 0 0 0 0 0 0 0 0 0 0 0 0 44 9 0 0 4 0 5 0 0 0 0 29 359 591 714 700 648 602 575 657 717 793 681 676 675 571
0 0 0 14 1 6 0 0 0 0 0 0 0 0 0 0 0 0 0 0 0 0 0 18 44 3 0 0 0 0 0 0 0 0 0 0 0 0 5 14 18 88 173 303 413 451 495 531 608
0 0 5 27 8 0 0 0 0 0 0 0 0 0 0 0 0 0 0 0 0 0 0 0 4 0 0 0 0 0 0 0 0 0 0 0 0 0 0 0 4 1 0 9 61 99 202 318 370
0 0 2 2 6 15 2 0 0 0 0 0 0 0 0 0 0 0 0 0 0 0 0 0 0 0 0 0 0 0 0 0 0 0 0 0 0 0 0 0 0 0 0 0 0 0 42 91 115
0 0 0 0 0 0 0 0 0 0 0 0 0 0 0 0 0 0 0 0 0 0 0 0 0 0 0 0 0 0 0 0 0 0 0 0 0 0 0 0 0 0 0 0 0 0 0 0 0

GFSSGP_con_mlcape_075.txt.gz
CAPE
0 0 0 0 0 0 0 0 0 0 0 0 0 0 0 0 0 0 128 221 193 772 1409 1116 691 769 1222 1358 1283 1198 864 605 392 124 127 133 123 132 194 271 237 197 108 0 0 0 0 0 0
0 0 0 0 0 0 0 0 0 0 0 0 0 0 4 27 75 167 247 241 465 1184 1337 1171 701 594 986 1180 1110 941 809 657 390 300 405 272 173 216 233 186 148 116 0 0 0 0 0 0 0
0 0 0 0 0 0 0 0 0 0 0 0 0 0 0 3 124 268 210 298 646 1256 1396 1214 638 529 636 889 882 798 776 680 517 603 524 351 224 229 170 151 130 21 0 0 0 0 0 0 0
0 0 0 0 0 0 0 0 0 0 0 0 0 0 0 0 0 272 459 558 547 1102 1158 1203 613 482 415 572 713 790 770 670 612 639 539 333 264 175 145 117 28 0 0 0 0 0 0 0 0
0 0 0 0 0 0 0 0 0 0 0 0 0 0 0 3 459 675 704 649 496 997 1039 1162 801 617 400 300 453 528 581 619 647 614 457 302 188 164 127 31 0 0 0 0 0 0 0 0 0
0 0 0 0 0 0 0 0 0 0 0 0 0 0 0 23 639 802 944 734 582 966 1115 1231 848 568 462 317 287 382 395 478 533 478 384 259 189 102 36 0 0 0 0 0 0 0 0 0 0
0 0 0 0 0 0 0 0 0 0 0 0 0 0 0 0 149 1010 1064 856 699 953 1240 1227 883 691 490 436 284 217 231 276 378 317 291 217 131 23 0 0 0 0 0 0 0 0 0 0 0
0 0 0 0 0 0 0 0 0 0 0 0 0 0 0 0 9 529 962 863 636 914 1161 1144 945 711 562 566 373 230 189 321 421 414 318 150 50 9 0 0 0 0 0 0 0 0 0 0 0
0 0 0 0 0 0 0 0 0 0 0 0 0 0 0 0 100 342 461 697 550 694 1172 1153 1017 859 578 472 544 276 221 246 421 477 377 155 33 10 31 16 19 0 0 0 0 0 0 0 0
0 0 0 0 0 0 0 0 0 0 0 0 0 0 0 0 88 258 321 263 229 308 929 1178 1172 949 704 546 595 442 384 321 337 470 602 297 180 126 70 57 17 17 0 0 0 0 0 0 0
0 0 0 0 0 0 0 0 0 0 0 0 0 0 0 0 0 57 356 281 289 518 841 1078 1293 1172 832 585 765 694 653 610 606 546 599 498 335 271 120 93 78 112 20 0 0 0 0 0 0
0 0 0 0 0 0 0 0 0 0 0 0 0 0 0 0 0 0 188 424 417 481 645 1050 1217 1336 1100 832 747 677 623 722 544 557 510 400 279 269 236 125 128 173 65 10 0 0 0 0 1
0 0 0 0 0 0 0 0 0 0 0 0 0 0 0 0 0 0 0 434 702 571 563 982 1208 1311 1239 1147 864 760 728 717 649 645 705 514 305 259 303 236 185 112 89 24 0 0 0 0 60
0 0 0 0 0 0 0 0 0 0 0 0 0 0 0 0 0 0 0 23 686 802 801 952 1075 1348 1108 1363 1167 963 908 883 873 822 793 582 494 323 265 292 198 105 34 17 0 0 18 64 132
0 0 0 0 0 0 0 0 0 0 0 0 0 0 0 0 0 0 0 24 489 708 1134 1133 1254 1438 1132 1543 1487 1222 1048 953 920 914 1022 807 580 502 318 190 133 128 58 24 6 18 123 187 293
0 0 0 0 0 0 0 0 0 0 0 0 0 0 0 0 0 0 0 8 575 1276 1180 1366 1557 1522 1584 1430 1673 1501 1188 1130 1094 1013 1051 1061 972 807 500 334 218 199 131 65 69 137 223 358 587
0 0 0 0 0 0 0 0 0 0 0 0 0 0 0 0 0 0 0 0 181 917 1237 1229 1644 1671 1651 1620 1671 1587 1533 1360 1112 792 461 597 1282 1103 723 590 485 361 207 90 69 117 274 483 597
0 0 0 0 0 0 0 0 0 0 0 0 0 0 0 0 0 0 0 0 0 82 902 1291 1550 1811 1931 1782 1811 1739 1647 1543 1095 532 293 591 1432 1342 947 914 705 541 260 191 68 173 442 445 483
0 0 0 0 0 0 0 0 0 0 0 0 0 0 0 0 0 0 0 0 0 0 0 829 1204 1483 1827 1637 1550 1338 1184 1466 1400 1255 1087 1248 1275 1503 1439 1295 1033 808 549 281 148 210 79 459 615
0 0 0 0 0 0 0 0 0 0 0 0 0 0 0 0 0 0 0 0 0 0 0 0 523 1369 1567 1639 1701 1552 1395 1318 1378 1414 1379 1400 1246 1242 1037 1210 1101 841 675 448 236 198 552 726 792
0 0 0 0 0 0 0 0 0 0 0 0 0 0 0 0 0 0 0 0 0 0 0 0 9 807 1472 1811 1884 1704 1661 1352 1265 1280 1232 1169 1145 1150 1074 973 1009 893 644 507 315 211 382 666 763
0 0 0 0 0 0 0 0 0 0 0 0 0 0 0 0 0 0 0 0 0 0 0 0 3 484 1334 1778 1731 1707 1543 1514 1502 1421 1274 1157 1057 992 928 920 917 1066 1040 757 576 426 423 712 1108
0 0 0 0 0 0 0 0 0 0 0 0 0 0 0 0 0 0 0 0 0 0 0 0 24 516 1402 1760 1805 1906 1949 2112 1946 1746 1560 1425 1455 1259 1005 1045 1143 1206 1347 1316 1099 966 908 741 460
0 0 0 0 0 0 0 0 0 0 0 0 0 0 0 0 0 0 0 0 0 0 0 0 274 652 1606 1810 2015 2039 2020 2079 1998 1998 1856 1948 1857 1648 1546 1702 1726 1508 1558 1373 973 339 124 71 57
0 0 0 0 0 0 0 0 0 0 0 0 0 0 0 0 0 0 0 0 0 0 0 0 168 1043 1986 2318 2371 2364 2404 2250 2197 2161 2092 1947 1702 1601 1784 1719 1505 1608 1732 1354 612 470 165 17 20
0 0 0 0 0 0 0 0 0 0 0 0 0 0 0 0 0 0 0 0 0 0 0 0 12 696 1700 2436 2713 2706 2673 2458 2329 2160 1925 1873 1787 1720 1874 1669 1452 1368 1412 1438 1057 509 181 5 0
0 0 0 0 0 0 0 0 0 0 0 0 0 0 0 0 0 0 0 0 0 0 0 0 4 311 983 1657 1843 1688 1528 1158 713 664 763 758 1168 1430 1454 1457 1467 1418 1474 1612 1560 1282 798 536 140
0 0 0 9 0 0 0 0 1 0 0 0 0 0 0 0 0 0 0 0 0 0 0 0 41 295 532 936 954 571 266 204 139 169 138 180 233 151 226 268 328 323 528 694 1048 1035 928 737 798
0 0 2 6 3 1 0 0 24 7 0 0 0 0 0 0 0 0 0 0 0 0 0 0 5 194 338 433 270 85 38 53 29 16 10 0 0 0 0 0 61 38 27 168 237 271 321 281 407
0 0 0 5 1 0 2 0 0 0 2 0 7 0 0 0 0 0 0 0 0 0 0 4 1 81 111 80 29 40 38 0 0 0 0 0 0 0 0 0 0 0 1 113 50 8 29 53 47

GFSSGP_con_mlcape_078.txt.gz
CAPE
0 0 0 0 0 0 0 0 0 0 0 0 0 0 0 0 0 79 597 521 84 277 1166 884 793 955 1106 1075 925 644 443 294 164 143 120 104 118 121 157 359 446 493 287 31 0 0 0 0 0
0 0 0 0 0 0 0 0 0 0 0 0 0 0 0 26 127 522 607 381 236 583 1131 984 775 901 1110 1236 1159 828 635 428 224 126 113 175 123 101 196 396 346 266 26 0 0 0 0 0 0
0 0 0 0 0 0 0 0 0 0 0 0 0 0 0 39 129 630 650 408 376 781 1052 1249 792 898 1086 1342 1402 1124 822 583 364 192 195 243 117 136 233 218 191 56 0 0 0 0 0 0 23
0 0 0 0 0 0 0 0 0 0 0 0 0 0 0 0 31 557 452 301 619 845 944 1489 889 933 1187 1391 1501 1365 980 645 430 318 395 258 198 192 178 180 94 4 0 0 0 0 0 0 0
0 0 0 0 0 0 0 0 0 0 0 0 0 0 2 689 1239 794 252 386 584 696 884 1582 933 882 1102 1416 1480 1288 948 709 456 544 569 375 288 225 201 153 44 0 0 0 0 0 0 0 0
0 0 0 0 0 0 0 0 0 0 0 0 0 0 0 5 641 1113 578 445 440 644 926 1138 867 670 838 1173 1164 1053 996 832 676 746 670 435 302 242 181 84 15 0 0 0 0 0 0 0 0
0 0 0 0 0 0 0 0 0 0 0 0 0 0 0 0 3 1118 919 760 488 578 906 1098 689 636 606 714 958 1017 986 932 815 783 615 387 268 245 138 43 10 0 0 0 0 0 0 0 0
0 0 0 0 0 0 0 0 0 0 0 0 0 0 0 0 0 603 1291 989 546 559 657 991 710 551 415 449 489 663 726 810 787 699 569 350 258 214 66 19 8 0 0 0 0 0 0 0 0
0 0 0 0 0 0 0 0 0 0 0 0 0 0 0 0 0 319 1151 878 585 395 539 804 820 685 408 310 473 448 577 578 559 580 502 329 208 204 88 0 9 0 0 0 0 0 0 0 0
0 0 0 0 0 0 0 0 0 0 0 0 0 0 0 0 0 42 630 902 646 406 460 724 1018 929 632 398 551 365 333 333 333 348 531 354 172 44 0 3 70 19 0 0 0 0 0 0 0
0 0 0 0 0 0 0 0 0 0 0 0 0 0 0 0 0 0 27 569 682 509 481 632 1252 1324 865 497 655 510 443 328 356 349 569 431 207 89 25 46 17 11 4 0 0 0 0 0 0
0 0 0 0 0 0 0 0 0 0 0 0 0 0 0 0 0 0 0 39 563 545 588 787 1225 1649 1389 839 763 697 557 465 364 353 568 537 427 221 94 18 0 6 0 0 0 0 0 1 102
0 0 0 0 0 0 0 0 0 0 0 0 0 0 0 0 0 0 0 0 152 641 806 959 1226 1641 1703 1302 929 962 828 666 488 394 540 518 423 203 137 84 52 46 5 12 0 0 0 113 318
0 0 0 0 0 0 0 0 0 0 0 0 0 0 0 0 0 0 0 0 0 522 1030 1184 1270 1681 1840 1691 1446 1264 1170 890 757 435 471 581 438 363 207 308 247 124 57 0 3 0 0 218 382
0 0 0 0 0 0 0 0 0 0 0 0 0 0 0 0 0 0 0 0 0 168 678 1440 1473 1644 2026 1872 1801 1526 1215 1103 988 657 705 845 640 653 379 329 262 149 151 113 129 83 96 198 438
0 0 0 0 0 0 0 0 0 0 0 0 0 0 0 0 0 0 0 0 0 225 788 1609 1693 1650 2149 2097 2170 1865 1408 1325 1118 964 1061 1215 996 651 590 313 279 323 272 192 100 107 160 497 516
0 0 0 0 0 0 0 0 0 0 0 0 0 0 0 0 0 0 0 0 0 85 1197 1842 2259 2061 2272 2275 1975 1909 1781 1513 1264 1242 1147 1411 1286 928 744 388 281 405 294 172 115 103 309 255 492
0 0 0 0 0 0 0 0 0 0 0 0 0 0 0 0 0 0 0 0 0 0 420 1974 2473 2580 2546 2631 2508 2041 1782 1721 1445 1464 1413 1531 1427 1220 1241 733 842 828 461 202 236 196 230 264 317
0 0 0 0 0 0 0 0 0 0 0 0 0 0 0 0 0 0 0 0 0 0 0 639 2236 2666 2838 2699 2536 2174 1922 1858 1637 1599 1579 1552 1526 1375 1614 997 1185 1230 695 584 689 574 493 375 619
0 0 0 0 0 0 0 0 0 0 0 0 0 0 0 0 0 0 0 0 0 0 0 0 693 2277 2808 2658 2715 2505 2237 2066 1892 1606 1513 1308 1286 1331 1606 1670 1385 1380 1200 1209 1192 888 441 315 575
0 0 0 0 0 0 0 0 0 0 0 0 0 0 0 0 0 0 0 0 0 0 0 0 42 1124 2482 2507 2510 2506 2231 2017 1952 1934 1848 1959 1762 1615 1681 1901 1726 1698 786 1296 1627 1303 863 306 911
0 0 0 0 0 0 0 0 0 0 0 0 0 0 0 0 0 0 0 0 0 0 0 0 26 189 1153 2549 2220 2392 1997 1931 1921 1998 2034 2075 2035 1813 1746 2080 1967 1998 1639 1247 1173 1426 1103 808 529
0 0 0 0 0 0 0 0 0 0 0 0 0 0 0 0 0 0 0 0 0 0 0 0 116 238 407 1659 2142 2347 2408 1891 2058 2058 2244 2341 2204 1908 1695 1794 1882 1775 1482 1460 1440 1332 1196 919 876
0 0 0 0 0 0 0 0 0 0 0 0 0 0 0 0 0 0 0 0 0 0 0 0 11 344 505 988 2040 2512 2387 2306 2072 2414 2587 2356 2174 1938 1874 1666 1758 1661 1729 1896 2143 2097 1713 1164 836
0 0 0 0 0 0 0 0 0 0 0 0 0 0 0 0 0 0 0 0 0 0 0 0 0 102 683 938 1549 2190 2431 2702 2909 2882 2790 2674 2256 2080 2143 2180 1968 1890 2456 2446 2494 2245 1739 1145 777
12 1 1 0 0 0 0 0 0 0 0 0 8 0 3 2 4 0 0 0 0 0 0 0 0 0 496 1317 1666 2062 2393 2532 2773 3047 2659 2642 2288 2476 2813 2825 2717 2768 2736 2674 2725 2550 1908 1606 1178
4 0 1 0 0 0 0 0 0 5 3 29 29 6 0 0 0 0 0 0 2 0 0 24 52 0 243 1257 2221 2497 2776 2969 2864 3029 3398 2954 2605 1911 2497 2981 2893 2744 2679 2647 2581 2307 1962 1724 1311
0 1 0 15 0 0 0 0 0 21 76 28 16 14 1 0 0 0 0 0 3 18 20 8 163 142 126 778 2133 3068 3254 3403 3232 3323 3361 2743 2336 1966 2281 2613 2673 2650 2549 2428 2302 2084 2135 1781 747
2 0 12 8 7 1 0 0 1 0 0 1 9 0 0 0 0 0 0 0 0 0 14 41 190 320 243 580 1547 2573 3120 3109 2626 2068 1484 1193 1310 1032 1012 1211 1526 1725 1856 2058 2109 1930 1801 1898 1767
0 0 1 20 1 6 0 0 0 0 0 38 44 10 13 5 0 0 0 0 0 0 0 30 66 338 386 536 1184 1844 1900 1317 957 697 694 713 606 444 264 319 479 598 588 836 1025 1044 878 1074 1027

GFSSGP_con_mlcape_081.txt.gz
CAPE
0 0 0 0 0 0 0 0 25 27 0 0 0 0 0 6 58 379 728 756 279 1297 1289 1326 1266 1081 914 553 264 177 142 149 189 164 92 137 117 351 661 674 676 536 363 92 2 0 0 0 0
0 0 0 0 0 0 0 0 0 0 0 0 0 0 0 0 110 521 647 494 246 1471 1332 1143 1218 1058 889 514 254 159 170 195 219 185 146 173 186 269 510 634 673 524 116 0 0 0 0 0 0
0 0 0 0 0 0 0 0 0 0 0 0 0 0 0 57 59 618 1096 556 359 1259 1132 1354 1261 1182 999 908 545 411 324 259 227 203 176 189 223 225 337 522 483 153 0 0 0 0 0 0 0
0 0 0 0 0 0 0 0 0 0 0 0 0 0 0 756 810 693 1053 576 607 965 801 1564 1240 1202 1192 1218 1102 795 584 436 327 241 215 230 277 260 331 408 241 33 0 0 0 0 0 14 30
0 0 0 0 0 0 0 0 0 0 0 0 0 0 55 498 1041 722 375 448 739 767 774 1765 1142 1150 1183 1219 1400 1292 941 703 426 240 286 362 397 265 310 267 80 2 0 0 0 0 0 0 0
0 0 0 0 0 0 0 0 0 0 0 0 0 0 0 0 930 798 485 564 500 553 1020 1842 1201 1098 1160 1248 1471 1565 1288 966 577 357 360 440 334 245 240 155 33 0 0 0 0 0 0 0 0
0 0 0 0 0 0 0 0 0 0 0 0 0 0 0 0 1 1152 771 542 568 545 919 1579 1203 1330 1258 1309 1345 1507 1454 1033 757 454 571 522 338 259 181 66 16 0 0 0 0 0 0 0 0
0 0 0 0 0 1 3 0 0 0 0 0 0 0 0 0 0 543 1078 862 523 630 716 1080 1028 932 1159 1574 1465 1335 1223 966 759 620 765 579 381 262 167 31 0 0 0 0 0 0 0 0 0
0 0 0 0 0 0 0 0 0 0 0 0 0 0 0 0 0 93 1003 883 615 506 522 793 745 711 567 567 1398 1243 1125 1047 899 818 810 495 284 339 310 4 0 0 0 0 0 0 0 0 0
0 0 0 0 0 0 0 0 0 0 0 0 0 0 0 0 0 1 456 882 604 551 474 781 826 778 557 326 669 929 1203 1231 1189 997 1042 542 212 262 50 0 30 0 0 0 0 0 0 0 0
0 0 0 0 0 0 0 0 0 0 0 0 0 0 0 0 0 0 0 241 714 637 543 680 1102 1183 785 393 604 457 460 547 727 712 796 550 281 217 2 25 4 2 0 0 0 0 0 0 0
0 0 0 0 0 0 0 0 0 0 0 0 0 0 0 0 0 0 0 0 202 765 711 737 1080 1471 1363 619 636 801 471 485 328 299 533 558 476 302 23 2 17 0 0 0 0 0 0 0 0
0 0 0 0 0 0 0 0 0 0 0 0 0 0 0 0 0 0 0 0 0 345 909 764 1100 1976 1915 1839 820 1011 727 671 439 288 605 541 454 385 193 63 35 2 0 0 0 0 0 0 118
0 0 0 0 0 0 0 0 0 0 0 0 0 0 0 0 0 0 0 0 0 6 470 1022 1151 2025 2190 2063 1680 1407 1277 940 718 507 562 892 809 682 298 206 91 42 21 10 13 0 0 1 281
0 0 0 0 0 0 0 0 0 0 0 0 0 0 0 0 0 0 0 0 0 0 3 1117 1626 1895 2536 2540 2112 1758 1454 1230 1010 735 724 937 1153 920 403 299 291 165 153 159 88 39 20 36 168
0 0 0 0 0 0 0 0 0 0 0 0 0 0 0 0 0 0 0 0 0 0 21 447 1475 1823 2621 2818 2481 2100 1599 1532 1427 1025 782 997 1139 921 632 397 441 260 251 229 130 86 23 18 124
0 0 0 0 0 0 0 0 0 0 0 0 0 0 0 0 0 0 0 0 0 0 96 618 1280 1613 2531 2753 2676 2349 2125 1983 1611 1505 1143 1292 1294 867 977 449 451 535 308 291 131 75 71 73 340
0 0 0 0 0 0 0 0 0 0 0 0 0 0 0 0 0 0 0 0 0 0 1 777 2004 2413 2860 2878 2878 2335 2267 2136 1959 1775 1518 1628 1626 1205 1062 589 419 626 471 323 231 169 146 194 168
0 0 0 0 0 0 0 0 0 0 0 0 0 0 0 0 0 0 0 0 0 0 0 125 1500 3130 3020 2995 3140 2744 2485 2369 2150 2088 1958 1942 2079 1752 1319 896 763 913 609 512 443 576 353 299 274
0 0 0 0 0 0 0 0 0 0 0 0 0 0 0 0 0 0 0 0 0 0 0 0 410 2412 3682 3148 3046 2911 2703 2440 2414 2119 1984 2135 2292 2066 1566 1013 947 1350 904 990 863 714 705 558 502
0 0 0 0 0 0 0 0 0 0 0 0 0 0 0 0 0 0 0 0 0 0 0 0 81 580 3140 3133 3235 3195 3055 2960 2752 2706 2528 2494 2398 2252 2207 1549 1924 1627 1385 1015 1158 872 736 372 599
0 0 0 0 0 0 0 0 0 0 0 0 0 0 0 0 0 0 0 0 0 0 0 0 2 223 493 3222 2814 2984 2820 3041 2869 2783 2618 2739 2377 2101 2353 2286 2322 2225 2035 1548 1549 1875 1596 1046 549
0 0 0 0 0 0 0 0 0 0 0 0 0 0 0 0 0 0 0 0 0 0 0 0 0 13 594 621 2820 2742 2929 2571 2647 2493 2396 2581 2741 2701 2391 2447 2719 2598 2441 2082 1871 2185 2002 1506 951
0 0 0 0 0 0 0 0 4 0 0 0 0 0 0 0 0 0 0 0 0 0 0 0 0 0 36 582 800 2625 2800 2743 2342 2641 2601 2778 2661 2808 2643 2673 2643 2956 2731 2347 2043 1979 1831 1213 1385
0 2 10 7 11 4 1 0 0 0 0 0 0 0 0 0 0 4 5 9 0 2 8 1 0 0 4 100 751 1155 2494 2926 2894 2611 2817 2719 2902 2936 2866 2840 2639 2800 2753 2344 2171 2235 1977 1837 1656
9 23 21 3 4 6 0 0 0 0 2 0 0 0 0 0 0 0 1 3 16 51 43 39 1 0 21 32 240 1138 1731 2517 2742 2863 2580 2610 2397 2790 3056 3037 2935 2762 2720 2603 2820 2864 2760 2531 2010
0 3 0 3 4 0 0 0 0 0 19 48 13 3 35 10 4 0 19 7 11 22 28 40 24 1 2 145 127 1014 1801 2425 2391 2547 2697 2648 2551 2875 3034 2932 3018 2774 2877 3089 3084 2753 2736 2311 2278
0 0 0 3 7 0 0 0 0 2 5 0 2 3 9 1 5 15 10 16 8 22 30 21 11 46 54 226 237 478 2015 2498 2721 2886 2653 2679 2930 3225 3159 3395 3368 3436 3316 2994 2638 2578 2564 2425 2368
2 0 0 2 3 5 0 0 0 0 0 0 0 1 38 60 50 35 15 9 13 30 28 16 13 114 91 230 348 443 1407 2186 2439 2444 2550 2831 2975 3417 2822 1993 3530 3145 2969 2936 2508 2522 2172 2387 2274
0 0 0 1 13 10 12 0 1 4 0 0 15 21 41 28 23 30 53 45 33 2 5 5 9 68 221 224 437 518 1153 2175 2494 2614 2587 2344 2302 2264 2513 2662 2329 2252 2241 2594 2537 2353 2018 1892 2027

GFSSGP_con_mlcape_084.txt.gz
CAPE
0 0 0 0 0 0 0 0 0 0 0 0 0 0 0 0 129 816 966 833 1470 1589 1939 1606 1181 866 823 635 344 42 10 67 147 47 91 125 463 582 603 440 465 512 520 397 89 0 0 0 0
0 0 0 0 0 0 0 0 0 0 0 0 0 0 0 0 501 609 951 790 1554 1720 1732 1819 1372 970 749 507 382 29 34 106 127 41 87 121 367 628 605 551 522 390 134 4 0 0 0 0 0
0 0 0 0 0 0 0 0 0 0 0 0 0 0 0 438 448 1340 1036 1328 1620 1695 1673 1977 1535 988 730 518 259 73 96 145 130 64 87 144 262 522 570 566 532 214 4 0 0 0 0 0 0
0 0 0 0 0 0 0 0 0 0 0 0 0 0 505 785 785 910 1269 853 1785 1492 1424 1758 1569 1086 760 482 240 176 187 193 162 121 158 228 184 226 386 405 185 6 0 0 0 0 0 0 0
0 0 0 0 0 0 0 0 0 0 0 0 0 20 311 644 889 743 826 633 1331 1226 1956 1732 1503 1279 926 608 374 433 436 333 291 240 264 300 211 136 234 169 13 0 0 0 0 0 0 8 13
0 0 0 0 0 0 0 0 5 0 0 0 0 0 4 25 1127 492 456 709 978 928 1975 1627 1283 1389 1212 1064 815 708 598 572 386 350 303 300 226 221 217 73 7 0 0 0 0 0 0 0 0
0 0 0 0 0 0 0 0 0 0 0 0 0 0 0 0 48 982 655 606 610 882 2108 1760 1203 1567 1324 1281 1138 1036 898 806 561 422 391 410 288 237 147 42 0 0 0 0 0 0 0 0 0
0 0 0 0 0 0 0 0 0 0 0 0 0 0 0 0 0 541 880 602 548 599 2081 1574 1211 1498 1489 1495 1433 1381 1234 1045 780 534 459 480 380 280 168 59 0 0 0 0 0 0 0 0 0
0 0 0 0 0 0 0 1 1 0 0 0 0 0 0 0 0 13 955 993 533 638 1276 1319 1292 1394 1268 1570 1625 1536 1595 1309 913 648 505 576 444 283 224 36 7 0 0 0 0 0 0 0 0
0 0 0 0 0 0 0 0 0 0 0 0 0 0 0 0 0 0 306 984 771 559 696 1070 1102 1142 949 920 1628 1639 1595 1457 1108 945 825 757 540 441 353 70 44 0 0 0 0 0 0 0 0
0 0 0 0 0 0 0 0 0 0 0 0 0 0 0 0 0 0 0 130 571 315 389 813 952 851 716 623 1403 1418 1693 1610 1499 1315 1417 890 651 678 188 107 18 0 0 0 0 0 0 0 0
0 0 0 0 0 1 0 0 0 0 0 0 0 0 0 0 0 0 0 0 0 60 537 856 1048 1091 765 510 1120 937 1059 1291 1513 1628 1641 1202 810 485 147 105 13 10 0 0 0 0 0 0 0
0 0 0 0 0 0 0 0 0 0 0 0 0 0 0 0 0 0 0 0 0 0 100 448 1593 1564 1178 1092 1066 918 555 834 859 940 1224 1130 669 533 248 110 105 35 0 0 0 0 0 0 6
0 0 0 0 0 0 0 0 0 0 0 0 0 0 0 0 0 0 0 0 0 0 38 503 1670 1931 1817 1121 1613 1368 692 889 640 596 685 896 640 867 440 83 285 42 5 1 0 18 75 15 4
0 0 0 0 0 0 0 0 0 0 0 0 0 0 0 0 0 0 0 0 0 0 0 433 1741 2395 2135 1651 1507 2057 1438 1283 836 717 705 723 1082 1006 522 281 305 230 13 135 4 72 27 98 38
0 0 0 0 0 0 0 0 0 0 0 0 0 0 0 0 0 0 0 0 0 0 6 4 1305 2707 2591 2449 1787 2220 1657 1312 1280 851 777 898 1148 1200 727 503 404 269 401 257 405 177 139 39 92
0 0 0 0 0 0 0 0 0 0 0 0 0 0 0 0 0 0 0 0 0 0 0 0 317 1931 2748 2862 2526 2041 2449 1998 1824 1259 1121 1052 931 1227 1025 677 543 603 635 423 308 266 143 151 68
0 0 0 0 0 0 0 0 0 0 0 0 0 0 0 0 0 0 0 0 0 0 0 0 137 2166 3028 3242 3104 2856 2355 2225 2062 1868 1225 1234 1071 1111 1231 659 644 901 651 564 420 308 221 161 257
0 0 0 1 0 0 0 0 0 0 0 0 0 0 0 0 0 0 0 0 0 0 0 0 1 1763 2320 2692 3284 3061 2589 2460 2325 1806 2087 1395 1350 1289 986 1066 840 688 680 649 621 437 332 216 269
0 0 0 0 0 0 0 0 0 0 0 0 0 0 0 0 0 0 0 0 0 0 0 0 0 144 2687 2584 2765 3285 2793 2529 2526 2414 1952 2118 1720 1651 1182 1112 775 667 645 621 593 420 388 557 474
0 0 0 0 0 1 0 0 0 0 0 0 0 0 0 0 0 0 0 0 0 0 0 0 0 1 123 3189 2903 2903 2764 2468 2341 2410 2462 2195 2040 1973 1636 1431 646 744 946 894 971 1093 762 530 436
0 0 0 0 0 0 0 0 0 0 0 0 0 0 0 0 0 0 0 1 7 13 3 0 0 17 44 57 2069 2622 2737 2453 2096 2480 2568 2194 2523 2460 1940 1744 1355 941 1147 976 1200 1173 1158 865 588
0 1 0 0 0 0 0 0 0 0 0 0 0 0 0 0 0 0 0 0 0 0 0 1 10 2 2 223 103 629 1822 2394 2583 2344 2427 2714 2728 2577 2402 2323 1901 1363 960 1671 1371 1336 1477 1357 848
0 0 0 0 0 0 0 0 0 0 0 0 0 0 0 0 0 0 0 0 0 0 0 0 0 7 0 123 525 255 561 1611 2258 2157 1876 1912 1859 2423 2790 2662 2586 2600 1904 2126 2119 2133 1978 1939 1427
0 0 0 1 9 0 0 0 1 0 0 0 0 0 0 0 0 0 0 0 0 0 0 0 0 0 0 0 6 427 714 660 1485 2086 1773 1846 1800 2142 2534 2454 2631 2684 2667 2303 2567 2139 2222 2363 1944
1 2 24 17 3 0 0 0 0 0 0 0 0 0 0 0 0 0 0 0 0 0 0 0 0 0 10 0 0 12 164 1091 1131 1748 2050 1873 1886 1793 2098 2855 2634 2613 2773 2681 2532 2455 2214 2476 1879
0 0 0 0 0 4 0 0 0 0 0 0 0 0 0 0 5 3 0 0 0 0 0 0 0 4 9 20 52 167 289 235 1256 1686 2148 2204 2389 2219 2180 2325 2741 2722 2753 2903 2673 2474 2294 2207 2220
0 0 0 0 2 3 0 0 0 0 0 0 0 0 0 0 0 16 27 12 3 0 0 0 15 37 10 17 140 86 381 332 376 1846 2177 2426 2344 2481 2567 2176 2365 2850 2689 2817 2669 2542 2465 2850 2722
0 1 0 2 0 0 0 0 0 0 0 0 0 0 0 0 2 0 1 17 20 11 0 0 0 6 14 33 133 156 112 628 441 947 1697 2409 2123 2456 2580 2386 2504 2023 2646 2624 2619 2618 2839 2578 2300
1 0 1 1 2 24 21 1 0 0 0 0 0 7 4 5 4 0 0 4 0 0 26 46 64 14 47 59 177 143 172 577 678 1143 1439 1972 2138 2178 2227 1592 1750 2108 1718 1386 1468 1853 2625 2358 2713

GFSSGP_con_mlcape_087.txt.gz
CAPE
0 0 0 0 0 0 0 0 0 0 0 0 0 0 102 532 600 481 1313 1306 1054 1094 1544 1300 998 826 628 293 25 1 0 22 13 44 92 227 221 178 258 346 409 464 417 199 5 0 0 0 0
0 0 0 0 0 0 0 0 0 0 0 0 0 0 57 787 689 1011 1532 1711 997 1145 1301 1376 1055 876 616 261 16 14 3 46 27 43 125 343 289 246 290 317 294 270 134 10 0 0 0 0 0
0 0 0 0 0 0 0 0 0 0 0 0 0 0 485 617 1119 891 1614 1593 1004 944 1250 1379 1203 907 512 188 24 22 12 47 34 46 100 368 396 412 362 264 182 53 0 0 0 0 0 0 0
0 0 0 0 0 0 0 0 0 0 0 0 0 605 919 649 1090 1267 1656 1608 831 1342 1308 1461 1233 930 435 136 33 52 61 80 89 63 101 266 390 337 313 334 173 0 0 0 0 0 0 0 0
0 0 0 0 0 0 0 0 0 0 0 0 0 276 836 646 825 1244 1639 1649 912 1614 1454 1377 1225 938 550 190 77 95 145 135 146 107 108 157 272 285 231 152 13 0 0 0 0 0 0 0 0
0 0 0 0 0 0 0 0 0 0 0 0 1 7 26 745 365 584 1592 1460 1306 1364 1595 1109 1287 1003 667 251 131 66 167 206 211 144 144 123 119 142 128 31 0 0 0 0 0 0 0 0 0
0 0 0 0 0 0 0 0 0 0 0 0 0 0 0 2 256 388 672 1186 1520 1455 1394 1127 1373 1162 800 353 203 168 184 284 274 259 256 214 172 168 127 22 0 0 0 0 0 0 0 0 0
0 0 0 0 0 0 0 0 0 0 2 0 0 0 0 0 0 841 478 652 1437 1587 1287 952 988 1381 1275 1004 652 581 448 433 381 331 259 266 248 237 166 56 5 0 0 0 0 0 0 0 0
0 0 0 0 0 0 0 0 0 0 2 0 0 0 0 0 0 10 649 399 1500 1824 1551 1130 796 996 1173 1335 1274 1082 967 791 576 466 313 363 309 279 187 55 14 0 0 0 0 0 0 0 0
0 0 0 0 0 0 0 0 0 0 0 0 0 0 0 0 0 0 204 723 344 1800 1552 928 600 743 1055 1401 1498 1340 1261 1258 997 754 586 323 266 193 153 57 36 0 0 0 0 0 0 0 0
0 0 0 0 0 0 0 0 0 6 0 0 0 0 0 0 0 0 0 0 129 350 305 886 792 644 897 1654 1244 1376 1413 1307 1093 831 485 378 372 356 263 126 106 1 0 0 0 0 0 0 0
0 0 0 0 0 0 0 0 0 0 0 0 0 0 0 0 0 0 0 0 0 7 160 150 783 1001 865 1256 1524 1277 1310 1268 1052 872 671 419 442 554 275 158 32 0 0 0 0 0 0 0 0
0 0 0 0 0 0 0 0 0 0 0 0 0 0 0 0 0 0 0 0 0 0 131 0 11 970 776 1063 1429 1280 1322 1319 1184 1085 1165 866 676 540 318 151 45 3 0 0 0 0 0 0 0
0 0 0 0 0 0 0 0 0 0 0 0 0 0 0 0 0 0 0 0 0 0 320 158 621 710 409 30 1159 1125 1139 1291 1436 1319 1354 1251 730 553 388 128 35 13 0 0 0 0 0 0 0
0 0 0 0 0 0 0 0 0 0 0 0 0 0 0 0 0 0 0 0 0 0 34 542 487 241 1 4 164 1221 853 987 925 1078 1219 1292 658 634 546 118 107 42 2 0 0 0 0 0 0
0 0 0 0 0 0 0 0 0 0 0 0 0 0 0 0 0 0 0 0 0 0 61 603 99 21 0 13 819 1812 944 879 812 697 751 1169 1057 344 650 371 106 173 4 0 0 0 0 7 22
0 0 0 0 0 0 0 0 0 0 0 0 0 0 0 0 0 0 0 0 0 0 0 176 495 23 0 846 1444 1874 1736 1072 894 735 679 788 833 665 655 581 146 191 123 17 73 20 0 0 2
0 0 0 0 0 0 0 0 0 0 0 0 0 0 0 0 0 0 0 0 0 0 0 0 4 1203 1558 2312 1766 1732 2074 1773 1528 1141 825 876 790 955 895 675 403 267 327 151 130 199 85 88 42
0 0 0 0 0 0 0 0 0 0 0 0 0 0 0 0 0 0 0 0 0 0 0 0 0 0 1924 2046 1934 1802 1764 1888 1901 1857 1253 1028 954 870 1047 986 688 499 260 361 310 241 160 102 104
0 0 0 0 0 0 0 0 0 0 0 0 0 0 0 0 0 0 0 0 0 0 0 0 0 0 0 1438 1908 2185 2272 1994 1992 1891 1851 1576 1221 1108 929 982 861 700 597 410 438 341 262 162 125
0 0 0 0 0 0 0 0 0 0 0 0 0 0 0 0 0 0 0 0 0 0 0 0 0 0 0 0 955 2163 2076 1934 1742 1817 1981 1902 1711 1394 1095 849 870 623 546 508 415 350 278 218 249
0 0 0 0 0 0 0 0 0 0 0 0 0 0 0 0 0 0 0 0 0 0 0 0 0 56 18 8 10 614 1286 1280 1760 1867 1853 1967 1842 1658 1258 1072 855 711 502 461 438 451 354 262 262
0 0 0 0 0 0 0 0 0 0 0 0 0 0 0 0 0 0 0 0 0 0 0 0 0 0 0 0 6 103 58 432 911 1379 1460 1444 1681 1473 1456 1257 1130 747 569 517 615 515 757 503 365
0 0 0 0 0 0 0 0 0 0 0 0 0 0 0 0 0 0 0 0 0 0 0 0 0 0 0 0 0 0 0 46 331 392 513 939 1223 1468 1271 1553 1283 1073 689 843 812 1061 1073 1097 806
0 0 0 0 0 0 0 0 0 0 0 0 0 0 0 0 0 0 0 0 0 0 0 0 0 0 0 0 0 0 0 0 0 2 300 742 604 1033 1247 1114 1281 844 677 908 1224 1089 1087 1198 1176
24 10 1 0 0 0 0 0 0 0 0 0 0 0 0 0 0 0 0 0 0 0 0 0 0 0 0 0 0 0 0 4 0 0 0 399 956 716 1267 1124 787 384 75 78 1021 1229 1666 1282 1187
0 0 0 0 0 0 0 0 0 0 0 0 0 0 0 0 0 0 0 0 0 0 0 0 0 0 0 0 0 0 0 20 39 30 22 24 460 1356 1154 1203 901 554 122 154 1148 1426 1393 1772 1824
0 0 0 0 0 0 0 0 0 0 0 0 0 0 0 0 0 0 0 0 0 0 0 0 0 0 0 0 0 0 0 0 51 0 0 65 123 813 1446 1404 1513 952 910 1169 1977 1910 1529 1423 1851
0 0 0 0 3 0 0 0 0 0 0 0 0 0 0 0 0 0 0 0 0 0 0 0 0 0 0 0 0 0 0 0 4 0 38 42 71 406 1076 1692 1682 1499 933 1008 1064 1515 1483 1460 1232
0 0 0 0 0 1 0 0 0 0 0 0 0 0 0 0 0 0 0 0 0 0 0 0 0 0 0 0 0 0 0 0 0 0 75 19 21 188 678 1327 1643 1383 912 429 28 188 758 490 1031

GFSSGP_con_mlcape_090.txt.gz
CAPE
0 0 0 0 0 0 0 0 0 0 0 0 0 12 432 513 190 78 649 721 749 673 1103 1536 1262 621 61 0 0 0 6 0 0 2 19 42 124 163 215 303 235 181 113 3 0 0 0 0 0
0 0 0 0 0 0 0 0 0 0 0 0 0 545 387 599 1038 1269 1019 1290 711 726 1105 1260 1311 696 118 0 0 0 27 0 0 12 56 112 203 240 316 326 264 241 76 0 0 0 0 0 0
0 0 0 0 0 0 0 0 0 0 0 0 0 550 619 1070 1086 1303 1479 1201 964 824 954 1065 1207 798 172 0 0 26 25 0 0 39 128 159 149 185 251 243 209 109 1 0 0 0 0 0 0
0 0 0 0 0 0 0 0 0 0 0 0 290 528 644 788 1082 1352 1648 1212 805 913 886 1107 1140 901 279 9 0 28 71 13 0 66 198 228 205 241 200 99 14 0 0 0 0 0 0 0 0
0 0 0 0 0 0 0 0 0 0 0 0 13 787 723 999 1366 1570 1518 1185 638 957 1053 1120 1131 958 394 95 55 112 164 58 22 62 183 270 315 322 246 117 2 0 0 0 0 0 0 0 0
0 0 0 0 0 0 0 0 0 0 0 0 99 335 287 1128 1244 1567 1222 712 988 780 1083 1230 1208 1018 607 280 142 189 229 153 68 59 123 258 309 308 229 81 0 0 0 0 0 0 0 0 0
0 0 0 0 0 0 0 0 0 0 0 0 3 39 6 226 1281 1536 1294 875 994 1011 1006 1238 1281 1077 738 495 261 228 216 263 163 148 154 171 271 313 195 52 3 0 0 0 0 0 0 0 0
0 0 0 0 0 0 0 0 0 0 0 0 0 0 0 28 502 1465 1394 1427 1361 1093 723 868 1005 1106 830 617 523 335 268 273 277 211 197 172 209 248 216 50 3 0 0 0 0 0 0 0 0
0 0 0 0 0 0 0 0 0 0 0 0 0 0 0 0 226 559 1192 1615 1759 1486 1275 1104 795 817 711 457 548 548 516 431 344 343 309 280 241 272 231 82 14 0 0 0 0 0 0 0 0
0 0 0 0 0 0 0 0 0 0 0 0 1 0 0 0 0 43 706 1495 1870 1600 1308 1202 1372 1170 746 861 1003 874 853 822 709 634 508 348 243 196 207 120 38 0 0 0 0 0 0 0 0
0 0 0 0 0 0 0 0 0 0 0 9 0 0 0 0 0 0 1 359 1641 1549 1362 1271 1102 1219 1312 1535 1221 1330 1237 1085 838 699 450 280 266 283 231 116 100 12 0 0 0 0 0 0 0
0 0 0 0 0 0 0 0 0 0 0 0 0 0 0 0 0 0 0 20 690 1126 1085 1007 779 623 872 1585 1413 1023 1046 1075 1004 907 573 287 256 266 204 87 37 9 0 0 0 0 0 0 0
0 0 0 0 0 0 0 0 0 0 0 0 11 0 0 0 0 0 0 0 68 754 1074 722 163 8 74 1372 739 821 1282 1150 1163 1031 806 391 236 317 246 160 65 7 0 0 0 0 0 0 0
0 0 0 0 0 0 0 0 0 0 0 0 0 0 0 0 0 0 0 0 0 33 134 35 20 118 441 725 398 19 1 746 1285 1110 995 642 330 361 397 253 125 30 0 0 0 0 0 0 0
0 0 0 0 0 0 0 0 0 0 0 0 0 0 0 0 0 0 0 0 0 0 54 36 58 536 886 410 41 17 0 262 1073 1246 1203 961 617 461 534 382 187 93 19 0 0 0 0 0 0
0 0 0 0 0 0 0 0 0 0 0 0 0 0 0 0 0 0 0 0 0 0 0 10 139 852 823 266 48 42 16 136 743 1392 1293 1215 1164 802 603 447 317 168 63 1 0 0 0 0 0
0 0 0 0 0 0 0 0 0 0 0 0 0 0 0 0 0 0 0 0 0 3 60 75 214 434 375 272 45 3 73 371 1136 1116 1302 1336 1314 1115 755 610 303 230 93 20 2 0 0 0 0
0 0 0 0 0 0 0 0 0 0 0 0 0 0 0 0 0 0 0 0 0 0 72 301 362 494 294 105 0 155 1401 745 905 866 757 892 1298 1279 809 673 625 231 187 79 44 19 0 0 0
0 0 0 0 0 0 0 0 0 0 0 0 0 0 0 0 0 0 0 0 0 0 0 84 306 231 96 9 24 384 1131 1368 973 766 613 585 743 1078 1093 833 602 481 233 225 101 99 79 28 52
0 0 0 0 0 0 0 0 0 0 0 0 0 0 0 0 0 0 0 0 0 0 0 0 0 259 1208 931 1061 1487 1602 1497 1367 1382 989 620 680 743 963 999 867 591 552 330 285 250 196 185 151
0 0 0 0 0 0 0 0 0 0 0 0 0 0 0 0 0 0 0 0 0 0 0 0 1 5 0 514 1240 1938 1986 1375 1171 1112 1198 1254 1100 925 766 754 1023 866 675 542 435 362 367 320 262
0 0 0 0 0 0 0 0 0 0 0 0 0 0 0 0 0 0 0 0 0 0 0 0 0 0 0 0 0 41 301 790 1167 1267 1100 1147 1086 1120 974 811 670 831 785 618 563 469 373 419 339
0 0 0 0 0 0 0 0 0 0 0 0 0 0 0 0 0 0 0 0 0 0 0 0 0 0 0 0 0 0 0 0 0 0 118 519 694 678 1007 1069 957 750 668 584 512 442 423 394 380
0 0 0 0 0 0 0 0 0 0 0 0 0 0 0 0 0 0 0 0 0 0 0 0 0 0 0 0 0 0 0 0 0 0 0 0 0 66 412 743 864 926 709 537 449 376 308 346 394
0 1 0 0 0 0 0 0 0 0 0 0 0 0 0 0 0 0 0 0 0 0 0 0 0 0 0 0 0 0 0 0 0 0 0 0 0 0 69 386 560 671 747 597 492 438 330 437 436
8 7 0 0 0 0 0 0 0 0 0 0 0 0 0 0 0 0 0 0 0 0 0 0 0 0 0 0 0 0 0 0 0 0 0 0 0 0 24 200 516 580 655 530 401 124 49 0 3
6 2 0 0 0 0 0 0 0 0 0 0 0 0 0 0 0 0 0 0 0 0 0 0 0 0 0 0 0 0 0 0 0 0 0 0 0 0 0 0 125 817 927 599 405 245 8 0 0
12 0 0 0 0 0 0 0 0 0 0 0 0 0 0 0 0 0 0 0 0 0 0 0 0 0 0 0 0 0 0 0 0 0 0 0 0 0 0 0 0 11 866 872 498 183 82 4 0
0 0 0 0 0 0 0 0 0 0 0 0 0 0 0 0 0 0 0 0 0 0 0 0 0 0 0 0 0 0 0 0 0 0 0 0 0 0 0 0 0 0 85 731 407 104 49 88 216
0 0 0 0 0 0 0 0 0 0 0 0 0 0 0 0 0 0 0 0 0 0 0 0 0 0 0 0 0 0 0 0 0 0 0 0 0 0 0 0 0 0 15 462 687 696 787 614 564

GFSSGP_con_mlcape_093.txt.gz
CAPE
0 0 0 0 0 0 0 0 0 0 0 0 0 0 39 343 113 56 652 655 560 731 881 1026 699 246 30 13 65 78 65 38 58 101 120 174 270 370 367 259 186 125 21 0 0 0 0 0 0
0 0 0 0 0 0 0 0 0 0 0 0 0 24 551 309 1166 1056 802 1243 838 888 1013 895 825 289 38 3 17 51 28 15 13 26 108 214 287 351 281 167 191 187 2 0 0 0 0 0 0
0 0 0 0 0 0 0 0 0 0 0 0 0 343 608 751 1264 899 1259 1264 997 1052 1195 1228 867 320 89 0 16 35 7 2 0 10 109 176 228 295 266 282 229 188 0 0 0 0 0 0 0
0 0 0 0 0 0 0 0 0 0 0 0 0 70 654 823 940 1266 1597 1377 785 987 1153 1487 1018 385 110 18 64 57 12 4 0 8 52 168 264 277 259 249 228 128 0 0 0 0 0 0 0
0 0 0 0 0 0 0 0 0 0 0 0 5 342 690 1363 1605 1596 1508 1184 683 938 1132 1504 1216 508 164 104 151 104 56 37 17 9 49 134 153 159 174 144 93 22 0 0 0 0 0 0 0
0 0 0 0 0 0 0 0 0 0 0 0 6 116 182 1376 1661 1634 1209 738 839 750 1161 1449 1329 763 301 192 237 137 66 62 62 43 114 183 241 257 203 158 59 8 0 0 0 0 0 0 0
0 0 0 0 0 0 0 0 0 0 0 0 0 3 58 690 1511 1419 1036 1035 986 1045 1062 1313 1278 899 472 272 231 180 94 79 114 104 145 243 377 393 347 209 56 1 0 0 0 0 0 0 0
0 0 0 0 0 0 0 0 0 0 0 0 0 0 5 20 1498 1209 1277 1502 1256 1242 1240 1127 941 771 358 332 225 232 174 110 97 110 111 145 230 280 256 146 48 1 0 0 0 0 0 0 0
0 0 0 0 0 0 0 0 0 0 0 0 0 0 0 132 1322 1300 1239 1286 1165 1169 1171 1101 1009 673 255 243 336 364 334 227 157 168 147 141 143 172 179 118 46 5 0 0 0 0 0 0 0
0 0 0 0 0 0 0 0 0 0 0 0 0 0 1 29 1153 1424 1509 1421 1182 1002 1006 1153 1086 858 585 614 650 426 532 519 348 241 212 136 106 116 132 111 61 28 0 0 0 0 0 0 0
0 0 0 0 0 0 0 0 0 0 0 0 0 0 0 0 196 1169 1399 1650 1479 1200 1020 1106 1020 939 814 627 627 595 638 544 492 425 284 132 140 154 193 108 87 37 3 0 0 0 0 0 0
0 0 0 0 0 0 0 0 0 0 0 0 0 0 0 0 0 3 588 1246 1759 1636 1433 1065 961 909 866 969 674 582 673 632 453 563 466 217 141 120 148 104 52 30 0 0 0 0 0 0 0
0 0 0 0 0 0 0 0 0 0 0 0 0 2 1 0 0 0 45 708 1383 1726 1599 1431 1219 984 916 915 946 830 834 853 881 707 688 416 144 128 177 137 50 15 0 0 0 0 0 0 0
0 0 0 0 0 0 0 0 0 0 0 0 0 17 0 0 0 0 0 68 878 936 1443 1407 1246 934 1086 802 954 976 857 717 696 581 480 680 373 211 125 153 123 49 12 0 0 0 0 0 0
0 0 0 0 0 0 0 0 0 0 0 0 0 0 0 8 0 0 0 0 20 325 835 987 711 403 967 709 840 789 837 725 381 268 843 695 555 339 233 136 152 144 39 4 0 0 0 0 0
0 0 0 0 0 0 0 0 0 0 0 0 0 0 0 0 0 0 0 0 0 9 457 270 786 412 484 562 536 540 133 132 505 389 597 771 620 535 316 285 223 236 142 50 4 0 0 0 0
0 0 0 0 0 0 0 0 0 0 0 0 0 0 0 0 0 0 0 0 0 0 3 199 409 621 569 849 481 330 74 30 156 409 872 1032 949 844 553 480 412 297 273 187 93 31 0 0 0
0 0 0 0 0 0 0 0 0 0 0 0 0 0 0 0 0 0 0 0 0 10 7 10 92 525 730 762 363 243 283 222 265 382 978 1395 1445 1374 943 713 651 389 381 277 183 115 31 8 0
0 0 0 0 0 0 0 0 0 0 0 0 0 0 0 0 0 0 0 0 0 0 188 425 197 319 585 760 702 513 431 433 525 492 379 766 1115 1479 1262 993 821 567 387 365 200 171 133 70 22
0 0 0 0 0 0 0 0 0 0 0 0 0 0 0 0 0 0 0 0 0 0 34 292 531 677 562 479 367 380 488 556 642 626 820 854 661 692 814 957 852 628 427 310 226 192 211 174 98
0 0 0 0 0 0 0 0 0 0 0 0 0 0 0 0 0 0 0 0 0 0 0 0 0 5 701 1402 1195 1013 1036 881 753 1151 1175 1077 632 511 542 505 593 795 534 453 285 208 222 290 178
0 0 0 0 0 0 0 0 0 0 0 0 0 0 0 0 0 0 0 0 0 0 0 0 0 0 0 0 4 80 251 337 456 493 783 847 970 866 734 598 558 581 490 505 451 369 245 282 312
0 0 0 0 0 0 0 0 0 0 0 0 0 0 0 0 0 0 0 0 0 0 0 0 0 0 0 0 0 0 0 0 0 0 0 0 0 92 333 527 562 407 382 496 552 440 314 342 314
0 0 0 0 0 0 0 0 0 0 0 0 0 0 0 0 0 0 0 0 0 0 0 0 0 0 0 0 0 0 0 0 0 0 0 0 0 0 0 46 88 274 566 553 439 333 338 375 360
0 0 0 0 0 0 0 0 0 0 0 0 0 0 0 0 0 0 0 0 0 0 0 0 0 0 0 0 0 0 0 0 0 0 0 0 0 0 0 0 18 91 271 471 553 547 457 353 242
7 2 0 0 0 0 0 0 0 0 0 0 0 0 0 0 0 0 0 0 0 0 0 0 0 0 0 0 0 0 0 0 0 0 0 0 0 0 0 0 10 34 123 271 591 670 622 463 281
3 2 0 0 0 0 0 0 0 0 0 0 0 0 0 0 0 0 0 0 0 0 0 0 0 0 0 0 0 0 0 0 0 0 0 0 0 0 0 0 0 0 0 0 20 405 642 612 339
20 0 0 0 0 0 0 0 0 0 0 0 0 0 0 0 0 0 0 0 0 0 0 0 0 0 0 0 0 0 0 0 0 0 0 0 0 0 0 0 0 0 0 0 0 40 443 362 268
8 0 0 0 0 0 0 0 0 0 0 0 0 0 0 0 0 0 0 0 0 0 0 0 0 0 0 0 0 0 0 0 0 0 0 0 0 0 0 22 4 0 0 0 0 0 11 212 255
0 0 0 0 0 0 0 0 0 0 0 0 0 0 0 0 0 0 0 0 0 0 0 0 0 0 0 0 0 0 0 0 0 0 0 0 0 0 0 0 16 21 0 0 0 0 38 13 145

GFSSGP_con_mlcape_096.txt.gz
CAPE
0 0 0 0 0 0 0 0 0 0 0 0 0 0 0 15 100 15 675 951 748 710 1034 1082 707 664 528 404 291 287 453 466 439 475 505 435 287 281 293 291 271 319 163 3 0 0 0 0 0
0 0 0 0 0 0 0 0 0 0 0 0 0 0 130 522 1079 1159 837 840 887 766 955 917 590 555 566 426 229 152 185 355 474 496 495 356 231 233 257 189 131 81 0 0 0 0 0 0 0
0 0 0 0 0 0 0 0 0 0 0 0 0 0 120 558 1110 925 1259 1100 862 736 921 900 585 365 366 367 183 79 47 69 152 268 288 225 229 252 240 129 95 57 0 0 0 0 0 0 0
0 0 0 0 0 0 0 0 0 0 0 0 0 0 449 1183 1071 1133 1352 1302 879 826 983 1095 611 298 180 148 82 18 0 0 27 103 141 193 241 258 188 133 210 115 0 0 21 0 0 0 0
0 0 0 0 0 0 0 0 0 0 0 0 0 41 316 941 1701 1672 1394 1199 733 861 1055 1336 715 365 161 121 65 6 0 0 7 26 73 169 223 243 213 229 243 143 0 2 9 0 0 0 0
0 0 0 0 0 0 0 0 0 0 0 0 0 0 17 1115 1661 1628 1413 1136 895 784 1179 1221 816 448 281 150 81 32 14 14 12 18 78 133 152 189 168 169 124 52 0 0 8 0 0 0 0
0 0 0 0 0 0 0 0 0 0 0 0 0 0 0 422 1603 1380 1332 1184 1153 1206 1213 1150 972 559 334 199 121 51 42 38 22 22 31 43 45 98 100 58 42 18 0 0 0 0 0 0 0
0 0 0 0 0 0 0 0 0 0 0 0 0 0 0 0 1493 1470 1347 1078 977 1196 1252 1125 1034 786 322 249 135 64 38 50 32 23 24 34 76 111 143 97 50 12 0 0 0 0 0 0 0
0 0 0 0 0 0 0 0 0 0 0 0 0 0 0 725 1479 1507 1301 1048 921 1006 1131 1344 970 711 454 259 288 235 159 120 103 117 114 133 135 189 152 73 34 15 0 0 0 0 0 0 0
0 0 0 0 0 0 0 0 0 0 0 0 0 0 10 316 1018 1526 1340 1043 801 885 1043 1205 933 604 284 359 440 360 361 250 132 114 84 40 36 46 65 66 51 33 7 0 0 0 0 0 0
0 0 0 0 0 0 0 0 0 0 0 0 0 0 0 76 358 1203 1508 1299 1081 1002 1049 1160 1095 730 400 250 259 320 406 326 222 168 136 75 63 93 123 71 72 32 16 0 0 0 0 0 0
0 0 0 0 0 0 0 0 0 0 0 0 0 0 0 0 19 665 1154 856 1519 1387 1105 1075 1139 927 656 228 162 140 227 231 173 204 178 128 114 106 120 85 46 27 16 0 0 0 0 0 0
0 0 0 0 0 0 0 0 0 0 0 0 0 0 0 0 0 0 8 676 1310 1337 1510 1156 1202 1082 961 538 297 176 221 245 238 282 311 223 150 126 162 161 116 59 32 2 0 0 0 0 0
0 0 0 0 0 0 0 0 0 0 0 0 0 0 0 0 0 0 0 1 287 1062 1715 1518 1299 1275 1300 1124 652 450 376 348 460 473 502 433 228 154 160 153 161 131 102 36 0 0 0 0 0
0 0 0 0 0 0 0 0 0 0 0 0 0 0 0 0 0 0 0 0 1 332 1443 1833 1695 1506 1355 1293 1171 935 811 902 809 924 909 793 623 316 223 165 145 152 129 86 10 0 0 0 0
0 0 0 0 0 0 0 0 0 0 0 0 0 0 0 0 4 0 0 0 0 1 435 1521 1778 1471 1342 1463 1352 1339 1191 1006 1185 1186 1232 1197 998 735 386 242 175 159 119 101 74 31 8 0 0
0 0 0 0 0 0 0 0 0 0 0 0 0 0 0 0 0 0 0 0 0 0 72 987 1487 1433 1246 1488 1135 975 509 472 652 1031 1049 964 1051 975 707 427 376 225 137 103 83 54 41 26 1
0 0 0 0 0 0 0 0 0 0 0 0 0 0 0 0 0 0 0 0 0 0 0 41 481 1006 1027 954 918 885 696 510 320 276 428 1092 1212 1205 976 707 548 319 257 183 135 167 79 101 75
0 0 0 0 0 0 0 0 0 0 0 0 0 0 0 0 0 0 0 0 0 0 41 21 79 432 1027 1050 832 667 747 859 819 699 607 644 1120 1226 1161 1009 743 468 379 423 234 185 152 112 12
0 0 0 0 0 0 0 0 0 0 0 0 0 0 0 0 0 0 0 0 0 0 24 88 281 312 668 701 728 875 766 768 787 908 820 804 867 1176 1322 1207 734 385 128 195 316 244 166 120 31
0 0 0 0 0 0 0 0 0 0 0 0 0 0 0 0 0 0 0 0 0 0 145 323 388 838 909 786 811 907 870 846 863 805 848 873 1150 1026 977 850 474 220 194 63 156 109 96 157 133
0 0 0 0 0 0 0 0 0 0 0 0 0 0 0 0 0 0 0 2 11 8 0 1 0 1 86 664 1145 1403 1377 1095 962 506 432 323 457 860 953 865 666 507 330 285 124 203 116 253 114
0 0 0 0 0 0 0 0 0 0 0 0 0 0 0 0 0 0 0 0 0 0 0 0 0 0 0 0 0 0 0 0 0 0 0 0 0 26 106 232 433 624 559 353 227 282 408 241 172
0 0 0 0 0 0 0 0 0 0 0 0 0 0 0 0 0 0 0 0 0 0 0 0 0 0 0 0 0 0 0 0 0 0 0 0 0 0 0 22 87 65 68 130 234 436 479 449 311
0 0 0 0 0 0 0 0 0 0 0 0 0 0 0 0 0 0 0 0 0 0 0 0 0 0 0 0 0 0 0 0 0 0 0 0 0 0 0 0 0 0 31 83 127 112 115 191 297
32 8 0 0 0 0 0 0 0 0 0 0 0 0 0 0 0 0 0 0 0 0 0 0 0 0 0 0 0 0 0 0 0 0 0 0 0 0 0 0 0 0 12 33 93 99 176 310 370
0 2 0 0 0 0 0 0 0 0 0 0 0 0 0 0 0 0 0 0 0 0 0 0 0 0 0 0 0 0 0 0 0 0 0 0 0 0 0 0 0 0 0 4 0 18 23 76 144
18 0 9 1 0 0 0 0 0 0 0 0 0 0 0 0 0 0 0 0 0 0 0 0 0 0 0 0 0 0 0 0 0 0 0 0 0 0 0 0 0 0 0 0 0 0 7 7 41
1 2 0 0 0 0 0 0 0 0 0 0 0 0 0 0 0 0 0 0 0 0 0 0 0 0 0 0 0 0 0 0 0 0 0 0 0 0 0 0 0 0 0 0 0 0 0 0 20
0 0 0 3 0 0 0 0 0 0 0 0 0 0 0 0 0 0 0 0 0 0 0 0 0 0 0 0 0 0 0 0 0 0 0 0 0 0 0 0 0 0 0 0 0 0 0 0 0

GFSSGP_con_mlcape_099.txt.gz
CAPE
0 0 0 0 0 0 0 0 0 0 0 0 0 0 0 1 17 81 1125 1244 996 1297 1626 1203 791 583 989 1246 1143 755 664 429 185 86 120 48 50 67 136 195 495 665 476 178 2 0 0 0 0
0 0 0 0 0 0 0 0 0 0 0 0 0 0 0 358 1153 1374 1229 1324 1106 1574 1599 1284 718 444 681 856 726 651 600 513 351 303 283 132 106 143 232 271 409 457 198 0 0 0 0 0 0
0 0 0 0 0 0 0 0 0 0 0 0 0 0 295 757 1068 1134 1570 1317 1346 1524 1481 1328 622 383 468 559 610 582 570 546 522 574 429 221 168 220 315 353 290 128 0 0 0 0 0 0 0
0 0 0 0 0 0 0 0 0 0 0 0 0 0 3 1561 1809 1688 1635 1354 1190 1341 1270 1162 665 542 437 387 370 517 546 552 595 626 461 247 279 288 292 212 110 6 0 5 30 0 0 0 30
0 0 0 0 0 0 0 0 0 0 0 0 0 0 0 1150 2026 1886 1619 1397 1062 1247 1311 1086 836 605 538 361 258 226 306 438 511 526 325 258 293 305 284 156 162 9 0 70 117 3 0 0 0
0 0 0 0 0 0 0 0 0 0 0 0 0 0 0 1722 2056 1853 1607 1418 1107 1231 1308 1135 860 598 414 297 177 94 58 60 134 205 242 291 305 312 210 149 185 72 0 44 77 10 0 0 0
0 0 0 0 0 0 0 0 0 0 0 0 0 0 0 238 2005 1855 1680 1361 1115 1231 1368 1117 811 731 466 255 132 61 40 23 37 96 216 267 285 263 182 129 119 49 0 1 47 14 0 0 0
0 0 0 0 0 0 0 0 0 0 0 0 0 0 0 0 1792 1850 1609 1342 1228 1313 1283 1148 965 559 438 486 219 103 96 71 59 80 171 209 221 189 121 63 26 1 0 0 5 22 13 9 0
0 0 0 0 0 0 0 0 0 0 0 0 0 0 0 518 1791 1711 1384 1285 1155 1167 1265 1240 935 720 448 370 505 220 206 185 147 163 134 144 165 252 261 150 107 16 0 0 0 0 0 0 0
0 0 0 0 0 0 0 0 0 0 0 0 0 0 0 701 1457 1818 1499 1137 1178 1127 1188 1303 1178 888 470 345 559 453 387 354 282 264 288 228 381 456 331 325 123 50 8 0 0 0 0 0 0
0 0 0 0 0 0 0 0 0 0 0 0 0 0 0 8 898 1558 1876 1602 1097 1251 1276 1445 1352 1106 643 301 634 577 528 564 544 482 392 301 358 414 346 256 218 178 93 36 0 0 0 0 0
0 0 0 0 0 0 0 0 0 0 0 0 0 0 0 0 0 890 1235 1528 1531 1408 1173 1458 1426 1284 849 557 406 351 463 468 417 472 504 432 250 200 221 224 203 309 137 119 67 0 0 0 0
0 0 0 0 0 0 0 0 0 0 0 0 0 0 0 0 0 480 1644 1694 1653 1507 1747 1533 1495 1616 1285 1003 650 597 652 580 527 605 652 559 358 357 327 277 225 229 209 158 107 34 0 0 0
0 0 0 0 0 0 0 0 0 0 0 0 0 0 0 0 0 0 15 58 159 821 1316 2128 1886 1734 1639 1367 1016 805 850 897 813 748 838 820 622 574 469 552 529 431 355 271 192 79 46 4 0
0 0 0 0 0 0 0 0 0 0 0 0 0 0 0 0 0 0 0 0 11 282 1274 1670 2296 2106 1928 1864 1529 949 910 814 987 964 1122 1184 1089 859 715 564 547 564 599 544 406 267 155 53 17
0 0 0 0 0 0 0 0 0 0 0 0 0 0 0 0 0 0 0 0 0 0 24 397 1556 2366 2293 2076 2005 1729 1331 1239 1339 1270 1386 1202 1078 1071 950 769 689 621 579 468 430 400 326 260 189
0 0 0 0 0 0 0 0 0 0 0 0 0 0 0 0 0 0 0 7 3 0 0 52 560 1928 2396 2170 2093 1866 1492 1384 1489 1636 1605 1495 1590 1611 1351 1096 881 794 718 631 458 416 335 376 421
0 0 0 0 0 0 0 0 0 0 0 0 0 0 0 0 0 0 0 0 0 0 0 0 92 805 1887 2014 1979 1830 1632 1099 1152 1339 1557 1652 1695 1452 1300 1338 1135 890 898 895 614 507 604 290 254
0 0 0 0 0 0 0 0 0 0 0 0 0 0 0 0 0 0 0 0 2 0 0 0 2 95 648 1439 1769 1752 1790 1422 1159 830 614 798 1041 1357 1472 1372 1528 1235 1072 1007 617 429 148 187 106
0 0 0 0 0 0 0 0 0 0 0 0 0 0 0 0 0 0 0 0 58 62 136 204 224 471 1086 1503 1463 1428 1386 1357 1451 1479 1332 1134 1251 1582 1947 1907 1588 1414 1049 566 356 214 71 0 101
0 0 0 0 0 0 0 0 0 0 0 0 0 0 0 0 0 0 0 0 25 103 253 334 716 1098 1188 1276 1196 1241 1354 1500 1534 1544 1547 1641 1604 1655 1925 2001 1778 1680 877 208 92 86 18 0 15
0 0 0 0 0 0 0 0 0 0 0 0 0 0 0 0 1 10 1 0 0 0 0 0 0 13 62 687 1653 1629 1667 1785 1707 1220 765 446 953 1384 1574 1689 1680 1589 1207 757 390 253 159 92 0
0 0 0 0 0 0 0 0 0 0 0 0 0 0 0 0 0 0 0 0 0 0 0 0 0 0 0 0 0 0 0 0 0 0 0 0 0 30 604 1028 1323 1614 1479 999 752 663 457 268 147
0 0 0 0 0 0 0 0 0 0 0 0 0 0 0 0 0 0 0 0 0 0 0 0 0 0 0 0 0 0 0 0 0 0 0 0 0 0 0 3 296 569 753 1130 1083 1019 889 575 456
0 0 0 0 0 0 0 0 0 0 0 0 0 0 0 0 0 0 0 0 0 0 0 0 0 0 0 0 0 0 0 0 0 0 0 0 0 0 0 0 0 0 146 512 637 687 732 910 880
10 5 3 0 0 0 0 0 0 0 0 0 0 0 0 0 0 0 0 0 0 0 0 0 0 0 0 0 0 0 0 0 0 0 0 0 0 0 0 0 0 0 0 7 276 262 263 383 451
25 23 0 12 1 0 9 0 0 0 0 0 0 0 0 0 0 0 0 0 0 0 0 0 0 0 0 0 0 0 0 0 0 0 0 0 0 0 0 0 0 0 0 0 26 120 202 259 297
22 0 6 5 5 3 9 0 12 0 0 0 0 0 0 0 0 0 0 0 0 0 0 0 0 0 0 0 0 0 0 0 0 0 0 0 0 0 0 0 0 0 0 0 0 22 113 177 133
21 14 5 4 0 5 5 5 0 0 0 0 0 0 0 0 0 0 0 0 0 0 0 0 0 0 0 0 0 0 0 0 0 0 0 0 0 0 0 0 0 0 0 0 0 0 32 62 88
6 23 23 4 4 0 1 1 0 0 0 0 0 0 0 0 0 0 0 0 0 0 0 0 0 0 0 0 0 0 0 0 0 0 0 0 0 0 0 0 0 0 0 0 0 0 0 49 46

GFSSGP_con_mlcape_102.txt.gz
CAPE
0 0 0 0 0 0 0 0 0 0 0 0 0 0 0 0 24 317 1967 1913 1449 1464 2027 1266 867 787 1002 1287 1324 802 654 417 111 64 158 219 208 172 283 712 899 729 439 309 301 122 0 0 0
0 0 0 0 0 0 0 0 0 0 0 0 0 0 0 137 1046 1368 1834 1893 1606 1804 2116 1631 945 865 1079 1372 1387 874 695 368 145 144 175 206 190 183 295 746 921 671 402 126 29 47 3 1 0
0 0 0 0 0 0 0 0 0 0 0 0 0 0 27 712 1502 1803 2143 1721 1690 1939 1926 1874 1057 916 1163 1264 1398 900 795 430 165 143 186 222 205 210 242 495 605 486 149 0 0 2 0 0 0
0 0 0 0 0 0 0 0 0 0 0 0 0 0 0 3 1502 2341 1643 1462 1785 1767 1699 1763 1040 837 1034 1163 1138 968 796 562 312 381 323 287 226 222 266 345 342 100 0 0 0 0 0 0 22
0 0 0 0 0 0 0 0 0 0 0 0 0 0 0 1261 2367 2350 1607 1484 1526 1473 1564 1585 922 663 741 813 815 791 763 657 600 653 487 372 257 224 268 208 88 0 6 95 60 0 2 77 135
0 0 0 0 0 0 0 0 0 0 0 0 0 0 0 514 2332 2410 1909 1496 1209 1304 1531 1454 931 584 590 651 713 742 720 670 705 635 543 378 252 261 195 111 91 3 27 134 118 21 0 40 24
0 0 0 0 0 0 0 0 0 0 0 0 0 0 0 0 2019 2426 2222 1731 1249 1278 1384 1229 660 723 493 501 496 486 547 614 641 570 364 319 301 323 228 175 162 48 0 94 135 68 23 17 8
0 0 0 0 0 0 0 0 0 0 0 0 0 0 0 0 1120 2411 2181 1867 1302 1248 1186 1163 802 484 436 530 419 267 260 264 208 242 225 197 255 338 229 181 141 108 16 0 67 74 18 6 0
0 0 0 0 0 0 0 0 0 0 0 0 0 0 0 0 672 2259 2097 1653 1143 1034 1162 1247 1128 537 190 206 531 248 207 203 173 179 184 181 91 284 356 115 173 48 14 0 0 9 16 15 13
0 0 0 0 0 0 0 0 0 0 0 0 0 0 0 0 96 1100 1998 1654 1241 1099 1303 1430 1507 966 348 200 460 254 261 197 198 174 379 141 72 164 81 105 196 110 36 2 0 0 0 7 0
0 0 0 0 0 0 0 0 0 0 0 0 0 0 0 0 0 201 1388 1858 1509 1401 1416 1524 1702 1505 759 322 425 265 318 306 370 343 405 147 139 218 146 183 341 204 67 33 0 0 0 0 0
0 0 0 0 0 0 0 0 0 0 0 0 0 0 0 0 0 0 548 1223 1857 1669 1642 1736 1968 1863 1387 617 434 388 435 508 584 650 743 352 341 234 209 93 89 157 74 56 22 0 0 0 0
0 0 0 0 0 0 0 0 0 0 0 0 0 0 0 0 0 0 82 461 712 1299 1902 1978 2004 1972 1850 1399 803 671 599 637 769 768 967 804 745 454 327 86 74 36 63 42 80 35 12 2 0
0 0 0 0 0 0 0 0 0 0 0 0 0 0 0 0 0 1 301 414 376 527 1419 1865 2397 2292 2273 2162 1648 1241 1145 1109 1048 887 953 1031 977 838 883 899 812 592 328 137 79 62 73 63 4
0 0 0 0 0 0 0 0 0 0 0 0 0 0 0 0 0 0 93 46 48 39 259 1806 2073 2321 2619 2424 2296 1861 1226 1085 1151 1335 1330 1382 1329 1202 1163 1117 1147 1098 1094 1138 1011 834 477 323 153
0 0 0 0 0 0 0 0 0 0 0 0 0 0 0 0 0 0 0 0 45 1 2 229 327 1046 2328 2317 2616 2262 1855 1480 1167 1141 1174 1540 1624 1655 1512 1342 1213 1191 1193 1131 1079 1069 988 855 755
0 0 0 0 0 0 0 0 0 0 0 0 0 0 0 0 0 1 1 2 25 43 39 309 314 625 1035 1906 2195 2308 2504 2230 1736 1637 1425 1658 1587 1344 1545 1396 1434 1489 1423 1203 1069 979 941 819 898
0 0 0 0 0 0 0 0 0 0 0 0 0 0 0 0 0 0 0 0 23 113 239 184 417 333 1049 1089 1798 2526 2669 2545 2331 2070 1840 1955 1938 1318 374 1753 1938 1532 1279 1201 1216 1200 1139 1070 956
0 0 0 0 0 0 0 0 0 0 0 0 0 0 0 0 0 0 0 6 62 124 224 88 231 632 4 47 1284 1903 2234 2276 2398 2303 2278 2204 2290 2001 1026 1389 1611 1490 1178 1447 1401 1475 1474 1206 953
0 0 0 0 0 0 0 0 0 0 0 0 0 0 0 0 0 0 0 6 59 281 638 674 475 480 392 575 1206 1769 2076 2031 2121 2158 2255 2000 1625 1645 1747 1597 1557 1900 1819 1741 1794 1541 1244 890 771
0 0 0 0 0 0 0 0 0 0 0 0 0 0 0 0 0 0 5 61 178 354 529 793 1392 1493 1463 1609 1831 1983 2092 2059 1900 1933 2004 2084 2155 2091 1559 1262 1640 2240 1945 1735 1806 1655 1322 624 309
0 0 0 0 0 0 0 0 0 0 0 0 0 0 0 0 7 21 17 21 32 47 43 40 81 186 363 905 1681 2133 2220 2300 1958 2051 1551 1487 1617 1945 1917 1825 2008 2161 2082 1871 1627 1335 942 708 369
0 0 0 0 0 0 0 0 0 0 0 0 0 0 6 0 0 0 0 0 0 0 0 0 0 0 0 0 0 51 216 96 41 109 68 135 234 345 571 784 913 1625 1830 1927 1688 1470 1355 940 749
0 0 0 0 2 0 0 0 0 0 1 0 0 0 0 0 0 0 0 0 0 0 0 0 0 0 0 0 0 0 0 0 0 0 0 0 0 0 0 13 72 396 740 893 1111 1275 1254 1380 1014
0 1 2 0 1 0 4 2 0 16 1 0 0 0 0 0 0 0 0 0 0 0 0 0 0 0 0 0 0 0 0 0 0 0 0 0 0 0 0 0 0 0 2 37 308 647 780 821 835
1 5 0 8 0 0 2 0 8 18 0 3 0 0 0 0 0 0 0 0 0 0 0 0 0 0 0 0 0 0 0 0 0 0 0 0 0 0 0 0 0 0 0 0 0 2 49 273 348
2 12 5 18 14 24 18 28 16 0 0 0 0 0 0 0 0 0 0 0 0 0 0 0 0 0 0 0 0 0 0 0 0 0 0 0 0 0 0 0 0 0 0 0 0 0 0 101 309
12 5 10 24 25 16 21 39 54 4 0 0 0 0 0 0 0 0 0 0 0 0 0 0 0 0 0 0 0 0 0 0 0 0 0 0 0 0 0 0 0 0 0 0 0 0 0 0 21
17 13 11 46 22 15 21 46 5 46 16 0 0 0 0 0 0 0 0 0 0 0 0 0 0 0 0 0 0 0 0 0 0 0 0 0 0 0 0 0 0 0 0 1 2 1 0 0 12
45 49 59 26 23 31 35 32 0 3 40 7 0 0 0 0 0 0 0 0 0 0 0 0 0 0 0 0 0 0 0 0 0 0 0 0 0 1 2 3 2 2 2 3 4 3 4 5 6

GFSSGP_con_mlcape_108.txt.gz
CAPE
0 0 0 0 0 0 0 0 0 0 0 0 0 0 0 0 734 1636 2127 1857 2027 1528 1287 1374 1378 1227 789 520 434 210 66 68 74 6 66 175 229 345 357 242 343 468 613 556 339 68 18 0 0
0 0 0 0 0 0 0 0 0 0 0 0 0 0 0 1209 1253 2713 2615 1814 2422 1692 1076 1381 1352 1285 874 691 585 191 50 102 52 26 99 205 265 419 622 549 407 413 681 679 354 5 0 0 0
0 0 0 0 0 0 0 0 0 3 0 0 0 0 0 684 1498 2451 2141 2190 2811 2153 1366 1581 1275 1267 1186 904 682 265 114 198 11 17 67 151 276 528 858 751 537 468 270 195 91 16 3 0 0
0 0 0 0 0 0 0 0 0 2 0 0 0 0 0 249 1297 2116 1691 2011 2891 2435 1883 1617 1202 1158 1224 1026 753 484 336 303 22 16 53 99 194 434 793 806 607 452 135 8 7 9 25 0 0
0 0 0 0 0 0 0 0 0 0 0 0 0 0 2 585 1532 2020 1833 2070 2619 2255 2492 1792 1079 1160 1221 1162 965 775 655 373 5 9 65 140 144 233 545 638 532 259 10 0 0 0 0 23 96
0 0 0 0 0 0 0 0 0 0 0 0 0 0 0 304 1154 2184 1931 2037 2168 2552 2664 1829 1177 1253 1295 1280 1185 1001 745 334 17 54 145 154 112 132 190 225 234 29 0 0 0 0 0 0 97
0 0 0 0 0 0 0 0 0 0 0 0 0 0 0 0 1485 1766 2031 1940 1691 2107 2356 1690 1196 1253 1287 1331 1247 1024 718 394 88 145 269 147 61 66 87 85 25 0 0 0 0 0 0 0 11
0 0 0 0 0 0 0 0 0 0 0 0 0 0 0 232 645 1722 2099 1864 1531 1445 1897 1312 1244 1253 1359 1424 1290 981 720 474 277 309 417 282 182 166 131 31 0 0 0 0 0 0 0 0 0
0 0 0 0 0 0 0 0 0 0 0 0 0 0 0 0 79 1120 1543 1720 1548 1453 1439 1133 1045 912 822 1137 1220 957 870 752 654 684 643 437 319 361 344 37 14 0 0 0 0 0 0 0 0
0 0 0 0 0 0 0 0 0 0 0 0 0 0 0 0 0 107 990 1064 1540 1377 1234 868 714 492 301 588 1039 975 1059 1020 917 934 885 511 197 328 132 49 56 8 0 0 0 0 0 0 0
0 0 0 0 0 0 0 0 0 0 0 0 0 0 0 0 0 6 260 477 1736 1492 1177 737 736 464 314 605 711 614 708 628 583 522 642 259 72 262 21 174 30 92 36 0 0 0 0 0 0
0 0 0 0 0 0 0 0 0 0 0 0 0 0 0 0 0 0 0 94 1616 1165 1056 746 702 1150 1204 1087 648 265 519 300 263 214 396 380 118 233 225 153 132 95 56 0 0 0 0 0 0
0 0 0 0 0 0 0 0 0 0 0 0 0 0 0 0 0 0 0 0 1596 832 461 210 1 1477 1717 1955 1329 463 657 512 429 448 550 721 290 348 305 210 385 381 102 78 26 5 0 0 0
0 0 0 0 0 0 0 0 0 0 0 0 0 0 0 0 0 0 0 6 1116 865 1 0 50 1348 2145 2351 1809 1377 1267 1294 1103 1104 863 983 1040 771 911 458 527 342 365 183 159 59 49 5 0
0 0 0 0 0 0 0 0 0 0 0 0 0 0 0 0 0 0 0 0 923 278 1 0 108 863 1292 2069 2123 1773 1615 1233 1352 905 1275 1446 1330 1422 1334 1041 604 488 433 475 599 473 529 148 129
0 0 0 0 0 0 0 0 0 0 0 0 0 0 0 0 0 0 0 25 814 1591 1044 665 173 317 1603 2603 2317 1800 1782 1749 1497 1347 1483 1647 1999 1538 1403 1244 1390 1594 1448 1307 1132 1043 758 579 636
0 0 0 0 0 0 0 0 0 0 0 0 0 0 0 0 0 0 0 653 306 330 920 1446 1671 2218 2342 3103 2652 2222 2300 1716 579 18 59 1279 1113 1127 866 898 980 1370 1489 1594 1545 1533 224 704 1171
0 0 0 0 0 0 0 0 0 0 0 0 0 0 0 0 0 0 1 323 57 80 463 914 1959 2605 2398 1997 1742 1204 1573 2214 1925 1690 1974 1638 704 177 19 4 133 507 1090 1441 1263 958 945 884 861
0 0 0 0 0 0 0 0 0 0 0 0 0 0 0 0 0 0 0 200 83 436 310 504 663 1920 2189 2270 1234 1067 1152 1157 1077 1300 1396 2029 1035 184 9 0 0 396 907 953 655 150 16 132 114
0 0 0 0 0 0 0 0 0 0 0 0 0 0 0 0 0 2 15 11 187 717 782 724 764 1447 1425 1064 653 555 303 177 267 395 1435 1925 2109 1528 929 582 974 987 595 200 80 0 0 0 0
0 0 0 0 0 0 0 0 0 0 0 0 0 0 0 0 8 0 0 7 442 949 1210 1382 1619 1630 1571 1350 689 679 506 248 97 323 968 1735 2021 2146 1885 1814 1634 1492 264 17 29 9 0 0 0
0 0 0 0 0 0 0 0 0 0 0 0 1 0 0 0 25 27 16 342 965 828 670 521 585 736 625 1303 1509 1671 1370 1240 888 398 602 280 356 573 652 616 918 895 231 0 0 0 2 1 0
0 0 0 0 0 0 0 0 0 0 0 1 6 0 0 92 76 86 284 447 185 139 112 86 71 57 131 195 296 656 433 152 85 61 0 0 0 160 94 21 91 360 497 282 110 1 0 64 145
0 0 0 0 0 0 0 0 0 0 0 0 20 4 12 117 29 37 71 62 54 44 40 28 10 2 16 22 28 40 40 0 0 0 0 0 0 0 18 0 7 49 65 116 158 412 596 639 534
0 0 0 0 0 0 0 0 0 0 3 0 1 91 70 60 33 0 0 0 0 0 13 18 10 2 2 3 1 0 0 0 0 0 0 0 0 0 0 0 0 0 0 0 0 1 45 145 314
0 0 0 0 0 0 0 0 0 0 8 8 7 43 26 29 3 0 0 0 0 0 0 0 0 0 0 0 0 0 0 0 0 0 0 0 0 0 0 0 0 0 0 0 0 0 0 1 6
0 0 0 0 27 45 34 0 4 4 12 18 0 1 33 15 17 0 0 0 0 0 0 0 0 0 0 0 0 0 0 0 0 0 0 0 0 0 0 0 0 0 0 0 0 0 0 0 0
0 1 0 0 0 0 58 2 20 1 19 38 16 12 33 12 0 0 0 0 0 0 0 0 0 0 0 0 0 0 0 0 0 0 0 0 0 0 0 0 0 0 0 0 0 0 1 2 2
0 0 10 28 25 54 57 0 0 8 16 59 12 32 3 0 0 0 0 0 0 0 0 0 0 0 0 0 0 0 0 0 0 0 0 0 0 0 0 0 0 0 0 0 0 0 0 0 1
0 8 33 33 0 52 75 20 0 8 0 43 0 105 0 0 0 0 0 0 0 0 0 0 0 0 0 0 0 0 0 0 0 0 0 0 0 0 0 0 0 0 0 1 2 1 4 6 4

GFSSGP_con_mlcape_111.txt.gz
CAPE
0 0 0 0 0 0 0 0 0 0 0 0 0 0 175 1712 1278 1175 1863 1625 838 637 1225 1310 957 858 672 420 99 8 0 0 0 0 2 68 151 100 5 51 239 337 338 181 79 29 0 0 0
0 0 0 0 0 0 0 0 0 0 0 0 0 0 230 2017 2275 2177 1817 1418 746 777 1111 1373 1046 899 583 296 39 0 0 0 0 0 1 38 164 121 57 88 243 375 348 243 30 0 0 0 0
0 0 0 0 0 0 0 0 0 0 0 0 0 0 82 1585 2263 1817 1851 1732 932 679 995 1345 1201 885 670 467 115 0 4 0 0 0 9 20 112 191 221 184 243 479 537 240 3 0 0 0 0
0 0 0 0 0 0 0 0 0 0 0 0 0 0 78 650 1850 1538 1938 1902 1086 873 980 1323 1410 1097 879 785 395 31 29 3 0 0 8 18 81 200 428 298 309 235 178 70 0 0 0 0 0
0 0 0 0 0 0 0 0 0 0 0 0 0 0 367 1456 1601 1602 2466 2346 1873 1444 1340 1067 1288 1313 1203 968 652 232 184 21 0 0 1 10 65 238 572 521 391 215 16 0 0 0 0 0 0
0 0 0 0 0 0 0 0 0 0 0 0 0 0 214 1032 1758 1627 2309 2484 2168 1887 1766 834 1157 1274 1251 1029 760 471 374 94 0 0 15 11 22 150 370 494 381 100 0 0 0 0 0 0 0
0 0 0 0 0 0 0 0 0 0 0 0 0 0 35 1098 1730 1736 1736 2286 2405 2175 1829 1149 1142 1308 1265 1082 861 698 511 196 0 12 62 114 74 120 241 227 206 18 0 0 0 0 0 0 0
0 0 0 0 0 0 0 0 0 0 0 0 0 0 1 1304 1540 1772 1838 2035 2408 2355 1901 1293 1037 1250 1164 1274 1145 879 610 269 8 80 235 201 250 216 194 183 124 0 0 0 0 0 0 0 0
0 0 0 0 0 0 0 0 0 0 0 0 0 0 55 158 229 1103 2050 1685 2449 2429 1945 1222 894 970 1142 1323 1324 1093 800 458 219 296 458 391 245 283 286 180 43 0 0 0 5 0 0 0 0
0 0 0 0 0 0 0 0 0 0 0 0 0 0 0 0 3 13 784 1488 1874 1874 1453 893 707 693 1082 1349 1418 1156 1061 851 627 593 642 463 217 220 124 92 74 21 0 0 1 30 22 6 0
0 0 0 0 0 0 0 0 0 0 0 0 0 0 0 0 0 0 2 134 1672 1159 1047 768 737 770 942 1087 824 1028 1090 919 843 798 673 421 206 400 303 153 81 100 62 14 3 0 2 5 0
0 0 0 0 0 0 0 0 0 0 0 0 0 0 0 0 0 0 0 290 1422 455 0 27 402 409 571 930 561 568 656 821 674 847 753 344 69 163 316 181 140 71 48 25 7 0 0 0 0
0 0 0 0 0 0 0 0 0 0 0 0 0 0 0 0 0 0 0 505 953 205 0 50 98 271 339 603 482 348 498 474 391 447 562 357 67 99 445 234 167 169 110 78 30 5 4 0 0
0 0 0 0 0 0 0 0 0 0 0 0 0 0 0 0 0 0 0 576 704 199 22 8 1 0 76 535 731 664 686 502 479 415 452 556 473 145 342 464 344 421 391 251 132 70 34 17 6
0 0 0 0 0 0 0 0 0 0 0 0 0 0 0 0 0 0 0 312 606 181 0 0 0 0 44 960 1008 1131 1358 1065 902 1025 796 837 912 570 791 1101 430 396 479 588 745 379 298 322 106
0 0 0 0 0 0 0 0 0 0 0 0 0 0 0 0 0 0 0 542 326 1 0 2 59 90 640 1021 895 1233 1573 1479 1362 1125 1339 1427 1385 990 706 622 712 740 692 512 530 777 614 313 185
0 0 0 0 0 0 0 0 0 0 0 0 0 0 0 0 0 0 0 934 600 100 12 115 154 261 575 362 570 1311 1713 1491 1315 880 791 926 1072 1079 342 69 269 509 325 149 31 20 107 188 169
0 0 0 0 0 0 0 0 0 0 0 0 0 0 0 0 0 0 0 1075 1098 273 254 216 78 318 237 135 676 1779 1846 1814 1117 603 36 380 1296 1013 584 192 237 210 115 4 0 0 0 0 0
0 0 0 0 0 0 0 0 0 0 0 0 0 0 0 0 0 0 181 696 1586 1625 1181 653 555 693 1106 1865 1782 1688 2063 1996 1793 1485 1713 989 764 745 111 51 29 21 10 0 0 0 0 0 0
0 0 0 0 0 0 0 0 0 0 0 0 0 0 0 0 0 13 652 646 723 1151 1574 1750 1613 1734 1689 1850 1409 947 1231 1284 954 1003 1246 1259 989 1107 513 72 53 67 4 4 8 0 0 0 0
0 0 0 0 0 0 0 0 0 0 0 0 0 0 0 0 2 239 845 1070 928 892 1141 1447 1261 1350 1244 1499 1040 561 366 342 739 879 745 442 1360 1321 688 409 442 717 474 151 36 0 0 0 0
0 0 0 0 0 0 0 0 0 0 0 0 0 0 0 0 103 996 885 726 696 654 574 597 624 527 591 1250 1274 719 483 421 274 127 14 0 5 94 46 13 289 629 242 113 0 0 0 0 0
0 0 0 0 0 0 0 0 0 0 0 0 0 0 1 18 224 459 419 348 258 243 198 105 77 55 88 377 300 138 124 79 41 0 0 0 0 0 0 0 16 111 50 71 38 66 16 0 0
0 0 0 0 0 0 0 0 0 0 0 0 0 7 74 150 153 129 93 52 29 16 0 3 1 0 0 0 11 12 0 0 0 0 0 0 0 0 0 0 0 0 0 0 0 6 51 18 1
0 0 0 0 0 0 0 0 0 0 0 0 0 133 103 66 44 30 27 31 18 3 0 0 0 0 0 0 0 0 0 0 0 0 0 0 0 0 0 0 0 0 0 0 0 0 0 0 0
0 0 0 0 0 0 0 0 0 0 26 2 173 85 30 3 12 2 13 5 2 1 0 0 0 0 0 0 0 0 0 0 0 0 0 0 0 0 0 0 0 0 0 0 0 0 0 0 0
0 0 0 0 1 0 1 7 0 0 41 117 86 50 18 0 0 0 0 0 0 0 0 0 0 0 0 0 0 0 0 0 0 0 0 0 0 0 0 0 0 0 0 0 0 0 0 0 0
0 0 0 0 6 0 0 16 82 5 37 25 39 80 50 0 0 0 0 0 0 0 0 0 0 0 0 0 0 0 0 0 0 0 0 0 0 0 0 0 0 0 0 0 0 0 0 0 0
1 6 0 0 0 0 0 0 9 3 17 9 34 47 5 0 0 0 0 0 0 0 0 0 0 0 0 0 0 0 0 0 0 0 0 0 0 0 0 0 0 0 0 0 0 0 0 0 0
0 0 2 0 14 20 3 15 1 0 3 0 2 0 0 0 0 0 0 0 0 0 0 0 0 0 0 0 0 0 0 0 0 0 0 0 0 0 0 0 0 0 0 0 0 0 0 0 0

GFSSGP_con_mlcape_114.txt.gz
CAPE
0 0 0 0 0 0 0 0 0 0 0 0 0 9 793 1594 651 129 1551 1180 1000 695 948 1209 1121 1138 820 180 0 0 0 0 0 0 0 14 4 0 0 131 349 502 363 230 112 0 0 0 0
0 0 0 0 0 0 0 0 0 0 0 0 2 1046 938 1307 1862 1917 1647 1427 624 758 950 1048 1068 1245 964 207 0 0 0 0 0 0 0 4 1 0 12 249 389 384 289 139 21 0 0 0 0
0 0 0 0 0 0 0 0 0 0 0 0 0 166 1684 1955 2173 1899 1760 1332 737 959 1007 940 1070 1241 987 259 14 9 0 0 0 0 0 36 16 4 41 242 419 407 408 158 0 0 0 0 0
0 0 0 0 0 0 0 0 0 0 0 0 0 14 695 2004 1584 891 1418 936 616 1003 1110 1219 1101 1097 814 371 58 33 12 0 0 0 0 31 43 47 128 199 391 608 614 200 0 0 0 0 0
0 0 0 0 0 0 0 0 0 0 0 0 0 3 725 1744 1680 1212 1481 668 467 1043 1325 1257 1008 977 840 542 146 81 36 0 8 13 13 37 89 259 223 260 334 343 372 174 0 0 0 0 0
0 0 0 0 0 0 0 0 0 0 0 0 0 20 291 1495 1382 1762 1700 922 829 775 1227 1446 1140 898 821 730 348 177 160 21 12 30 38 89 186 442 542 485 422 255 119 53 4 0 0 0 0
0 0 0 0 0 0 0 0 0 0 0 0 0 15 632 1563 1967 2150 2155 1438 1336 949 836 1230 1411 1319 1165 888 612 288 272 66 15 52 79 61 154 409 648 664 491 218 9 5 7 0 0 0 0
0 0 0 0 0 0 0 0 0 0 0 0 0 0 775 1605 2244 2625 2401 2164 1880 1261 825 765 1064 1352 1222 1051 806 613 475 242 11 57 169 142 113 228 469 471 373 189 24 16 11 6 0 0 0
0 0 0 0 0 0 0 0 0 0 0 0 0 20 536 1694 1629 2054 2403 2400 2088 1606 1266 828 779 827 963 1017 1036 955 783 522 234 297 337 244 130 150 190 209 217 141 35 13 19 10 0 12 35
0 0 0 0 0 0 0 0 0 0 0 0 0 90 432 242 993 1498 2592 2616 2318 1758 1397 949 966 788 643 911 1045 1018 902 579 341 292 411 292 154 115 155 154 122 76 42 37 52 55 31 10 0
0 0 0 0 0 0 0 0 0 0 0 0 0 0 1 31 3 3 269 2597 1947 1734 1316 935 920 901 885 975 997 993 882 636 465 359 367 350 247 148 180 101 97 81 71 26 23 23 65 89 39
0 0 0 0 0 0 0 0 0 0 0 0 0 0 0 0 0 0 0 658 1332 1370 1061 724 666 683 893 999 831 735 681 613 548 555 526 443 271 95 172 234 161 136 100 68 55 24 8 4 0
0 0 0 0 0 0 0 0 0 0 0 0 0 0 0 0 0 0 112 447 888 1214 689 498 625 469 39 723 552 681 649 674 549 541 637 460 152 76 125 221 267 252 218 176 107 64 24 0 0
0 0 0 0 0 0 0 0 0 0 0 0 0 0 0 0 0 0 20 446 899 1047 770 210 197 52 286 445 730 492 716 498 467 317 383 570 324 85 208 327 450 290 340 299 223 131 75 40 20
0 0 0 0 0 0 0 0 0 0 0 0 0 0 0 0 0 0 0 262 690 779 408 364 130 283 218 110 376 697 430 418 417 360 424 521 521 440 312 700 564 454 571 593 469 360 248 198 102
0 0 0 0 0 0 0 0 0 0 0 0 0 0 0 0 0 0 3 269 653 585 483 258 365 338 89 201 637 1050 1001 512 529 572 555 611 699 796 676 692 848 765 580 336 268 176 114 87 62
0 0 0 0 0 0 0 0 0 0 0 0 0 0 0 0 0 0 0 315 728 591 301 259 141 61 60 423 1071 1058 1552 1210 1006 947 1127 1111 1118 1058 986 876 731 430 192 148 200 8 1 0 1
0 0 0 0 0 0 0 0 0 0 0 0 0 0 0 0 0 0 116 838 866 498 208 181 126 30 72 616 880 1144 1605 1649 962 427 567 898 1102 1076 846 679 59 15 53 34 4 8 1 6 10
0 0 0 0 0 0 0 0 0 0 0 0 0 0 0 0 0 0 296 976 500 128 148 156 329 352 372 828 1027 888 1351 1685 1309 1118 1158 932 1160 901 603 402 141 103 44 13 0 0 0 31 14
0 0 0 0 0 0 0 0 0 0 0 0 0 0 0 0 0 0 756 1281 528 303 373 416 543 782 833 772 573 1235 1366 1254 1326 1136 1323 1290 1065 717 622 263 101 13 0 0 0 2 48 0 0
0 0 0 0 0 0 0 0 0 0 0 0 0 0 0 0 0 274 1269 1906 1300 1017 635 635 843 773 772 1234 1344 1104 1240 1083 945 490 451 554 1050 987 673 424 156 102 72 64 6 47 17 0 0
0 0 0 0 0 0 0 0 0 0 0 0 0 0 2 137 639 1054 1228 1450 1359 1128 1145 803 974 1255 1505 1540 1362 897 775 837 156 26 0 5 5 8 97 322 537 623 366 253 168 23 0 0 0
0 0 0 0 0 0 0 0 0 0 0 0 0 0 570 530 771 886 836 803 647 471 504 263 396 659 655 640 423 258 165 51 0 0 0 0 0 0 0 0 25 37 15 16 6 0 1 1 0
0 0 0 0 0 0 0 0 0 0 0 0 0 108 655 897 920 739 418 321 174 0 0 5 40 9 14 39 22 51 33 0 0 0 0 0 0 0 0 0 0 0 0 0 0 0 0 0 0
0 0 0 0 0 0 0 0 0 0 0 0 3 204 640 703 618 433 209 82 4 0 0 0 0 0 0 0 0 0 0 0 0 0 0 0 0 0 0 0 0 0 0 0 0 0 0 0 0
0 0 0 0 0 0 0 0 0 0 0 1 97 280 384 403 196 128 72 33 15 2 0 0 0 0 0 0 0 0 0 0 0 0 0 0 0 0 0 0 0 0 0 0 0 0 0 0 0
0 0 0 0 0 0 0 0 0 0 0 12 48 137 115 6 8 7 19 17 0 0 0 0 0 0 0 0 0 0 0 0 0 0 0 0 0 0 0 0 0 0 0 0 0 0 0 0 0
0 0 0 0 0 0 0 0 0 1 0 10 40 101 22 2 0 0 0 0 0 0 0 0 0 0 0 0 0 0 0 0 0 0 0 0 0 0 0 0 0 0 0 0 0 0 0 0 0
0 0 0 0 0 0 0 0 16 14 6 1 17 14 0 0 0 0 0 0 0 0 0 0 0 0 0 0 0 0 0 0 0 0 0 0 0 0 0 0 0 0 0 0 0 0 0 0 0
0 0 0 0 0 0 0 0 33 18 5 0 0 0 0 0 0 0 0 0 0 0 0 0 0 0 0 0 0 0 0 0 0 0 0 0 0 0 0 0 0 0 0 0 0 0 0 0 0

GFSSGP_con_mlcape_117.txt.gz
CAPE
0 0 0 0 0 0 0 0 0 0 0 0 0 0 351 812 420 40 1278 419 643 845 870 1104 1033 865 330 0 0 0 0 0 0 0 0 12 7 8 149 407 554 498 504 425 51 4 28 18 3
0 0 0 0 0 0 0 0 0 0 0 0 0 1390 1028 987 1884 1612 1434 936 884 790 951 904 1066 851 413 0 0 0 0 0 0 0 0 0 0 3 147 391 517 331 264 240 41 7 28 9 1
0 0 0 0 0 0 0 0 0 0 0 0 0 101 1654 913 1865 1563 1593 1298 1018 797 972 1200 1154 905 454 37 16 0 0 0 0 0 0 0 0 3 188 372 436 395 317 105 21 1 0 0 0
0 0 0 0 0 0 0 0 0 0 0 0 0 0 1028 2075 1807 1743 1626 1446 847 838 1018 1468 1384 1014 501 74 72 17 0 6 0 0 0 0 0 0 131 337 439 531 443 79 0 0 0 0 0
0 0 0 0 0 0 0 0 0 0 0 0 0 0 192 1944 1675 1482 1628 1384 703 970 1042 1388 1333 1039 443 63 128 104 28 18 11 6 21 19 6 23 83 259 471 632 468 100 0 0 0 0 0
0 0 0 0 0 0 0 0 0 0 0 0 0 0 191 1694 1475 1249 1427 905 854 806 1164 1223 1349 901 351 54 71 105 48 25 24 20 40 95 95 277 253 397 399 321 270 99 1 0 0 0 0
0 0 0 0 0 0 0 0 0 0 0 0 0 0 422 1689 1649 1186 904 790 841 1117 1100 1231 1208 870 535 257 99 133 96 58 57 55 54 104 249 497 576 558 471 293 115 43 23 3 0 0 19
0 0 0 0 0 0 0 0 0 0 0 0 0 0 112 1340 1756 1286 807 1051 1060 1354 1303 1126 1016 952 799 671 343 278 303 127 100 128 96 99 199 366 494 597 517 298 66 29 26 11 0 0 0
0 0 0 0 0 0 0 0 0 0 0 0 0 0 303 1789 2030 1709 1484 1425 1047 1170 1243 1106 1008 983 843 772 748 560 509 374 236 243 211 165 111 207 341 340 304 265 101 71 65 43 28 24 36
0 0 0 0 0 0 0 0 0 0 0 0 0 155 1360 2199 2327 2331 2315 2151 1515 1060 1051 1173 1142 921 894 1006 1072 798 721 461 206 180 225 154 94 93 135 156 123 117 65 46 53 75 66 59 22
0 0 0 0 0 0 0 0 0 0 0 0 0 118 354 1466 2378 2528 2591 2467 2015 1518 1103 1041 1014 984 995 1014 867 807 800 505 245 135 214 222 176 165 168 140 174 146 81 26 40 11 33 15 6
0 0 0 0 0 0 0 0 0 0 0 0 0 0 0 229 1347 2022 2362 2608 2221 1885 1280 994 837 835 778 717 736 848 803 621 378 336 324 243 184 130 104 118 97 126 105 37 21 8 0 0 0
0 0 0 0 0 0 0 0 0 0 0 0 0 0 0 0 0 0 1400 2175 2006 1830 1538 1025 936 745 611 449 301 516 608 760 639 470 481 425 286 151 127 180 282 224 243 192 144 93 60 35 13
0 0 0 0 0 0 0 0 0 0 0 0 0 0 0 0 0 0 291 998 1620 1682 1660 1019 955 519 50 70 68 306 1017 944 791 690 650 660 370 215 123 174 285 354 349 290 242 225 176 95 24
0 0 0 0 0 0 0 0 0 0 0 0 0 0 0 0 0 0 11 239 1010 1532 1414 846 729 445 162 158 721 703 768 704 523 657 756 663 345 266 133 253 341 474 465 380 361 340 250 162 68
0 0 0 0 0 0 0 0 0 0 0 0 0 0 0 0 0 0 35 415 1286 1353 1009 770 825 447 274 372 589 929 701 587 605 516 436 632 737 551 438 362 526 544 542 529 406 237 184 110 75
0 0 0 0 0 0 0 0 0 0 0 0 0 0 0 0 0 0 2 448 880 956 967 749 663 453 326 625 816 915 1074 914 662 632 548 505 708 755 730 643 608 646 529 435 294 57 52 55 19
0 0 0 0 0 0 0 0 0 0 0 0 0 0 0 0 0 0 0 335 651 835 1071 678 547 366 399 635 688 869 1383 1036 762 645 733 864 876 893 766 445 516 358 143 100 53 13 15 16 0
0 0 0 0 0 0 0 0 0 0 0 0 0 0 0 0 0 0 0 255 900 1050 1016 678 556 342 381 501 715 1189 972 722 570 439 419 635 916 1020 787 492 251 90 50 48 0 0 0 0 0
0 0 0 0 0 0 0 0 0 0 0 0 0 0 0 0 0 0 111 572 911 1193 1024 733 623 659 523 488 925 1227 978 660 921 851 822 1023 1017 764 498 319 111 56 24 0 0 0 0 0 0
0 0 0 0 0 0 0 0 0 0 0 0 0 0 0 0 0 0 149 585 1121 1232 1165 1057 808 881 535 549 995 947 917 581 397 305 404 467 802 965 729 430 207 96 62 66 17 14 10 71 0
0 0 0 0 0 0 0 0 0 0 0 0 0 0 0 0 0 247 520 1018 1387 1309 1008 873 814 1012 1158 1170 928 1073 937 614 63 34 3 0 9 85 262 445 343 370 217 226 154 47 20 0 0
0 0 0 0 0 0 0 0 0 0 0 0 0 0 0 19 117 662 1213 1066 772 649 715 793 851 929 1008 1129 1085 737 374 14 0 0 0 0 0 0 0 0 0 0 0 0 0 0 0 0 0
0 0 0 0 0 0 0 0 0 0 0 0 0 153 206 248 494 704 640 690 639 449 453 528 602 490 395 391 384 283 86 0 0 0 0 0 0 0 0 0 0 0 0 0 0 0 0 0 0
0 0 0 0 0 0 0 0 0 0 0 0 0 175 358 506 561 661 540 279 95 73 106 68 99 61 29 56 5 0 0 0 0 0 0 0 0 0 0 0 0 0 0 0 0 0 0 0 0
0 0 0 0 0 0 0 0 0 0 0 0 61 217 428 551 634 425 232 6 7 0 0 0 1 1 0 0 0 0 0 0 0 0 0 0 0 0 0 0 0 0 0 0 0 0 0 0 0
0 0 0 0 0 0 0 0 0 0 0 39 120 369 426 345 167 78 5 0 0 0 0 0 0 0 0 0 0 0 0 0 0 0 0 0 0 0 0 0 0 0 0 0 0 0 0 0 0
0 0 0 0 0 0 0 0 0 0 0 16 105 321 138 7 0 0 0 0 0 0 0 0 0 0 0 0 0 0 0 0 0 0 0 0 0 0 0 0 0 0 0 0 0 0 0 0 0
7 1 0 0 0 0 0 0 0 1 4 4 45 37 26 1 0 0 0 0 0 0 0 0 0 0 0 0 0 0 0 0 0 0 0 0 0 0 0 0 0 0 0 0 0 0 0 0 0
15 0 0 0 0 0 0 0 0 2 14 1 0 0 0 0 0 0 0 0 0 0 0 0 0 0 0 0 0 0 0 0 0 0 0 0 0 0 0 0 0 0 0 0 0 0 0 0 0

GFSSGP_con_mlcape_120.txt.gz
CAPE
0 0 0 0 0 0 0 0 0 0 0 0 0 15 5 612 693 25 1108 57 205 721 1150 1102 932 403 0 0 0 0 0 4 82 285 400 289 205 164 127 441 489 553 575 177 56 38 7 0 0
0 0 0 0 0 0 0 0 0 0 0 0 0 4 737 963 1790 1502 677 524 369 819 1154 1210 962 453 10 0 0 0 0 0 1 29 71 85 88 93 355 505 518 580 559 210 51 76 13 0 0
0 0 0 0 0 0 0 0 0 0 0 0 0 0 596 762 1884 1560 1378 861 1087 992 1198 1353 1041 555 28 13 0 0 0 0 0 3 10 12 31 220 472 561 358 298 254 180 11 87 12 0 0
0 0 0 0 0 0 0 0 0 0 0 0 0 0 27 1784 1873 1510 1532 975 1054 991 1099 1496 1234 545 38 26 28 23 14 0 0 0 0 0 31 227 389 385 342 346 235 75 5 36 13 0 0
0 0 0 0 0 0 0 0 0 0 0 0 0 0 0 634 1860 1637 1554 1254 822 887 1187 1470 1237 530 60 49 25 0 20 26 15 12 1 2 20 122 267 306 428 527 372 12 0 0 0 0 0
0 0 0 0 0 0 0 0 0 0 0 0 0 0 0 420 1524 1476 1505 1234 907 825 1282 1391 1294 666 85 62 46 10 31 45 43 42 34 22 32 63 167 345 561 518 292 20 0 0 0 0 0
0 0 0 0 0 0 0 0 0 0 0 0 0 0 0 567 1357 1287 1333 1303 1038 1112 1201 1296 1290 830 209 187 112 57 48 56 46 45 55 35 93 139 222 347 321 239 114 13 0 0 0 0 15
0 0 0 0 0 0 0 0 0 0 0 0 0 0 0 765 1268 1115 1208 1265 1187 1213 1205 1255 1201 988 510 323 180 122 83 103 93 71 63 73 113 259 381 437 361 200 74 14 7 0 0 5 32
0 0 0 0 0 0 0 0 0 0 0 0 0 0 261 1416 1023 1106 1008 979 1054 1198 1185 1284 1106 797 518 284 409 327 195 110 76 88 60 72 93 235 456 343 308 189 89 23 22 22 17 23 30
0 0 0 0 0 0 0 0 0 0 0 0 1 1078 1746 1526 1176 1128 884 649 869 1059 1107 997 879 688 727 756 619 361 408 230 110 116 106 25 23 67 134 175 170 151 112 27 10 10 11 6 0
0 0 0 0 0 0 0 0 0 0 0 0 0 250 1802 1983 1663 1610 1417 1079 989 1148 1267 1073 931 853 884 818 696 587 586 336 139 113 143 71 43 94 136 129 203 158 151 45 26 20 55 42 26
0 0 0 0 0 0 0 0 0 0 0 0 0 0 164 1911 2084 2053 2059 1698 1400 1240 1203 1249 1068 1132 931 797 676 589 533 423 219 148 184 115 81 65 65 61 106 143 145 74 32 29 1 0 0
0 0 0 0 0 0 0 0 0 0 0 0 0 0 0 761 1701 1813 2491 2263 1827 1590 1164 1133 1215 1052 927 774 653 551 669 656 456 275 233 192 127 84 69 76 83 48 106 136 136 81 67 56 27
0 0 0 0 0 0 0 0 0 0 0 0 0 0 0 0 161 857 2314 2434 2264 1989 1608 1331 1183 1150 1033 902 776 707 944 894 658 408 392 310 274 201 99 54 179 303 297 284 280 270 247 207 119
0 0 0 0 0 0 0 0 0 0 0 0 0 0 0 0 0 0 191 841 1621 2029 1800 1483 1181 1144 914 744 835 1008 1083 997 820 658 578 518 462 341 228 57 65 264 377 385 315 306 265 224 110
0 0 0 0 0 0 0 0 0 0 0 0 0 0 0 0 0 0 0 202 975 1359 1598 1709 1403 1247 777 548 619 603 909 965 811 730 751 764 695 507 284 45 163 376 397 416 373 367 341 243 120
0 0 0 0 0 0 0 0 0 0 0 0 0 0 0 0 0 0 0 123 443 628 1335 1736 1482 1317 836 704 835 1013 888 760 780 670 557 635 693 557 529 295 274 525 469 498 409 278 230 220 77
0 0 0 0 0 0 0 0 0 0 0 0 0 0 0 0 0 0 0 26 543 1106 1520 1515 1269 864 934 938 974 1219 1271 1016 659 522 461 381 556 745 698 581 536 605 589 467 281 212 55 24 1
0 0 0 0 0 0 0 0 0 0 0 0 0 0 0 0 0 0 0 0 717 1225 1502 1261 1044 748 739 827 947 989 1140 939 446 281 201 324 429 689 671 603 540 422 257 68 32 5 0 0 0
0 0 0 0 0 0 0 0 0 0 0 0 0 0 0 0 0 0 0 0 289 841 1114 1065 862 679 683 774 975 1112 1110 751 506 299 11 2 73 618 320 324 299 135 68 18 0 0 0 0 0
0 0 0 0 0 0 0 0 0 0 0 0 0 0 0 0 0 0 0 0 151 348 666 1032 1061 879 722 635 832 1112 694 546 364 150 110 198 444 498 370 244 102 21 0 9 0 0 0 18 0
0 0 0 0 0 0 0 0 0 0 0 0 0 0 0 0 0 0 0 0 13 318 825 1195 1176 1118 929 795 845 1301 1153 665 137 67 29 50 120 257 342 218 160 133 99 105 57 1 4 0 0
0 0 0 0 0 0 0 0 0 0 0 0 0 0 0 0 0 0 14 125 393 672 1063 1014 1044 954 1099 892 1052 998 803 133 0 0 0 0 0 0 0 0 0 0 0 0 0 0 0 1 1
0 0 0 0 0 0 0 0 0 0 0 0 0 0 0 0 78 156 277 194 357 427 515 546 830 552 661 651 563 560 442 94 20 0 0 0 0 0 0 0 0 0 0 0 0 0 0 0 0
0 0 0 0 0 0 0 0 0 0 0 0 0 0 0 9 34 90 183 338 404 255 50 19 11 125 57 256 17 5 14 0 0 0 0 0 0 0 0 0 0 0 0 0 0 0 0 0 0
0 0 0 0 0 0 0 0 0 0 0 0 1 28 44 72 96 202 251 395 298 43 201 46 0 0 0 0 0 0 0 0 0 0 0 0 0 0 0 0 0 0 0 0 0 0 0 0 0
0 0 0 0 0 0 0 0 0 0 0 0 0 80 82 103 95 51 73 109 16 0 35 0 0 0 0 0 0 0 0 0 0 0 0 0 0 0 0 0 0 0 0 0 0 0 0 0 0
0 0 0 0 0 0 0 0 0 0 0 0 3 73 65 6 30 22 5 0 0 0 0 0 0 0 0 0 0 0 0 0 0 0 0 0 0 0 0 0 0 0 0 0 0 0 0 0 0
0 0 0 0 0 0 0 0 0 0 0 0 94 64 43 3 0 0 0 0 0 0 0 0 0 0 0 0 0 0 0 0 0 0 0 0 0 0 0 0 0 0 0 0 0 0 0 0 0
0 0 0 0 0 0 0 0 0 0 0 0 27 15 1 0 0 0 0 0 0 0 0 0 0 0 0 0 0 0 0 0 0 0 0 0 0 0 0 0 0 0 0 0 0 0 0 0 0

GFSSGP_con_mlcape_123.txt.gz
CAPE
0 0 0 0 0 0 0 0 0 0 0 0 0 0 0 195 881 258 1371 391 928 1292 1593 1268 712 122 82 355 455 535 642 733 776 728 684 319 109 20 2 259 609 795 314 53 23 41 20 2 10
0 0 0 0 0 0 0 0 0 0 0 0 0 0 415 271 1780 1530 612 756 1157 1495 1680 1490 674 176 115 38 41 211 504 688 722 706 569 213 89 9 204 449 575 575 186 18 22 15 1 0 2
0 0 0 0 0 0 0 0 0 0 0 0 0 0 0 1373 2062 1790 903 1062 1477 1622 1699 1714 731 143 77 36 20 26 83 251 456 478 310 190 86 123 404 489 620 672 402 98 202 112 4 0 0
0 0 0 0 0 0 0 0 0 0 0 0 0 0 0 1244 2162 1843 1244 1269 1510 1625 1569 1460 671 153 64 24 5 0 0 24 56 96 142 118 88 287 481 354 323 363 424 103 193 25 0 0 0
0 0 0 0 0 0 0 0 0 0 0 0 0 0 0 860 1951 1749 1515 1416 1208 1483 1565 1432 749 74 22 0 0 0 0 0 6 28 44 85 171 327 387 354 394 323 79 33 33 0 0 0 0
0 0 0 0 0 0 0 0 0 0 0 0 0 0 0 253 1692 1937 1471 1500 1474 1459 1534 1433 976 215 64 28 5 0 11 19 12 6 26 55 132 238 282 307 342 395 97 0 0 0 0 0 0
0 0 0 0 0 0 0 0 0 0 0 0 0 0 0 286 1850 1921 1692 1643 1401 1484 1534 1459 1245 648 284 92 51 31 32 37 24 8 0 0 11 63 114 232 394 257 91 12 0 0 0 0 0
0 0 0 0 0 0 0 0 0 0 0 0 0 0 0 878 1787 1883 1834 1573 1404 1484 1600 1601 1369 792 465 351 104 78 63 36 8 0 0 0 0 0 74 145 132 84 45 9 0 0 0 7 37
0 0 0 0 0 0 0 0 0 0 0 0 0 4 0 1301 1679 1867 1757 1504 1305 1318 1483 1474 1421 1009 476 476 451 93 81 47 17 12 2 17 114 210 256 287 178 87 17 0 0 0 0 1 15
0 0 0 0 0 0 0 0 0 0 0 0 0 1515 1428 1489 1823 1697 1536 1309 1110 1136 1334 1459 1397 895 615 452 621 334 292 202 187 173 149 162 289 370 322 396 253 117 45 0 0 0 5 2 6
0 0 0 0 0 0 0 0 0 0 0 0 0 25 1790 1666 1866 1669 1541 1100 918 1216 1262 1759 1458 1095 725 460 700 594 527 378 423 461 413 322 298 380 260 263 220 273 141 50 16 21 34 42 30
0 0 0 0 0 0 0 0 0 0 0 0 0 0 0 2219 1880 1633 1417 1269 1232 1106 1196 1618 1625 1268 1097 1107 720 643 655 458 297 404 528 357 245 328 271 138 171 292 143 89 62 17 30 60 60
0 0 0 0 0 0 0 0 0 0 0 0 0 0 0 0 2448 2375 1909 1572 1548 1435 1289 1518 1704 1237 1345 1555 1142 946 838 748 463 469 577 471 377 357 351 262 166 145 263 213 166 95 86 110 125
0 0 0 0 0 0 0 0 0 0 0 0 0 0 0 0 1004 2416 2691 2371 1980 1831 1848 1649 1559 1475 1858 1590 1203 1343 1253 1075 908 652 608 687 575 503 438 370 325 263 231 293 175 376 485 490 444
0 0 0 0 0 0 0 0 0 0 0 0 0 0 0 0 0 1387 2422 2736 2668 2447 2108 1754 1447 1538 2025 1816 1554 1377 1397 1311 1216 1015 990 868 811 711 530 481 282 355 651 698 631 709 648 503 560
0 0 0 0 0 0 0 0 0 0 0 0 0 0 0 0 0 0 1439 2868 2955 2933 2416 1833 1663 2154 2005 1794 1629 1653 1536 1543 1555 1451 1300 1110 1012 961 855 712 427 431 456 640 628 636 661 608 736
0 0 0 0 0 0 0 0 0 0 0 0 0 0 0 0 0 0 0 939 2120 2051 2079 2107 2383 2084 1954 1483 1616 1745 1814 1765 1806 1755 1632 1709 1646 1362 1032 512 124 296 403 556 608 549 546 646 583
0 0 0 0 0 0 0 0 0 0 0 0 0 0 0 0 0 0 0 0 643 1638 1887 2143 2383 2318 1700 1572 1538 1386 1589 1699 1600 1320 1217 1047 885 971 786 687 337 191 273 502 580 434 384 420 368
0 0 0 0 0 0 0 0 0 0 0 0 0 0 0 0 0 0 0 0 181 1109 1305 1627 2091 1885 1874 1648 1547 1667 1534 1475 1341 1056 666 129 0 0 0 7 89 211 131 247 438 271 168 126 23
0 0 0 0 0 0 0 0 0 0 0 0 0 0 0 0 0 0 0 0 0 317 1041 1535 1855 1747 1898 1817 1857 1964 1602 1613 1224 787 253 23 0 0 0 0 5 86 152 186 144 100 76 35 0
0 0 0 0 0 0 0 0 0 0 0 0 0 0 0 0 0 0 0 0 0 156 983 1278 1524 1622 1522 1740 1791 1585 1456 1138 965 489 0 1 0 0 0 0 0 0 82 126 117 60 50 139 36
0 0 0 0 0 0 0 0 0 0 0 0 0 0 0 0 0 0 0 0 0 426 1405 1362 1214 1282 1357 1519 1673 1626 1682 1524 895 291 56 44 115 33 136 115 157 146 185 139 108 56 20 1 33
0 0 0 0 0 0 0 0 0 0 0 0 0 0 0 0 0 0 0 14 739 783 881 959 1240 1293 1297 1325 1490 1890 1458 841 497 232 127 56 9 1 0 19 17 0 0 0 0 0 0 0 0
0 0 0 0 0 0 0 0 0 0 0 0 0 0 0 0 0 0 308 177 2 49 188 463 441 416 1007 1315 1311 1052 631 433 269 153 54 2 0 0 0 0 0 0 0 0 0 0 0 0 0
0 0 0 0 0 0 0 0 0 0 0 0 0 0 13 107 0 0 30 0 1 126 223 165 71 25 0 8 75 145 111 82 7 1 0 0 0 0 0 0 0 0 0 0 0 0 0 0 0
0 0 0 0 0 0 0 0 0 0 0 0 0 0 0 10 185 135 3 6 63 410 431 131 96 20 3 0 2 0 0 0 0 0 0 0 0 0 0 0 0 0 0 0 0 0 0 0 0
4 0 0 0 0 0 0 0 0 0 0 0 0 0 0 2 4 10 7 42 192 86 17 3 1 0 0 0 4 0 0 0 0 0 0 0 0 0 0 0 0 0 0 0 0 0 0 0 0
17 0 0 5 0 0 0 0 0 0 0 0 0 0 1 2 1 1 2 36 32 17 2 0 0 0 0 0 0 0 0 0 0 0 0 0 0 0 0 0 0 0 0 0 0 0 0 0 0
0 0 0 0 0 0 0 0 0 0 0 0 0 2 1 1 2 2 3 0 0 0 0 0 0 0 0 0 0 0 0 0 0 0 0 0 0 0 0 0 0 0 0 0 0 0 0 0 0
2 0 0 0 0 0 0 0 0 0 0 24 2 2 4 4 2 1 0 0 0 0 0 0 0 0 0 0 0 0 0 0 0 0 0 0 0 0 0 0 0 0 0 0 0 0 0 0 0